<?xml version="1.0" encoding="UTF-8" standalone="no" ?>
<gpx xmlns="http://www.topografix.com/GPX/1/1" xmlns:xsi="http://www.w3.org/2001/XMLSchema-instance" xsi:schemaLocation="http://www.topografix.com/GPX/1/1 http://www.topografix.com/GPX/1/1/gpx.xsd" version="1.1" creator="VisuGPX - https://www.visugpx.com">
  <metadata>
    <name>GR52 / GR5 par Menton</name>
    <desc><![CDATA[Randonnée de 7 jours par le GR5 de Menton en direction du Nord en traversant notamment le parc du Mercantour.Enorme variété de paysages dès le départ et vues imprenables dès les premières heures, on est tout de suite dans le bain. Altitude max 2800 m mais encore pas mal de névés à cette période surtout à la descente vers le refuge de Nice. Comme d'habitude nous avons préféré les bivouacs "into the wild" et nous n'avons pas été déçus ! Terrain correct cependant les 2 premiers jours nécessitent de pouvoir enquiller beaucoup de D+.]]></desc>
  </metadata>
  <wpt lat="43.72679" lon="6.51125">
    <ele>955.9</ele>
    <name><![CDATA[xXSNAjco--.1.3gp]]></name>
  </wpt>
  <wpt lat="43.72679" lon="6.51125">
    <ele>955.9</ele>
    <name><![CDATA[xXSNAjco--.1.3gp]]></name>
  </wpt>
  <trk>
    <name><![CDATA[GR52 / GR5 par Menton_2]]></name>
    <trkseg>
      <trkpt lat="43.87766" lon="7.44901">
        <ele>392.509</ele>
        <time>2020-06-25T05:56:14Z</time>
      </trkpt>
      <trkpt lat="43.87712" lon="7.44894">
        <ele>339.643</ele>
        <time>2020-06-25T05:56:30Z</time>
      </trkpt>
      <trkpt lat="43.87712" lon="7.44894">
        <ele>339.643</ele>
        <time>2020-06-25T05:56:45Z</time>
      </trkpt>
      <trkpt lat="43.8778" lon="7.44915">
        <ele>381.985</ele>
        <time>2020-06-25T05:57:01Z</time>
      </trkpt>
      <trkpt lat="43.87805" lon="7.44923">
        <ele>392.933</ele>
        <time>2020-06-25T05:57:17Z</time>
      </trkpt>
      <trkpt lat="43.87823" lon="7.44921">
        <ele>405.048</ele>
        <time>2020-06-25T05:57:33Z</time>
      </trkpt>
      <trkpt lat="43.87827" lon="7.44901">
        <ele>413.922</ele>
        <time>2020-06-25T05:57:48Z</time>
      </trkpt>
      <trkpt lat="43.87839" lon="7.44857">
        <ele>405.142</ele>
        <time>2020-06-25T05:58:04Z</time>
      </trkpt>
      <trkpt lat="43.87838" lon="7.44835">
        <ele>401.476</ele>
        <time>2020-06-25T05:58:19Z</time>
      </trkpt>
      <trkpt lat="43.87837" lon="7.44813">
        <ele>402.84</ele>
        <time>2020-06-25T05:58:35Z</time>
      </trkpt>
      <trkpt lat="43.87841" lon="7.44788">
        <ele>402.424</ele>
        <time>2020-06-25T05:58:50Z</time>
      </trkpt>
      <trkpt lat="43.87849" lon="7.4476">
        <ele>402.828</ele>
        <time>2020-06-25T05:59:06Z</time>
      </trkpt>
      <trkpt lat="43.8785" lon="7.4475">
        <ele>403.488</ele>
        <time>2020-06-25T05:59:21Z</time>
      </trkpt>
      <trkpt lat="43.87855" lon="7.44749">
        <ele>404.747</ele>
        <time>2020-06-25T05:59:36Z</time>
      </trkpt>
      <trkpt lat="43.87865" lon="7.44766">
        <ele>403.394</ele>
        <time>2020-06-25T05:59:52Z</time>
      </trkpt>
      <trkpt lat="43.87874" lon="7.44792">
        <ele>403.047</ele>
        <time>2020-06-25T06:00:08Z</time>
      </trkpt>
      <trkpt lat="43.87882" lon="7.44813">
        <ele>406.13</ele>
        <time>2020-06-25T06:00:23Z</time>
      </trkpt>
      <trkpt lat="43.87888" lon="7.44832">
        <ele>406.128</ele>
        <time>2020-06-25T06:00:38Z</time>
      </trkpt>
      <trkpt lat="43.87893" lon="7.44838">
        <ele>408.835</ele>
        <time>2020-06-25T06:00:54Z</time>
      </trkpt>
      <trkpt lat="43.87908" lon="7.44824">
        <ele>408.399</ele>
        <time>2020-06-25T06:01:10Z</time>
      </trkpt>
      <trkpt lat="43.87913" lon="7.44815">
        <ele>409.85</ele>
        <time>2020-06-25T06:01:25Z</time>
      </trkpt>
      <trkpt lat="43.8791" lon="7.44802">
        <ele>409.473</ele>
        <time>2020-06-25T06:01:41Z</time>
      </trkpt>
      <trkpt lat="43.87902" lon="7.44783">
        <ele>411.932</ele>
        <time>2020-06-25T06:01:57Z</time>
      </trkpt>
      <trkpt lat="43.87909" lon="7.44778">
        <ele>416.401</ele>
        <time>2020-06-25T06:02:13Z</time>
      </trkpt>
      <trkpt lat="43.87914" lon="7.44778">
        <ele>417.509</ele>
        <time>2020-06-25T06:02:28Z</time>
      </trkpt>
      <trkpt lat="43.87922" lon="7.44778">
        <ele>417.162</ele>
        <time>2020-06-25T06:02:44Z</time>
      </trkpt>
      <trkpt lat="43.87926" lon="7.44773">
        <ele>416.453</ele>
        <time>2020-06-25T06:02:59Z</time>
      </trkpt>
      <trkpt lat="43.87937" lon="7.4476">
        <ele>420.242</ele>
        <time>2020-06-25T06:03:15Z</time>
      </trkpt>
      <trkpt lat="43.87951" lon="7.44746">
        <ele>422.024</ele>
        <time>2020-06-25T06:03:31Z</time>
      </trkpt>
      <trkpt lat="43.8796" lon="7.44736">
        <ele>426.367</ele>
        <time>2020-06-25T06:03:47Z</time>
      </trkpt>
      <trkpt lat="43.87969" lon="7.44728">
        <ele>428.619</ele>
        <time>2020-06-25T06:04:03Z</time>
      </trkpt>
      <trkpt lat="43.8798" lon="7.4472">
        <ele>432.003</ele>
        <time>2020-06-25T06:04:18Z</time>
      </trkpt>
      <trkpt lat="43.87992" lon="7.4471">
        <ele>435.715</ele>
        <time>2020-06-25T06:04:34Z</time>
      </trkpt>
      <trkpt lat="43.88004" lon="7.44695">
        <ele>436.077</ele>
        <time>2020-06-25T06:04:49Z</time>
      </trkpt>
      <trkpt lat="43.88017" lon="7.44685">
        <ele>438.879</ele>
        <time>2020-06-25T06:05:05Z</time>
      </trkpt>
      <trkpt lat="43.88028" lon="7.44674">
        <ele>442.486</ele>
        <time>2020-06-25T06:05:21Z</time>
      </trkpt>
      <trkpt lat="43.88041" lon="7.4467">
        <ele>441.999</ele>
        <time>2020-06-25T06:05:36Z</time>
      </trkpt>
      <trkpt lat="43.88053" lon="7.44657">
        <ele>441.403</ele>
        <time>2020-06-25T06:05:52Z</time>
      </trkpt>
      <trkpt lat="43.88062" lon="7.44644">
        <ele>442.302</ele>
        <time>2020-06-25T06:06:07Z</time>
      </trkpt>
      <trkpt lat="43.88075" lon="7.44637">
        <ele>445.121</ele>
        <time>2020-06-25T06:06:23Z</time>
      </trkpt>
      <trkpt lat="43.88082" lon="7.44616">
        <ele>455.792</ele>
        <time>2020-06-25T06:06:39Z</time>
      </trkpt>
      <trkpt lat="43.88088" lon="7.44599">
        <ele>455.539</ele>
        <time>2020-06-25T06:06:55Z</time>
      </trkpt>
      <trkpt lat="43.88099" lon="7.44586">
        <ele>451.954</ele>
        <time>2020-06-25T06:07:10Z</time>
      </trkpt>
      <trkpt lat="43.88112" lon="7.44573">
        <ele>452.002</ele>
        <time>2020-06-25T06:07:26Z</time>
      </trkpt>
      <trkpt lat="43.88123" lon="7.44562">
        <ele>457.063</ele>
        <time>2020-06-25T06:07:42Z</time>
      </trkpt>
      <trkpt lat="43.88133" lon="7.44547">
        <ele>456.067</ele>
        <time>2020-06-25T06:07:58Z</time>
      </trkpt>
      <trkpt lat="43.88143" lon="7.44536">
        <ele>458.938</ele>
        <time>2020-06-25T06:08:13Z</time>
      </trkpt>
      <trkpt lat="43.88146" lon="7.44534">
        <ele>457.695</ele>
        <time>2020-06-25T06:08:29Z</time>
      </trkpt>
      <trkpt lat="43.88146" lon="7.44534">
        <ele>457.695</ele>
        <time>2020-06-25T06:08:44Z</time>
      </trkpt>
      <trkpt lat="43.88149" lon="7.44531">
        <ele>457.46</ele>
        <time>2020-06-25T06:08:59Z</time>
      </trkpt>
      <trkpt lat="43.88164" lon="7.44525">
        <ele>458.441</ele>
        <time>2020-06-25T06:09:15Z</time>
      </trkpt>
      <trkpt lat="43.8818" lon="7.44524">
        <ele>462.53</ele>
        <time>2020-06-25T06:09:31Z</time>
      </trkpt>
      <trkpt lat="43.88192" lon="7.44517">
        <ele>470.663</ele>
        <time>2020-06-25T06:09:47Z</time>
      </trkpt>
      <trkpt lat="43.88208" lon="7.4451">
        <ele>476.263</ele>
        <time>2020-06-25T06:10:03Z</time>
      </trkpt>
      <trkpt lat="43.88223" lon="7.44499">
        <ele>475.296</ele>
        <time>2020-06-25T06:10:19Z</time>
      </trkpt>
      <trkpt lat="43.88236" lon="7.44496">
        <ele>471.963</ele>
        <time>2020-06-25T06:10:34Z</time>
      </trkpt>
      <trkpt lat="43.88248" lon="7.445">
        <ele>471.884</ele>
        <time>2020-06-25T06:10:49Z</time>
      </trkpt>
      <trkpt lat="43.88265" lon="7.44504">
        <ele>475.199</ele>
        <time>2020-06-25T06:11:04Z</time>
      </trkpt>
      <trkpt lat="43.88273" lon="7.44505">
        <ele>479.013</ele>
        <time>2020-06-25T06:11:19Z</time>
      </trkpt>
      <trkpt lat="43.88287" lon="7.44509">
        <ele>480.936</ele>
        <time>2020-06-25T06:11:35Z</time>
      </trkpt>
      <trkpt lat="43.88298" lon="7.44514">
        <ele>480.511</ele>
        <time>2020-06-25T06:11:51Z</time>
      </trkpt>
      <trkpt lat="43.88319" lon="7.44517">
        <ele>480.895</ele>
        <time>2020-06-25T06:12:07Z</time>
      </trkpt>
      <trkpt lat="43.88336" lon="7.44524">
        <ele>483.933</ele>
        <time>2020-06-25T06:12:22Z</time>
      </trkpt>
      <trkpt lat="43.88352" lon="7.44531">
        <ele>483.965</ele>
        <time>2020-06-25T06:12:37Z</time>
      </trkpt>
      <trkpt lat="43.88368" lon="7.4453">
        <ele>483.642</ele>
        <time>2020-06-25T06:12:53Z</time>
      </trkpt>
      <trkpt lat="43.88384" lon="7.44536">
        <ele>488.654</ele>
        <time>2020-06-25T06:13:09Z</time>
      </trkpt>
      <trkpt lat="43.88396" lon="7.44541">
        <ele>494.916</ele>
        <time>2020-06-25T06:13:25Z</time>
      </trkpt>
      <trkpt lat="43.88395" lon="7.44534">
        <ele>500.34</ele>
        <time>2020-06-25T06:13:41Z</time>
      </trkpt>
      <trkpt lat="43.88396" lon="7.44523">
        <ele>494.478</ele>
        <time>2020-06-25T06:13:56Z</time>
      </trkpt>
      <trkpt lat="43.88395" lon="7.44505">
        <ele>488.438</ele>
        <time>2020-06-25T06:14:11Z</time>
      </trkpt>
      <trkpt lat="43.88398" lon="7.44489">
        <ele>483.356</ele>
        <time>2020-06-25T06:14:27Z</time>
      </trkpt>
      <trkpt lat="43.88398" lon="7.44471">
        <ele>481.904</ele>
        <time>2020-06-25T06:14:43Z</time>
      </trkpt>
      <trkpt lat="43.88394" lon="7.44453">
        <ele>482.43</ele>
        <time>2020-06-25T06:14:59Z</time>
      </trkpt>
      <trkpt lat="43.8839" lon="7.44434">
        <ele>486.358</ele>
        <time>2020-06-25T06:15:14Z</time>
      </trkpt>
      <trkpt lat="43.88385" lon="7.44422">
        <ele>491.24</ele>
        <time>2020-06-25T06:15:30Z</time>
      </trkpt>
      <trkpt lat="43.88391" lon="7.44406">
        <ele>490.887</ele>
        <time>2020-06-25T06:15:45Z</time>
      </trkpt>
      <trkpt lat="43.884" lon="7.44393">
        <ele>491.969</ele>
        <time>2020-06-25T06:16:01Z</time>
      </trkpt>
      <trkpt lat="43.88412" lon="7.44389">
        <ele>493.855</ele>
        <time>2020-06-25T06:16:16Z</time>
      </trkpt>
      <trkpt lat="43.88424" lon="7.44389">
        <ele>500.964</ele>
        <time>2020-06-25T06:16:31Z</time>
      </trkpt>
      <trkpt lat="43.88437" lon="7.44384">
        <ele>503.217</ele>
        <time>2020-06-25T06:16:46Z</time>
      </trkpt>
      <trkpt lat="43.8845" lon="7.44386">
        <ele>505.336</ele>
        <time>2020-06-25T06:17:02Z</time>
      </trkpt>
      <trkpt lat="43.88466" lon="7.4438">
        <ele>505.203</ele>
        <time>2020-06-25T06:17:18Z</time>
      </trkpt>
      <trkpt lat="43.88481" lon="7.44375">
        <ele>508.579</ele>
        <time>2020-06-25T06:17:33Z</time>
      </trkpt>
      <trkpt lat="43.88494" lon="7.44371">
        <ele>516.096</ele>
        <time>2020-06-25T06:17:49Z</time>
      </trkpt>
      <trkpt lat="43.88507" lon="7.4437">
        <ele>517.603</ele>
        <time>2020-06-25T06:18:05Z</time>
      </trkpt>
      <trkpt lat="43.88521" lon="7.44368">
        <ele>518.168</ele>
        <time>2020-06-25T06:18:21Z</time>
      </trkpt>
      <trkpt lat="43.88536" lon="7.44372">
        <ele>518.999</ele>
        <time>2020-06-25T06:18:37Z</time>
      </trkpt>
      <trkpt lat="43.88548" lon="7.44374">
        <ele>518.502</ele>
        <time>2020-06-25T06:18:53Z</time>
      </trkpt>
      <trkpt lat="43.88561" lon="7.44373">
        <ele>524.463</ele>
        <time>2020-06-25T06:19:09Z</time>
      </trkpt>
      <trkpt lat="43.88569" lon="7.44376">
        <ele>530.554</ele>
        <time>2020-06-25T06:19:24Z</time>
      </trkpt>
      <trkpt lat="43.88582" lon="7.44382">
        <ele>530.014</ele>
        <time>2020-06-25T06:19:40Z</time>
      </trkpt>
      <trkpt lat="43.88593" lon="7.44384">
        <ele>527.515</ele>
        <time>2020-06-25T06:19:55Z</time>
      </trkpt>
      <trkpt lat="43.88605" lon="7.44384">
        <ele>530.488</ele>
        <time>2020-06-25T06:20:10Z</time>
      </trkpt>
      <trkpt lat="43.88613" lon="7.44385">
        <ele>534.393</ele>
        <time>2020-06-25T06:20:26Z</time>
      </trkpt>
      <trkpt lat="43.88627" lon="7.44389">
        <ele>534.029</ele>
        <time>2020-06-25T06:20:41Z</time>
      </trkpt>
      <trkpt lat="43.88643" lon="7.44389">
        <ele>535.307</ele>
        <time>2020-06-25T06:20:57Z</time>
      </trkpt>
      <trkpt lat="43.88651" lon="7.44399">
        <ele>532.081</ele>
        <time>2020-06-25T06:21:13Z</time>
      </trkpt>
      <trkpt lat="43.88667" lon="7.44397">
        <ele>532.907</ele>
        <time>2020-06-25T06:21:29Z</time>
      </trkpt>
      <trkpt lat="43.88678" lon="7.44398">
        <ele>532.996</ele>
        <time>2020-06-25T06:21:45Z</time>
      </trkpt>
      <trkpt lat="43.88689" lon="7.44395">
        <ele>537.515</ele>
        <time>2020-06-25T06:22:01Z</time>
      </trkpt>
      <trkpt lat="43.88701" lon="7.44392">
        <ele>539.994</ele>
        <time>2020-06-25T06:22:17Z</time>
      </trkpt>
      <trkpt lat="43.88713" lon="7.44392">
        <ele>539.935</ele>
        <time>2020-06-25T06:22:32Z</time>
      </trkpt>
      <trkpt lat="43.88718" lon="7.44394">
        <ele>540.315</ele>
        <time>2020-06-25T06:22:47Z</time>
      </trkpt>
      <trkpt lat="43.88723" lon="7.44401">
        <ele>538.9</ele>
        <time>2020-06-25T06:23:03Z</time>
      </trkpt>
      <trkpt lat="43.88717" lon="7.44405">
        <ele>542.225</ele>
        <time>2020-06-25T06:23:19Z</time>
      </trkpt>
      <trkpt lat="43.88706" lon="7.44413">
        <ele>544.327</ele>
        <time>2020-06-25T06:23:34Z</time>
      </trkpt>
      <trkpt lat="43.88704" lon="7.44416">
        <ele>550.55</ele>
        <time>2020-06-25T06:23:50Z</time>
      </trkpt>
      <trkpt lat="43.88711" lon="7.4441">
        <ele>554.484</ele>
        <time>2020-06-25T06:24:06Z</time>
      </trkpt>
      <trkpt lat="43.88722" lon="7.44411">
        <ele>555.333</ele>
        <time>2020-06-25T06:24:22Z</time>
      </trkpt>
      <trkpt lat="43.88734" lon="7.44414">
        <ele>558.581</ele>
        <time>2020-06-25T06:24:38Z</time>
      </trkpt>
      <trkpt lat="43.88743" lon="7.44421">
        <ele>562.168</ele>
        <time>2020-06-25T06:24:53Z</time>
      </trkpt>
      <trkpt lat="43.88754" lon="7.4443">
        <ele>561.8</ele>
        <time>2020-06-25T06:25:08Z</time>
      </trkpt>
      <trkpt lat="43.88766" lon="7.44442">
        <ele>566.483</ele>
        <time>2020-06-25T06:25:23Z</time>
      </trkpt>
      <trkpt lat="43.8878" lon="7.44445">
        <ele>566.133</ele>
        <time>2020-06-25T06:25:38Z</time>
      </trkpt>
      <trkpt lat="43.88796" lon="7.44444">
        <ele>566.103</ele>
        <time>2020-06-25T06:25:54Z</time>
      </trkpt>
      <trkpt lat="43.88812" lon="7.4445">
        <ele>565.735</ele>
        <time>2020-06-25T06:26:10Z</time>
      </trkpt>
      <trkpt lat="43.88826" lon="7.44456">
        <ele>566.887</ele>
        <time>2020-06-25T06:26:26Z</time>
      </trkpt>
      <trkpt lat="43.88841" lon="7.44462">
        <ele>568.418</ele>
        <time>2020-06-25T06:26:41Z</time>
      </trkpt>
      <trkpt lat="43.88858" lon="7.4446">
        <ele>568.021</ele>
        <time>2020-06-25T06:26:57Z</time>
      </trkpt>
      <trkpt lat="43.88868" lon="7.4446">
        <ele>571.544</ele>
        <time>2020-06-25T06:27:13Z</time>
      </trkpt>
      <trkpt lat="43.88883" lon="7.44465">
        <ele>576.956</ele>
        <time>2020-06-25T06:27:29Z</time>
      </trkpt>
      <trkpt lat="43.88896" lon="7.44477">
        <ele>578.152</ele>
        <time>2020-06-25T06:27:45Z</time>
      </trkpt>
      <trkpt lat="43.88917" lon="7.44499">
        <ele>570.589</ele>
        <time>2020-06-25T06:28:00Z</time>
      </trkpt>
      <trkpt lat="43.88924" lon="7.44503">
        <ele>570.035</ele>
        <time>2020-06-25T06:28:15Z</time>
      </trkpt>
      <trkpt lat="43.88926" lon="7.44491">
        <ele>570.696</ele>
        <time>2020-06-25T06:28:31Z</time>
      </trkpt>
      <trkpt lat="43.88931" lon="7.44481">
        <ele>572.628</ele>
        <time>2020-06-25T06:28:46Z</time>
      </trkpt>
      <trkpt lat="43.88933" lon="7.44503">
        <ele>571.035</ele>
        <time>2020-06-25T06:29:02Z</time>
      </trkpt>
      <trkpt lat="43.88941" lon="7.44518">
        <ele>567.896</ele>
        <time>2020-06-25T06:29:17Z</time>
      </trkpt>
      <trkpt lat="43.88943" lon="7.44534">
        <ele>570.282</ele>
        <time>2020-06-25T06:29:32Z</time>
      </trkpt>
      <trkpt lat="43.88944" lon="7.44552">
        <ele>572.32</ele>
        <time>2020-06-25T06:29:48Z</time>
      </trkpt>
      <trkpt lat="43.88949" lon="7.44571">
        <ele>572.261</ele>
        <time>2020-06-25T06:30:04Z</time>
      </trkpt>
      <trkpt lat="43.88946" lon="7.44566">
        <ele>579.339</ele>
        <time>2020-06-25T06:30:19Z</time>
      </trkpt>
      <trkpt lat="43.88944" lon="7.44548">
        <ele>580.552</ele>
        <time>2020-06-25T06:30:35Z</time>
      </trkpt>
      <trkpt lat="43.8895" lon="7.4453">
        <ele>578.269</ele>
        <time>2020-06-25T06:30:51Z</time>
      </trkpt>
      <trkpt lat="43.88957" lon="7.44516">
        <ele>576.872</ele>
        <time>2020-06-25T06:31:07Z</time>
      </trkpt>
      <trkpt lat="43.88959" lon="7.44533">
        <ele>580.045</ele>
        <time>2020-06-25T06:31:23Z</time>
      </trkpt>
      <trkpt lat="43.88961" lon="7.44549">
        <ele>583.709</ele>
        <time>2020-06-25T06:31:38Z</time>
      </trkpt>
      <trkpt lat="43.88961" lon="7.44568">
        <ele>587.078</ele>
        <time>2020-06-25T06:31:54Z</time>
      </trkpt>
      <trkpt lat="43.88965" lon="7.44569">
        <ele>590.507</ele>
        <time>2020-06-25T06:32:09Z</time>
      </trkpt>
      <trkpt lat="43.88962" lon="7.44555">
        <ele>588.643</ele>
        <time>2020-06-25T06:32:24Z</time>
      </trkpt>
      <trkpt lat="43.8897" lon="7.44536">
        <ele>584.354</ele>
        <time>2020-06-25T06:32:40Z</time>
      </trkpt>
      <trkpt lat="43.88977" lon="7.44538">
        <ele>585.823</ele>
        <time>2020-06-25T06:32:55Z</time>
      </trkpt>
      <trkpt lat="43.88976" lon="7.44546">
        <ele>586.535</ele>
        <time>2020-06-25T06:33:10Z</time>
      </trkpt>
      <trkpt lat="43.88977" lon="7.44565">
        <ele>590.181</ele>
        <time>2020-06-25T06:33:26Z</time>
      </trkpt>
      <trkpt lat="43.88984" lon="7.44579">
        <ele>594.952</ele>
        <time>2020-06-25T06:33:42Z</time>
      </trkpt>
      <trkpt lat="43.8899" lon="7.44592">
        <ele>596.74</ele>
        <time>2020-06-25T06:33:57Z</time>
      </trkpt>
      <trkpt lat="43.88989" lon="7.44585">
        <ele>599.498</ele>
        <time>2020-06-25T06:34:13Z</time>
      </trkpt>
      <trkpt lat="43.88986" lon="7.44569">
        <ele>602.214</ele>
        <time>2020-06-25T06:34:29Z</time>
      </trkpt>
      <trkpt lat="43.88993" lon="7.44563">
        <ele>602.368</ele>
        <time>2020-06-25T06:34:44Z</time>
      </trkpt>
      <trkpt lat="43.88998" lon="7.44579">
        <ele>601.436</ele>
        <time>2020-06-25T06:34:59Z</time>
      </trkpt>
      <trkpt lat="43.89004" lon="7.44593">
        <ele>603.065</ele>
        <time>2020-06-25T06:35:15Z</time>
      </trkpt>
      <trkpt lat="43.89004" lon="7.44593">
        <ele>603.154</ele>
        <time>2020-06-25T06:35:30Z</time>
      </trkpt>
      <trkpt lat="43.89004" lon="7.44593">
        <ele>603.154</ele>
        <time>2020-06-25T06:35:46Z</time>
      </trkpt>
      <trkpt lat="43.89004" lon="7.44593">
        <ele>603.154</ele>
        <time>2020-06-25T06:36:02Z</time>
      </trkpt>
      <trkpt lat="43.89001" lon="7.44579">
        <ele>605.814</ele>
        <time>2020-06-25T06:36:17Z</time>
      </trkpt>
      <trkpt lat="43.89013" lon="7.44568">
        <ele>602.982</ele>
        <time>2020-06-25T06:36:33Z</time>
      </trkpt>
      <trkpt lat="43.89014" lon="7.4458">
        <ele>602.609</ele>
        <time>2020-06-25T06:36:49Z</time>
      </trkpt>
      <trkpt lat="43.89023" lon="7.44595">
        <ele>607.45</ele>
        <time>2020-06-25T06:37:05Z</time>
      </trkpt>
      <trkpt lat="43.89025" lon="7.44612">
        <ele>612.844</ele>
        <time>2020-06-25T06:37:20Z</time>
      </trkpt>
      <trkpt lat="43.89021" lon="7.44625">
        <ele>615.074</ele>
        <time>2020-06-25T06:37:36Z</time>
      </trkpt>
      <trkpt lat="43.89032" lon="7.44619">
        <ele>622.147</ele>
        <time>2020-06-25T06:37:51Z</time>
      </trkpt>
      <trkpt lat="43.89032" lon="7.44607">
        <ele>621.432</ele>
        <time>2020-06-25T06:38:06Z</time>
      </trkpt>
      <trkpt lat="43.89027" lon="7.44585">
        <ele>623.414</ele>
        <time>2020-06-25T06:38:22Z</time>
      </trkpt>
      <trkpt lat="43.89033" lon="7.44584">
        <ele>622.459</ele>
        <time>2020-06-25T06:38:38Z</time>
      </trkpt>
      <trkpt lat="43.8904" lon="7.44603">
        <ele>621.866</ele>
        <time>2020-06-25T06:38:54Z</time>
      </trkpt>
      <trkpt lat="43.89045" lon="7.4462">
        <ele>622.369</ele>
        <time>2020-06-25T06:39:10Z</time>
      </trkpt>
      <trkpt lat="43.89047" lon="7.44638">
        <ele>625.141</ele>
        <time>2020-06-25T06:39:25Z</time>
      </trkpt>
      <trkpt lat="43.89048" lon="7.44631">
        <ele>631.766</ele>
        <time>2020-06-25T06:39:41Z</time>
      </trkpt>
      <trkpt lat="43.89047" lon="7.44613">
        <ele>634.865</ele>
        <time>2020-06-25T06:39:56Z</time>
      </trkpt>
      <trkpt lat="43.89054" lon="7.44597">
        <ele>631.583</ele>
        <time>2020-06-25T06:40:12Z</time>
      </trkpt>
      <trkpt lat="43.89068" lon="7.44588">
        <ele>632.035</ele>
        <time>2020-06-25T06:40:28Z</time>
      </trkpt>
      <trkpt lat="43.89079" lon="7.44585">
        <ele>631.445</ele>
        <time>2020-06-25T06:40:43Z</time>
      </trkpt>
      <trkpt lat="43.89087" lon="7.4459">
        <ele>638.039</ele>
        <time>2020-06-25T06:40:59Z</time>
      </trkpt>
      <trkpt lat="43.89077" lon="7.44604">
        <ele>637.976</ele>
        <time>2020-06-25T06:41:14Z</time>
      </trkpt>
      <trkpt lat="43.8907" lon="7.44621">
        <ele>639.911</ele>
        <time>2020-06-25T06:41:30Z</time>
      </trkpt>
      <trkpt lat="43.89074" lon="7.44625">
        <ele>642.361</ele>
        <time>2020-06-25T06:41:46Z</time>
      </trkpt>
      <trkpt lat="43.89084" lon="7.44633">
        <ele>644.864</ele>
        <time>2020-06-25T06:42:02Z</time>
      </trkpt>
      <trkpt lat="43.89095" lon="7.44645">
        <ele>645.43</ele>
        <time>2020-06-25T06:42:18Z</time>
      </trkpt>
      <trkpt lat="43.89106" lon="7.44656">
        <ele>650.171</ele>
        <time>2020-06-25T06:42:34Z</time>
      </trkpt>
      <trkpt lat="43.89114" lon="7.44665">
        <ele>654.674</ele>
        <time>2020-06-25T06:42:49Z</time>
      </trkpt>
      <trkpt lat="43.89124" lon="7.4468">
        <ele>655.149</ele>
        <time>2020-06-25T06:43:05Z</time>
      </trkpt>
      <trkpt lat="43.8913" lon="7.44684">
        <ele>654.735</ele>
        <time>2020-06-25T06:43:20Z</time>
      </trkpt>
      <trkpt lat="43.89132" lon="7.44684">
        <ele>657.927</ele>
        <time>2020-06-25T06:43:36Z</time>
      </trkpt>
      <trkpt lat="43.89127" lon="7.44674">
        <ele>657.73</ele>
        <time>2020-06-25T06:43:52Z</time>
      </trkpt>
      <trkpt lat="43.89122" lon="7.4466">
        <ele>661.316</ele>
        <time>2020-06-25T06:44:07Z</time>
      </trkpt>
      <trkpt lat="43.89118" lon="7.44646">
        <ele>660.236</ele>
        <time>2020-06-25T06:44:23Z</time>
      </trkpt>
      <trkpt lat="43.89124" lon="7.44624">
        <ele>656.472</ele>
        <time>2020-06-25T06:44:39Z</time>
      </trkpt>
      <trkpt lat="43.89136" lon="7.44606">
        <ele>658.221</ele>
        <time>2020-06-25T06:44:55Z</time>
      </trkpt>
      <trkpt lat="43.89145" lon="7.44604">
        <ele>662.955</ele>
        <time>2020-06-25T06:45:10Z</time>
      </trkpt>
      <trkpt lat="43.89153" lon="7.44589">
        <ele>674.176</ele>
        <time>2020-06-25T06:45:26Z</time>
      </trkpt>
      <trkpt lat="43.8916" lon="7.44579">
        <ele>672.75</ele>
        <time>2020-06-25T06:45:42Z</time>
      </trkpt>
      <trkpt lat="43.89163" lon="7.44567">
        <ele>673.327</ele>
        <time>2020-06-25T06:45:57Z</time>
      </trkpt>
      <trkpt lat="43.89167" lon="7.44554">
        <ele>673.622</ele>
        <time>2020-06-25T06:46:13Z</time>
      </trkpt>
      <trkpt lat="43.89168" lon="7.4454">
        <ele>674.15</ele>
        <time>2020-06-25T06:46:28Z</time>
      </trkpt>
      <trkpt lat="43.89173" lon="7.44538">
        <ele>675.008</ele>
        <time>2020-06-25T06:46:44Z</time>
      </trkpt>
      <trkpt lat="43.89174" lon="7.44553">
        <ele>675.477</ele>
        <time>2020-06-25T06:46:59Z</time>
      </trkpt>
      <trkpt lat="43.89177" lon="7.44568">
        <ele>675.952</ele>
        <time>2020-06-25T06:47:14Z</time>
      </trkpt>
      <trkpt lat="43.89178" lon="7.4459">
        <ele>677.864</ele>
        <time>2020-06-25T06:47:30Z</time>
      </trkpt>
      <trkpt lat="43.89178" lon="7.44593">
        <ele>684.222</ele>
        <time>2020-06-25T06:47:45Z</time>
      </trkpt>
      <trkpt lat="43.89175" lon="7.44577">
        <ele>687.172</ele>
        <time>2020-06-25T06:48:01Z</time>
      </trkpt>
      <trkpt lat="43.89181" lon="7.44555">
        <ele>683.68</ele>
        <time>2020-06-25T06:48:17Z</time>
      </trkpt>
      <trkpt lat="43.89187" lon="7.44539">
        <ele>681.542</ele>
        <time>2020-06-25T06:48:32Z</time>
      </trkpt>
      <trkpt lat="43.89194" lon="7.44525">
        <ele>680.143</ele>
        <time>2020-06-25T06:48:47Z</time>
      </trkpt>
      <trkpt lat="43.892" lon="7.44511">
        <ele>681.748</ele>
        <time>2020-06-25T06:49:03Z</time>
      </trkpt>
      <trkpt lat="43.89212" lon="7.44512">
        <ele>684.715</ele>
        <time>2020-06-25T06:49:18Z</time>
      </trkpt>
      <trkpt lat="43.89216" lon="7.44514">
        <ele>686.059</ele>
        <time>2020-06-25T06:49:33Z</time>
      </trkpt>
      <trkpt lat="43.89216" lon="7.44514">
        <ele>686.059</ele>
        <time>2020-06-25T06:49:48Z</time>
      </trkpt>
      <trkpt lat="43.89222" lon="7.44518">
        <ele>685.877</ele>
        <time>2020-06-25T06:50:04Z</time>
      </trkpt>
      <trkpt lat="43.8924" lon="7.44538">
        <ele>687.593</ele>
        <time>2020-06-25T06:50:19Z</time>
      </trkpt>
      <trkpt lat="43.89255" lon="7.44554">
        <ele>692.716</ele>
        <time>2020-06-25T06:50:35Z</time>
      </trkpt>
      <trkpt lat="43.89259" lon="7.44561">
        <ele>696.157</ele>
        <time>2020-06-25T06:50:50Z</time>
      </trkpt>
      <trkpt lat="43.89274" lon="7.44574">
        <ele>696.571</ele>
        <time>2020-06-25T06:51:06Z</time>
      </trkpt>
      <trkpt lat="43.89281" lon="7.44583">
        <ele>697.274</ele>
        <time>2020-06-25T06:51:21Z</time>
      </trkpt>
      <trkpt lat="43.89283" lon="7.44584">
        <ele>697.477</ele>
        <time>2020-06-25T06:51:37Z</time>
      </trkpt>
      <trkpt lat="43.89289" lon="7.44584">
        <ele>698.692</ele>
        <time>2020-06-25T06:51:53Z</time>
      </trkpt>
      <trkpt lat="43.89289" lon="7.44584">
        <ele>698.692</ele>
        <time>2020-06-25T06:52:08Z</time>
      </trkpt>
      <trkpt lat="43.89307" lon="7.4459">
        <ele>698.099</ele>
        <time>2020-06-25T06:52:23Z</time>
      </trkpt>
      <trkpt lat="43.89331" lon="7.44598">
        <ele>697.951</ele>
        <time>2020-06-25T06:52:38Z</time>
      </trkpt>
      <trkpt lat="43.89339" lon="7.44609">
        <ele>702.852</ele>
        <time>2020-06-25T06:52:53Z</time>
      </trkpt>
      <trkpt lat="43.89352" lon="7.44627">
        <ele>706.042</ele>
        <time>2020-06-25T06:53:09Z</time>
      </trkpt>
      <trkpt lat="43.89356" lon="7.44647">
        <ele>705.59</ele>
        <time>2020-06-25T06:53:25Z</time>
      </trkpt>
      <trkpt lat="43.89358" lon="7.44665">
        <ele>707.05</ele>
        <time>2020-06-25T06:53:40Z</time>
      </trkpt>
      <trkpt lat="43.89369" lon="7.44679">
        <ele>712.509</ele>
        <time>2020-06-25T06:53:56Z</time>
      </trkpt>
      <trkpt lat="43.8938" lon="7.44672">
        <ele>715.243</ele>
        <time>2020-06-25T06:54:12Z</time>
      </trkpt>
      <trkpt lat="43.89396" lon="7.4468">
        <ele>709.93</ele>
        <time>2020-06-25T06:54:27Z</time>
      </trkpt>
      <trkpt lat="43.89412" lon="7.44685">
        <ele>710.663</ele>
        <time>2020-06-25T06:54:43Z</time>
      </trkpt>
      <trkpt lat="43.89423" lon="7.44671">
        <ele>714.85</ele>
        <time>2020-06-25T06:54:59Z</time>
      </trkpt>
      <trkpt lat="43.89433" lon="7.4466">
        <ele>717.049</ele>
        <time>2020-06-25T06:55:15Z</time>
      </trkpt>
      <trkpt lat="43.89435" lon="7.44652">
        <ele>720.009</ele>
        <time>2020-06-25T06:55:30Z</time>
      </trkpt>
      <trkpt lat="43.89439" lon="7.44657">
        <ele>719.92</ele>
        <time>2020-06-25T06:55:46Z</time>
      </trkpt>
      <trkpt lat="43.89437" lon="7.44666">
        <ele>719.056</ele>
        <time>2020-06-25T06:56:01Z</time>
      </trkpt>
      <trkpt lat="43.89432" lon="7.44678">
        <ele>722.653</ele>
        <time>2020-06-25T06:56:16Z</time>
      </trkpt>
      <trkpt lat="43.89427" lon="7.44693">
        <ele>722.947</ele>
        <time>2020-06-25T06:56:32Z</time>
      </trkpt>
      <trkpt lat="43.89429" lon="7.44703">
        <ele>722.01</ele>
        <time>2020-06-25T06:56:47Z</time>
      </trkpt>
      <trkpt lat="43.89432" lon="7.44687">
        <ele>725.226</ele>
        <time>2020-06-25T06:57:03Z</time>
      </trkpt>
      <trkpt lat="43.89439" lon="7.44679">
        <ele>725.45</ele>
        <time>2020-06-25T06:57:19Z</time>
      </trkpt>
      <trkpt lat="43.89448" lon="7.44666">
        <ele>727.45</ele>
        <time>2020-06-25T06:57:34Z</time>
      </trkpt>
      <trkpt lat="43.89454" lon="7.44651">
        <ele>731.855</ele>
        <time>2020-06-25T06:57:50Z</time>
      </trkpt>
      <trkpt lat="43.89461" lon="7.4464">
        <ele>732.805</ele>
        <time>2020-06-25T06:58:05Z</time>
      </trkpt>
      <trkpt lat="43.89465" lon="7.44632">
        <ele>731.764</ele>
        <time>2020-06-25T06:58:20Z</time>
      </trkpt>
      <trkpt lat="43.89474" lon="7.44614">
        <ele>732.013</ele>
        <time>2020-06-25T06:58:36Z</time>
      </trkpt>
      <trkpt lat="43.89481" lon="7.44605">
        <ele>734.329</ele>
        <time>2020-06-25T06:58:51Z</time>
      </trkpt>
      <trkpt lat="43.89486" lon="7.44603">
        <ele>734.865</ele>
        <time>2020-06-25T06:59:07Z</time>
      </trkpt>
      <trkpt lat="43.895" lon="7.44595">
        <ele>737.704</ele>
        <time>2020-06-25T06:59:22Z</time>
      </trkpt>
      <trkpt lat="43.89511" lon="7.44588">
        <ele>739.382</ele>
        <time>2020-06-25T06:59:38Z</time>
      </trkpt>
      <trkpt lat="43.89522" lon="7.44585">
        <ele>741.689</ele>
        <time>2020-06-25T06:59:54Z</time>
      </trkpt>
      <trkpt lat="43.89537" lon="7.44591">
        <ele>743.703</ele>
        <time>2020-06-25T07:00:10Z</time>
      </trkpt>
      <trkpt lat="43.89553" lon="7.4459">
        <ele>742.738</ele>
        <time>2020-06-25T07:00:25Z</time>
      </trkpt>
      <trkpt lat="43.89558" lon="7.44588">
        <ele>743.57</ele>
        <time>2020-06-25T07:00:40Z</time>
      </trkpt>
      <trkpt lat="43.89566" lon="7.44585">
        <ele>742.957</ele>
        <time>2020-06-25T07:00:55Z</time>
      </trkpt>
      <trkpt lat="43.8958" lon="7.44573">
        <ele>741.758</ele>
        <time>2020-06-25T07:01:11Z</time>
      </trkpt>
      <trkpt lat="43.89587" lon="7.44559">
        <ele>744.644</ele>
        <time>2020-06-25T07:01:26Z</time>
      </trkpt>
      <trkpt lat="43.89596" lon="7.44541">
        <ele>751.069</ele>
        <time>2020-06-25T07:01:42Z</time>
      </trkpt>
      <trkpt lat="43.89604" lon="7.44526">
        <ele>752.878</ele>
        <time>2020-06-25T07:01:58Z</time>
      </trkpt>
      <trkpt lat="43.89612" lon="7.4451">
        <ele>755.856</ele>
        <time>2020-06-25T07:02:14Z</time>
      </trkpt>
      <trkpt lat="43.89617" lon="7.44508">
        <ele>753.806</ele>
        <time>2020-06-25T07:02:30Z</time>
      </trkpt>
      <trkpt lat="43.89616" lon="7.44522">
        <ele>755.706</ele>
        <time>2020-06-25T07:02:46Z</time>
      </trkpt>
      <trkpt lat="43.89612" lon="7.44539">
        <ele>756.265</ele>
        <time>2020-06-25T07:03:02Z</time>
      </trkpt>
      <trkpt lat="43.89611" lon="7.44559">
        <ele>757.324</ele>
        <time>2020-06-25T07:03:17Z</time>
      </trkpt>
      <trkpt lat="43.89606" lon="7.44574">
        <ele>758.452</ele>
        <time>2020-06-25T07:03:33Z</time>
      </trkpt>
      <trkpt lat="43.896" lon="7.4459">
        <ele>758.107</ele>
        <time>2020-06-25T07:03:49Z</time>
      </trkpt>
      <trkpt lat="43.89591" lon="7.44605">
        <ele>763.12</ele>
        <time>2020-06-25T07:04:05Z</time>
      </trkpt>
      <trkpt lat="43.89597" lon="7.44596">
        <ele>770.768</ele>
        <time>2020-06-25T07:04:21Z</time>
      </trkpt>
      <trkpt lat="43.89603" lon="7.44587">
        <ele>771.34</ele>
        <time>2020-06-25T07:04:36Z</time>
      </trkpt>
      <trkpt lat="43.89612" lon="7.44567">
        <ele>775.838</ele>
        <time>2020-06-25T07:04:52Z</time>
      </trkpt>
      <trkpt lat="43.8962" lon="7.44551">
        <ele>776.241</ele>
        <time>2020-06-25T07:05:08Z</time>
      </trkpt>
      <trkpt lat="43.89628" lon="7.44536">
        <ele>776.265</ele>
        <time>2020-06-25T07:05:23Z</time>
      </trkpt>
      <trkpt lat="43.89637" lon="7.44525">
        <ele>776.546</ele>
        <time>2020-06-25T07:05:39Z</time>
      </trkpt>
      <trkpt lat="43.89645" lon="7.44513">
        <ele>779.609</ele>
        <time>2020-06-25T07:05:55Z</time>
      </trkpt>
      <trkpt lat="43.8965" lon="7.44504">
        <ele>779.285</ele>
        <time>2020-06-25T07:06:10Z</time>
      </trkpt>
      <trkpt lat="43.89662" lon="7.44492">
        <ele>780.425</ele>
        <time>2020-06-25T07:06:26Z</time>
      </trkpt>
      <trkpt lat="43.89674" lon="7.44481">
        <ele>783.072</ele>
        <time>2020-06-25T07:06:42Z</time>
      </trkpt>
      <trkpt lat="43.89683" lon="7.44465">
        <ele>784.945</ele>
        <time>2020-06-25T07:06:58Z</time>
      </trkpt>
      <trkpt lat="43.89694" lon="7.44457">
        <ele>787.662</ele>
        <time>2020-06-25T07:07:13Z</time>
      </trkpt>
      <trkpt lat="43.89704" lon="7.44453">
        <ele>790.592</ele>
        <time>2020-06-25T07:07:29Z</time>
      </trkpt>
      <trkpt lat="43.89714" lon="7.44444">
        <ele>792.758</ele>
        <time>2020-06-25T07:07:45Z</time>
      </trkpt>
      <trkpt lat="43.89724" lon="7.44438">
        <ele>795.109</ele>
        <time>2020-06-25T07:08:00Z</time>
      </trkpt>
      <trkpt lat="43.89727" lon="7.44436">
        <ele>796.33</ele>
        <time>2020-06-25T07:08:16Z</time>
      </trkpt>
      <trkpt lat="43.89744" lon="7.44432">
        <ele>797.667</ele>
        <time>2020-06-25T07:08:32Z</time>
      </trkpt>
      <trkpt lat="43.89764" lon="7.44427">
        <ele>798.088</ele>
        <time>2020-06-25T07:08:47Z</time>
      </trkpt>
      <trkpt lat="43.89766" lon="7.44424">
        <ele>799.082</ele>
        <time>2020-06-25T07:09:03Z</time>
      </trkpt>
      <trkpt lat="43.89766" lon="7.44424">
        <ele>799.082</ele>
        <time>2020-06-25T07:09:19Z</time>
      </trkpt>
      <trkpt lat="43.89766" lon="7.44424">
        <ele>799.082</ele>
        <time>2020-06-25T07:09:35Z</time>
      </trkpt>
      <trkpt lat="43.89766" lon="7.44424">
        <ele>799.082</ele>
        <time>2020-06-25T07:09:51Z</time>
      </trkpt>
      <trkpt lat="43.89766" lon="7.44424">
        <ele>799.082</ele>
        <time>2020-06-25T07:10:06Z</time>
      </trkpt>
      <trkpt lat="43.89766" lon="7.44424">
        <ele>799.082</ele>
        <time>2020-06-25T07:10:22Z</time>
      </trkpt>
      <trkpt lat="43.89766" lon="7.44424">
        <ele>799.082</ele>
        <time>2020-06-25T07:10:38Z</time>
      </trkpt>
      <trkpt lat="43.89776" lon="7.44412">
        <ele>799.078</ele>
        <time>2020-06-25T07:10:54Z</time>
      </trkpt>
      <trkpt lat="43.89777" lon="7.44409">
        <ele>800.285</ele>
        <time>2020-06-25T07:11:10Z</time>
      </trkpt>
      <trkpt lat="43.89778" lon="7.44402">
        <ele>801.743</ele>
        <time>2020-06-25T07:11:25Z</time>
      </trkpt>
      <trkpt lat="43.8978" lon="7.44393">
        <ele>801.991</ele>
        <time>2020-06-25T07:11:41Z</time>
      </trkpt>
      <trkpt lat="43.89782" lon="7.44382">
        <ele>805.005</ele>
        <time>2020-06-25T07:11:56Z</time>
      </trkpt>
      <trkpt lat="43.89786" lon="7.44364">
        <ele>804.42</ele>
        <time>2020-06-25T07:12:12Z</time>
      </trkpt>
      <trkpt lat="43.89787" lon="7.44346">
        <ele>804.967</ele>
        <time>2020-06-25T07:12:28Z</time>
      </trkpt>
      <trkpt lat="43.89787" lon="7.44343">
        <ele>806.274</ele>
        <time>2020-06-25T07:12:43Z</time>
      </trkpt>
      <trkpt lat="43.89787" lon="7.44329">
        <ele>807.203</ele>
        <time>2020-06-25T07:12:59Z</time>
      </trkpt>
      <trkpt lat="43.89785" lon="7.44321">
        <ele>806.772</ele>
        <time>2020-06-25T07:13:15Z</time>
      </trkpt>
      <trkpt lat="43.89801" lon="7.44331">
        <ele>812.289</ele>
        <time>2020-06-25T07:13:30Z</time>
      </trkpt>
      <trkpt lat="43.89801" lon="7.44331">
        <ele>813.394</ele>
        <time>2020-06-25T07:13:45Z</time>
      </trkpt>
      <trkpt lat="43.89808" lon="7.44331">
        <ele>815.781</ele>
        <time>2020-06-25T07:14:01Z</time>
      </trkpt>
      <trkpt lat="43.89812" lon="7.44332">
        <ele>816.843</ele>
        <time>2020-06-25T07:14:16Z</time>
      </trkpt>
      <trkpt lat="43.89815" lon="7.4433">
        <ele>819.233</ele>
        <time>2020-06-25T07:14:32Z</time>
      </trkpt>
      <trkpt lat="43.89834" lon="7.44325">
        <ele>823.423</ele>
        <time>2020-06-25T07:14:48Z</time>
      </trkpt>
      <trkpt lat="43.89851" lon="7.4432">
        <ele>827.161</ele>
        <time>2020-06-25T07:15:04Z</time>
      </trkpt>
      <trkpt lat="43.89868" lon="7.44322">
        <ele>832.871</ele>
        <time>2020-06-25T07:15:20Z</time>
      </trkpt>
      <trkpt lat="43.89876" lon="7.44323">
        <ele>834.057</ele>
        <time>2020-06-25T07:15:35Z</time>
      </trkpt>
      <trkpt lat="43.89881" lon="7.44322">
        <ele>834.193</ele>
        <time>2020-06-25T07:15:51Z</time>
      </trkpt>
      <trkpt lat="43.89884" lon="7.44318">
        <ele>835.934</ele>
        <time>2020-06-25T07:16:07Z</time>
      </trkpt>
      <trkpt lat="43.89879" lon="7.44306">
        <ele>838.897</ele>
        <time>2020-06-25T07:16:22Z</time>
      </trkpt>
      <trkpt lat="43.89872" lon="7.4429">
        <ele>837.626</ele>
        <time>2020-06-25T07:16:38Z</time>
      </trkpt>
      <trkpt lat="43.89876" lon="7.4428">
        <ele>840.049</ele>
        <time>2020-06-25T07:16:54Z</time>
      </trkpt>
      <trkpt lat="43.89885" lon="7.44278">
        <ele>843.418</ele>
        <time>2020-06-25T07:17:09Z</time>
      </trkpt>
      <trkpt lat="43.89894" lon="7.44283">
        <ele>843.276</ele>
        <time>2020-06-25T07:17:24Z</time>
      </trkpt>
      <trkpt lat="43.89894" lon="7.44283">
        <ele>843.276</ele>
        <time>2020-06-25T07:17:39Z</time>
      </trkpt>
      <trkpt lat="43.89914" lon="7.44286">
        <ele>847.079</ele>
        <time>2020-06-25T07:17:54Z</time>
      </trkpt>
      <trkpt lat="43.8993" lon="7.44278">
        <ele>850.767</ele>
        <time>2020-06-25T07:18:10Z</time>
      </trkpt>
      <trkpt lat="43.89938" lon="7.44272">
        <ele>851.69</ele>
        <time>2020-06-25T07:18:26Z</time>
      </trkpt>
      <trkpt lat="43.8995" lon="7.44267">
        <ele>853.569</ele>
        <time>2020-06-25T07:18:42Z</time>
      </trkpt>
      <trkpt lat="43.89963" lon="7.44271">
        <ele>855.803</ele>
        <time>2020-06-25T07:18:58Z</time>
      </trkpt>
      <trkpt lat="43.89957" lon="7.44282">
        <ele>857.586</ele>
        <time>2020-06-25T07:19:14Z</time>
      </trkpt>
      <trkpt lat="43.89954" lon="7.44287">
        <ele>863.393</ele>
        <time>2020-06-25T07:19:30Z</time>
      </trkpt>
      <trkpt lat="43.89967" lon="7.44293">
        <ele>863.877</ele>
        <time>2020-06-25T07:19:45Z</time>
      </trkpt>
      <trkpt lat="43.89978" lon="7.44295">
        <ele>863.166</ele>
        <time>2020-06-25T07:20:01Z</time>
      </trkpt>
      <trkpt lat="43.89986" lon="7.44288">
        <ele>864.68</ele>
        <time>2020-06-25T07:20:17Z</time>
      </trkpt>
      <trkpt lat="43.89989" lon="7.44287">
        <ele>866.421</ele>
        <time>2020-06-25T07:20:33Z</time>
      </trkpt>
      <trkpt lat="43.89989" lon="7.44287">
        <ele>866.421</ele>
        <time>2020-06-25T07:20:48Z</time>
      </trkpt>
      <trkpt lat="43.90012" lon="7.44274">
        <ele>870.745</ele>
        <time>2020-06-25T07:21:04Z</time>
      </trkpt>
      <trkpt lat="43.90023" lon="7.44273">
        <ele>873.005</ele>
        <time>2020-06-25T07:21:20Z</time>
      </trkpt>
      <trkpt lat="43.90026" lon="7.44273">
        <ele>873.676</ele>
        <time>2020-06-25T07:21:36Z</time>
      </trkpt>
      <trkpt lat="43.90026" lon="7.44273">
        <ele>873.676</ele>
        <time>2020-06-25T07:21:51Z</time>
      </trkpt>
      <trkpt lat="43.90026" lon="7.44273">
        <ele>873.676</ele>
        <time>2020-06-25T07:22:07Z</time>
      </trkpt>
      <trkpt lat="43.90036" lon="7.4425">
        <ele>879.095</ele>
        <time>2020-06-25T07:22:22Z</time>
      </trkpt>
      <trkpt lat="43.90046" lon="7.44247">
        <ele>886.72</ele>
        <time>2020-06-25T07:22:38Z</time>
      </trkpt>
      <trkpt lat="43.90054" lon="7.44242">
        <ele>888.18</ele>
        <time>2020-06-25T07:22:53Z</time>
      </trkpt>
      <trkpt lat="43.90062" lon="7.44232">
        <ele>888.881</ele>
        <time>2020-06-25T07:23:09Z</time>
      </trkpt>
      <trkpt lat="43.90065" lon="7.44228">
        <ele>889.26</ele>
        <time>2020-06-25T07:23:25Z</time>
      </trkpt>
      <trkpt lat="43.90078" lon="7.44219">
        <ele>893.601</ele>
        <time>2020-06-25T07:23:40Z</time>
      </trkpt>
      <trkpt lat="43.90087" lon="7.44216">
        <ele>895.416</ele>
        <time>2020-06-25T07:23:56Z</time>
      </trkpt>
      <trkpt lat="43.90097" lon="7.44205">
        <ele>898.551</ele>
        <time>2020-06-25T07:24:12Z</time>
      </trkpt>
      <trkpt lat="43.90098" lon="7.44204">
        <ele>898.847</ele>
        <time>2020-06-25T07:24:27Z</time>
      </trkpt>
      <trkpt lat="43.90102" lon="7.442">
        <ele>899.756</ele>
        <time>2020-06-25T07:24:43Z</time>
      </trkpt>
      <trkpt lat="43.9012" lon="7.44186">
        <ele>905.065</ele>
        <time>2020-06-25T07:24:58Z</time>
      </trkpt>
      <trkpt lat="43.9012" lon="7.44186">
        <ele>905.065</ele>
        <time>2020-06-25T07:25:14Z</time>
      </trkpt>
      <trkpt lat="43.9012" lon="7.44186">
        <ele>905.065</ele>
        <time>2020-06-25T07:25:29Z</time>
      </trkpt>
      <trkpt lat="43.9012" lon="7.44186">
        <ele>905.065</ele>
        <time>2020-06-25T07:25:44Z</time>
      </trkpt>
      <trkpt lat="43.9012" lon="7.44186">
        <ele>905.065</ele>
        <time>2020-06-25T07:26:00Z</time>
      </trkpt>
      <trkpt lat="43.9012" lon="7.44186">
        <ele>905.065</ele>
        <time>2020-06-25T07:26:15Z</time>
      </trkpt>
      <trkpt lat="43.9012" lon="7.44186">
        <ele>905.065</ele>
        <time>2020-06-25T07:26:31Z</time>
      </trkpt>
      <trkpt lat="43.90121" lon="7.44186">
        <ele>905.3</ele>
        <time>2020-06-25T07:26:47Z</time>
      </trkpt>
      <trkpt lat="43.90127" lon="7.44184">
        <ele>907.579</ele>
        <time>2020-06-25T07:27:02Z</time>
      </trkpt>
      <trkpt lat="43.90139" lon="7.44184">
        <ele>907.003</ele>
        <time>2020-06-25T07:27:18Z</time>
      </trkpt>
      <trkpt lat="43.90156" lon="7.44181">
        <ele>905.038</ele>
        <time>2020-06-25T07:27:34Z</time>
      </trkpt>
      <trkpt lat="43.9017" lon="7.44175">
        <ele>905.844</ele>
        <time>2020-06-25T07:27:49Z</time>
      </trkpt>
      <trkpt lat="43.90185" lon="7.44169">
        <ele>910.604</ele>
        <time>2020-06-25T07:28:05Z</time>
      </trkpt>
      <trkpt lat="43.902" lon="7.44163">
        <ele>912.746</ele>
        <time>2020-06-25T07:28:21Z</time>
      </trkpt>
      <trkpt lat="43.90208" lon="7.44158">
        <ele>917.467</ele>
        <time>2020-06-25T07:28:37Z</time>
      </trkpt>
      <trkpt lat="43.90224" lon="7.44157">
        <ele>915.926</ele>
        <time>2020-06-25T07:28:53Z</time>
      </trkpt>
      <trkpt lat="43.90233" lon="7.44154">
        <ele>916.726</ele>
        <time>2020-06-25T07:29:09Z</time>
      </trkpt>
      <trkpt lat="43.90234" lon="7.44154">
        <ele>916.781</ele>
        <time>2020-06-25T07:29:24Z</time>
      </trkpt>
      <trkpt lat="43.9025" lon="7.44149">
        <ele>920.188</ele>
        <time>2020-06-25T07:29:40Z</time>
      </trkpt>
      <trkpt lat="43.90262" lon="7.44145">
        <ele>923.363</ele>
        <time>2020-06-25T07:29:55Z</time>
      </trkpt>
      <trkpt lat="43.90281" lon="7.44145">
        <ele>927.181</ele>
        <time>2020-06-25T07:30:11Z</time>
      </trkpt>
      <trkpt lat="43.90297" lon="7.44148">
        <ele>931.308</ele>
        <time>2020-06-25T07:30:27Z</time>
      </trkpt>
      <trkpt lat="43.9031" lon="7.44159">
        <ele>929.01</ele>
        <time>2020-06-25T07:30:43Z</time>
      </trkpt>
      <trkpt lat="43.90321" lon="7.44163">
        <ele>932.149</ele>
        <time>2020-06-25T07:30:59Z</time>
      </trkpt>
      <trkpt lat="43.90337" lon="7.44172">
        <ele>934.422</ele>
        <time>2020-06-25T07:31:15Z</time>
      </trkpt>
      <trkpt lat="43.90353" lon="7.44179">
        <ele>937.046</ele>
        <time>2020-06-25T07:31:30Z</time>
      </trkpt>
      <trkpt lat="43.90366" lon="7.44179">
        <ele>936.905</ele>
        <time>2020-06-25T07:31:45Z</time>
      </trkpt>
      <trkpt lat="43.90383" lon="7.44185">
        <ele>935.398</ele>
        <time>2020-06-25T07:32:01Z</time>
      </trkpt>
      <trkpt lat="43.904" lon="7.44188">
        <ele>936.205</ele>
        <time>2020-06-25T07:32:16Z</time>
      </trkpt>
      <trkpt lat="43.90416" lon="7.4419">
        <ele>936.581</ele>
        <time>2020-06-25T07:32:31Z</time>
      </trkpt>
      <trkpt lat="43.9043" lon="7.44188">
        <ele>934.608</ele>
        <time>2020-06-25T07:32:47Z</time>
      </trkpt>
      <trkpt lat="43.90442" lon="7.44184">
        <ele>938.406</ele>
        <time>2020-06-25T07:33:03Z</time>
      </trkpt>
      <trkpt lat="43.90459" lon="7.44183">
        <ele>942.291</ele>
        <time>2020-06-25T07:33:18Z</time>
      </trkpt>
      <trkpt lat="43.90474" lon="7.44174">
        <ele>944.609</ele>
        <time>2020-06-25T07:33:33Z</time>
      </trkpt>
      <trkpt lat="43.90488" lon="7.44161">
        <ele>946.58</ele>
        <time>2020-06-25T07:33:49Z</time>
      </trkpt>
      <trkpt lat="43.90492" lon="7.44144">
        <ele>946.571</ele>
        <time>2020-06-25T07:34:04Z</time>
      </trkpt>
      <trkpt lat="43.90493" lon="7.44133">
        <ele>946.779</ele>
        <time>2020-06-25T07:34:19Z</time>
      </trkpt>
      <trkpt lat="43.90491" lon="7.4412">
        <ele>946.147</ele>
        <time>2020-06-25T07:34:34Z</time>
      </trkpt>
      <trkpt lat="43.90492" lon="7.4412">
        <ele>946.546</ele>
        <time>2020-06-25T07:34:50Z</time>
      </trkpt>
      <trkpt lat="43.90494" lon="7.44117">
        <ele>947.567</ele>
        <time>2020-06-25T07:35:05Z</time>
      </trkpt>
      <trkpt lat="43.90501" lon="7.44113">
        <ele>948.93</ele>
        <time>2020-06-25T07:35:21Z</time>
      </trkpt>
      <trkpt lat="43.90507" lon="7.441">
        <ele>950.554</ele>
        <time>2020-06-25T07:35:37Z</time>
      </trkpt>
      <trkpt lat="43.9051" lon="7.44091">
        <ele>952.039</ele>
        <time>2020-06-25T07:35:52Z</time>
      </trkpt>
      <trkpt lat="43.9051" lon="7.44091">
        <ele>952.039</ele>
        <time>2020-06-25T07:36:08Z</time>
      </trkpt>
      <trkpt lat="43.90517" lon="7.44075">
        <ele>953.321</ele>
        <time>2020-06-25T07:36:23Z</time>
      </trkpt>
      <trkpt lat="43.90517" lon="7.44075">
        <ele>953.321</ele>
        <time>2020-06-25T07:36:39Z</time>
      </trkpt>
      <trkpt lat="43.90521" lon="7.44062">
        <ele>953.941</ele>
        <time>2020-06-25T07:36:55Z</time>
      </trkpt>
      <trkpt lat="43.90538" lon="7.44042">
        <ele>956.33</ele>
        <time>2020-06-25T07:37:10Z</time>
      </trkpt>
      <trkpt lat="43.9054" lon="7.44034">
        <ele>957.1</ele>
        <time>2020-06-25T07:37:26Z</time>
      </trkpt>
      <trkpt lat="43.9054" lon="7.44034">
        <ele>957.1</ele>
        <time>2020-06-25T07:37:41Z</time>
      </trkpt>
      <trkpt lat="43.90551" lon="7.44008">
        <ele>961.033</ele>
        <time>2020-06-25T07:37:56Z</time>
      </trkpt>
      <trkpt lat="43.90552" lon="7.44002">
        <ele>962.361</ele>
        <time>2020-06-25T07:38:12Z</time>
      </trkpt>
      <trkpt lat="43.90552" lon="7.44002">
        <ele>962.361</ele>
        <time>2020-06-25T07:38:27Z</time>
      </trkpt>
      <trkpt lat="43.90556" lon="7.43999">
        <ele>963.883</ele>
        <time>2020-06-25T07:38:43Z</time>
      </trkpt>
      <trkpt lat="43.90558" lon="7.43997">
        <ele>964.525</ele>
        <time>2020-06-25T07:38:59Z</time>
      </trkpt>
      <trkpt lat="43.90564" lon="7.43991">
        <ele>966.479</ele>
        <time>2020-06-25T07:39:15Z</time>
      </trkpt>
      <trkpt lat="43.90578" lon="7.43973">
        <ele>972.967</ele>
        <time>2020-06-25T07:39:30Z</time>
      </trkpt>
      <trkpt lat="43.90592" lon="7.43965">
        <ele>977.544</ele>
        <time>2020-06-25T07:39:46Z</time>
      </trkpt>
      <trkpt lat="43.90595" lon="7.43959">
        <ele>979.359</ele>
        <time>2020-06-25T07:40:02Z</time>
      </trkpt>
      <trkpt lat="43.90593" lon="7.43951">
        <ele>980.563</ele>
        <time>2020-06-25T07:40:18Z</time>
      </trkpt>
      <trkpt lat="43.90591" lon="7.43945">
        <ele>981.962</ele>
        <time>2020-06-25T07:40:34Z</time>
      </trkpt>
      <trkpt lat="43.90591" lon="7.43942">
        <ele>982.773</ele>
        <time>2020-06-25T07:40:49Z</time>
      </trkpt>
      <trkpt lat="43.90591" lon="7.43942">
        <ele>982.773</ele>
        <time>2020-06-25T07:41:05Z</time>
      </trkpt>
      <trkpt lat="43.90593" lon="7.43936">
        <ele>984.745</ele>
        <time>2020-06-25T07:41:20Z</time>
      </trkpt>
      <trkpt lat="43.90599" lon="7.43923">
        <ele>987.623</ele>
        <time>2020-06-25T07:41:35Z</time>
      </trkpt>
      <trkpt lat="43.90609" lon="7.43901">
        <ele>993.032</ele>
        <time>2020-06-25T07:41:51Z</time>
      </trkpt>
      <trkpt lat="43.90621" lon="7.43894">
        <ele>995.024</ele>
        <time>2020-06-25T07:42:07Z</time>
      </trkpt>
      <trkpt lat="43.90628" lon="7.43897">
        <ele>995.866</ele>
        <time>2020-06-25T07:42:22Z</time>
      </trkpt>
      <trkpt lat="43.90629" lon="7.43897">
        <ele>995.985</ele>
        <time>2020-06-25T07:42:38Z</time>
      </trkpt>
      <trkpt lat="43.90653" lon="7.43892">
        <ele>1001.441</ele>
        <time>2020-06-25T07:42:54Z</time>
      </trkpt>
      <trkpt lat="43.90665" lon="7.43886">
        <ele>1006.317</ele>
        <time>2020-06-25T07:43:09Z</time>
      </trkpt>
      <trkpt lat="43.90666" lon="7.43884">
        <ele>1006.934</ele>
        <time>2020-06-25T07:43:25Z</time>
      </trkpt>
      <trkpt lat="43.9067" lon="7.43883">
        <ele>1006.79</ele>
        <time>2020-06-25T07:43:40Z</time>
      </trkpt>
      <trkpt lat="43.90688" lon="7.43872">
        <ele>1007.78</ele>
        <time>2020-06-25T07:43:56Z</time>
      </trkpt>
      <trkpt lat="43.90693" lon="7.43871">
        <ele>1009.143</ele>
        <time>2020-06-25T07:44:11Z</time>
      </trkpt>
      <trkpt lat="43.90693" lon="7.43871">
        <ele>1009.143</ele>
        <time>2020-06-25T07:44:26Z</time>
      </trkpt>
      <trkpt lat="43.90693" lon="7.43871">
        <ele>1009.143</ele>
        <time>2020-06-25T07:44:41Z</time>
      </trkpt>
      <trkpt lat="43.90734" lon="7.43869">
        <ele>1013.103</ele>
        <time>2020-06-25T07:44:57Z</time>
      </trkpt>
      <trkpt lat="43.90742" lon="7.43864">
        <ele>1015.441</ele>
        <time>2020-06-25T07:45:12Z</time>
      </trkpt>
      <trkpt lat="43.90758" lon="7.4386">
        <ele>1020.316</ele>
        <time>2020-06-25T07:45:28Z</time>
      </trkpt>
      <trkpt lat="43.90766" lon="7.43868">
        <ele>1022.278</ele>
        <time>2020-06-25T07:45:43Z</time>
      </trkpt>
      <trkpt lat="43.90771" lon="7.43872">
        <ele>1025.634</ele>
        <time>2020-06-25T07:45:59Z</time>
      </trkpt>
      <trkpt lat="43.90783" lon="7.43875">
        <ele>1030.93</ele>
        <time>2020-06-25T07:46:14Z</time>
      </trkpt>
      <trkpt lat="43.90788" lon="7.43875">
        <ele>1032.071</ele>
        <time>2020-06-25T07:46:30Z</time>
      </trkpt>
      <trkpt lat="43.90788" lon="7.43875">
        <ele>1032.071</ele>
        <time>2020-06-25T07:46:46Z</time>
      </trkpt>
      <trkpt lat="43.90788" lon="7.43875">
        <ele>1032.071</ele>
        <time>2020-06-25T07:47:02Z</time>
      </trkpt>
      <trkpt lat="43.90788" lon="7.43875">
        <ele>1032.071</ele>
        <time>2020-06-25T07:47:17Z</time>
      </trkpt>
      <trkpt lat="43.90788" lon="7.43875">
        <ele>1032.071</ele>
        <time>2020-06-25T07:47:32Z</time>
      </trkpt>
      <trkpt lat="43.90788" lon="7.43875">
        <ele>1032.071</ele>
        <time>2020-06-25T07:47:47Z</time>
      </trkpt>
      <trkpt lat="43.9079" lon="7.43874">
        <ele>1032.547</ele>
        <time>2020-06-25T07:48:03Z</time>
      </trkpt>
      <trkpt lat="43.9079" lon="7.43874">
        <ele>1032.547</ele>
        <time>2020-06-25T07:48:18Z</time>
      </trkpt>
      <trkpt lat="43.90796" lon="7.43877">
        <ele>1031.089</ele>
        <time>2020-06-25T07:48:34Z</time>
      </trkpt>
      <trkpt lat="43.90813" lon="7.43884">
        <ele>1032.114</ele>
        <time>2020-06-25T07:48:50Z</time>
      </trkpt>
      <trkpt lat="43.90819" lon="7.43883">
        <ele>1032.463</ele>
        <time>2020-06-25T07:49:06Z</time>
      </trkpt>
      <trkpt lat="43.90826" lon="7.43882">
        <ele>1032.254</ele>
        <time>2020-06-25T07:49:22Z</time>
      </trkpt>
      <trkpt lat="43.90834" lon="7.4388">
        <ele>1033.581</ele>
        <time>2020-06-25T07:49:38Z</time>
      </trkpt>
      <trkpt lat="43.90841" lon="7.43874">
        <ele>1034.575</ele>
        <time>2020-06-25T07:49:54Z</time>
      </trkpt>
      <trkpt lat="43.90847" lon="7.43871">
        <ele>1036.497</ele>
        <time>2020-06-25T07:50:10Z</time>
      </trkpt>
      <trkpt lat="43.90853" lon="7.4387">
        <ele>1038.664</ele>
        <time>2020-06-25T07:50:25Z</time>
      </trkpt>
      <trkpt lat="43.90864" lon="7.43869">
        <ele>1040.552</ele>
        <time>2020-06-25T07:50:41Z</time>
      </trkpt>
      <trkpt lat="43.90879" lon="7.43862">
        <ele>1044.811</ele>
        <time>2020-06-25T07:50:56Z</time>
      </trkpt>
      <trkpt lat="43.90884" lon="7.43858">
        <ele>1047.651</ele>
        <time>2020-06-25T07:51:12Z</time>
      </trkpt>
      <trkpt lat="43.90894" lon="7.43854">
        <ele>1049.336</ele>
        <time>2020-06-25T07:51:27Z</time>
      </trkpt>
      <trkpt lat="43.90896" lon="7.43852">
        <ele>1049.969</ele>
        <time>2020-06-25T07:51:43Z</time>
      </trkpt>
      <trkpt lat="43.90902" lon="7.43843">
        <ele>1051.063</ele>
        <time>2020-06-25T07:51:58Z</time>
      </trkpt>
      <trkpt lat="43.90899" lon="7.4384">
        <ele>1054.263</ele>
        <time>2020-06-25T07:52:13Z</time>
      </trkpt>
      <trkpt lat="43.90898" lon="7.43836">
        <ele>1055.925</ele>
        <time>2020-06-25T07:52:29Z</time>
      </trkpt>
      <trkpt lat="43.90898" lon="7.43836">
        <ele>1055.925</ele>
        <time>2020-06-25T07:52:44Z</time>
      </trkpt>
      <trkpt lat="43.90898" lon="7.43836">
        <ele>1055.925</ele>
        <time>2020-06-25T07:53:00Z</time>
      </trkpt>
      <trkpt lat="43.90908" lon="7.43823">
        <ele>1058.271</ele>
        <time>2020-06-25T07:53:15Z</time>
      </trkpt>
      <trkpt lat="43.90917" lon="7.43811">
        <ele>1059.173</ele>
        <time>2020-06-25T07:53:31Z</time>
      </trkpt>
      <trkpt lat="43.90922" lon="7.43801">
        <ele>1061.816</ele>
        <time>2020-06-25T07:53:47Z</time>
      </trkpt>
      <trkpt lat="43.90928" lon="7.43795">
        <ele>1066.295</ele>
        <time>2020-06-25T07:54:03Z</time>
      </trkpt>
      <trkpt lat="43.90938" lon="7.43786">
        <ele>1069.565</ele>
        <time>2020-06-25T07:54:19Z</time>
      </trkpt>
      <trkpt lat="43.90944" lon="7.4378">
        <ele>1071.571</ele>
        <time>2020-06-25T07:54:35Z</time>
      </trkpt>
      <trkpt lat="43.90954" lon="7.43772">
        <ele>1074.806</ele>
        <time>2020-06-25T07:54:51Z</time>
      </trkpt>
      <trkpt lat="43.90959" lon="7.43768">
        <ele>1076.947</ele>
        <time>2020-06-25T07:55:06Z</time>
      </trkpt>
      <trkpt lat="43.90964" lon="7.43764">
        <ele>1078.33</ele>
        <time>2020-06-25T07:55:22Z</time>
      </trkpt>
      <trkpt lat="43.90972" lon="7.43754">
        <ele>1082.916</ele>
        <time>2020-06-25T07:55:37Z</time>
      </trkpt>
      <trkpt lat="43.90981" lon="7.43752">
        <ele>1085.673</ele>
        <time>2020-06-25T07:55:52Z</time>
      </trkpt>
      <trkpt lat="43.90982" lon="7.43752">
        <ele>1085.948</ele>
        <time>2020-06-25T07:56:07Z</time>
      </trkpt>
      <trkpt lat="43.90982" lon="7.43752">
        <ele>1085.948</ele>
        <time>2020-06-25T07:56:23Z</time>
      </trkpt>
      <trkpt lat="43.90992" lon="7.43745">
        <ele>1086.774</ele>
        <time>2020-06-25T07:56:38Z</time>
      </trkpt>
      <trkpt lat="43.90998" lon="7.43743">
        <ele>1086.323</ele>
        <time>2020-06-25T07:56:54Z</time>
      </trkpt>
      <trkpt lat="43.91006" lon="7.43744">
        <ele>1088.476</ele>
        <time>2020-06-25T07:57:09Z</time>
      </trkpt>
      <trkpt lat="43.91012" lon="7.43743">
        <ele>1091.758</ele>
        <time>2020-06-25T07:57:25Z</time>
      </trkpt>
      <trkpt lat="43.91022" lon="7.43743">
        <ele>1096.004</ele>
        <time>2020-06-25T07:57:41Z</time>
      </trkpt>
      <trkpt lat="43.91028" lon="7.43742">
        <ele>1100.571</ele>
        <time>2020-06-25T07:57:57Z</time>
      </trkpt>
      <trkpt lat="43.9104" lon="7.4374">
        <ele>1101.46</ele>
        <time>2020-06-25T07:58:12Z</time>
      </trkpt>
      <trkpt lat="43.91045" lon="7.43743">
        <ele>1104.527</ele>
        <time>2020-06-25T07:58:28Z</time>
      </trkpt>
      <trkpt lat="43.91052" lon="7.43744">
        <ele>1110.32</ele>
        <time>2020-06-25T07:58:44Z</time>
      </trkpt>
      <trkpt lat="43.91058" lon="7.43745">
        <ele>1109.16</ele>
        <time>2020-06-25T07:58:59Z</time>
      </trkpt>
      <trkpt lat="43.91069" lon="7.43747">
        <ele>1110.227</ele>
        <time>2020-06-25T07:59:15Z</time>
      </trkpt>
      <trkpt lat="43.91079" lon="7.43746">
        <ele>1113.038</ele>
        <time>2020-06-25T07:59:31Z</time>
      </trkpt>
      <trkpt lat="43.91088" lon="7.43744">
        <ele>1112.272</ele>
        <time>2020-06-25T07:59:46Z</time>
      </trkpt>
      <trkpt lat="43.91088" lon="7.43743">
        <ele>1114.243</ele>
        <time>2020-06-25T08:00:01Z</time>
      </trkpt>
      <trkpt lat="43.91088" lon="7.43743">
        <ele>1114.243</ele>
        <time>2020-06-25T08:00:17Z</time>
      </trkpt>
      <trkpt lat="43.91088" lon="7.43742">
        <ele>1115.527</ele>
        <time>2020-06-25T08:00:33Z</time>
      </trkpt>
      <trkpt lat="43.91088" lon="7.43742">
        <ele>1115.527</ele>
        <time>2020-06-25T08:00:49Z</time>
      </trkpt>
      <trkpt lat="43.91087" lon="7.43742">
        <ele>1115.862</ele>
        <time>2020-06-25T08:01:04Z</time>
      </trkpt>
      <trkpt lat="43.91088" lon="7.43743">
        <ele>1116.328</ele>
        <time>2020-06-25T08:01:20Z</time>
      </trkpt>
      <trkpt lat="43.91088" lon="7.43743">
        <ele>1116.328</ele>
        <time>2020-06-25T08:01:36Z</time>
      </trkpt>
      <trkpt lat="43.91088" lon="7.43743">
        <ele>1116.328</ele>
        <time>2020-06-25T08:01:52Z</time>
      </trkpt>
      <trkpt lat="43.91088" lon="7.43743">
        <ele>1116.328</ele>
        <time>2020-06-25T08:02:07Z</time>
      </trkpt>
      <trkpt lat="43.91088" lon="7.43743">
        <ele>1116.328</ele>
        <time>2020-06-25T08:02:23Z</time>
      </trkpt>
      <trkpt lat="43.91088" lon="7.43743">
        <ele>1116.328</ele>
        <time>2020-06-25T08:02:39Z</time>
      </trkpt>
      <trkpt lat="43.91088" lon="7.43743">
        <ele>1116.328</ele>
        <time>2020-06-25T08:02:54Z</time>
      </trkpt>
      <trkpt lat="43.91093" lon="7.43743">
        <ele>1115.017</ele>
        <time>2020-06-25T08:03:10Z</time>
      </trkpt>
      <trkpt lat="43.91109" lon="7.43744">
        <ele>1112.959</ele>
        <time>2020-06-25T08:03:25Z</time>
      </trkpt>
      <trkpt lat="43.91115" lon="7.43741">
        <ele>1113.862</ele>
        <time>2020-06-25T08:03:41Z</time>
      </trkpt>
      <trkpt lat="43.91118" lon="7.43742">
        <ele>1112.942</ele>
        <time>2020-06-25T08:03:57Z</time>
      </trkpt>
      <trkpt lat="43.91126" lon="7.43737">
        <ele>1113.929</ele>
        <time>2020-06-25T08:04:13Z</time>
      </trkpt>
      <trkpt lat="43.91128" lon="7.43736">
        <ele>1114.036</ele>
        <time>2020-06-25T08:04:29Z</time>
      </trkpt>
      <trkpt lat="43.91134" lon="7.43735">
        <ele>1115.887</ele>
        <time>2020-06-25T08:04:44Z</time>
      </trkpt>
      <trkpt lat="43.91139" lon="7.43731">
        <ele>1120.881</ele>
        <time>2020-06-25T08:05:00Z</time>
      </trkpt>
      <trkpt lat="43.91137" lon="7.4373">
        <ele>1123.975</ele>
        <time>2020-06-25T08:05:16Z</time>
      </trkpt>
      <trkpt lat="43.91138" lon="7.43726">
        <ele>1125.307</ele>
        <time>2020-06-25T08:05:32Z</time>
      </trkpt>
      <trkpt lat="43.91138" lon="7.43726">
        <ele>1125.307</ele>
        <time>2020-06-25T08:05:47Z</time>
      </trkpt>
      <trkpt lat="43.91138" lon="7.43726">
        <ele>1125.307</ele>
        <time>2020-06-25T08:06:03Z</time>
      </trkpt>
      <trkpt lat="43.91138" lon="7.43726">
        <ele>1125.307</ele>
        <time>2020-06-25T08:06:19Z</time>
      </trkpt>
      <trkpt lat="43.91117" lon="7.43697">
        <ele>1136.458</ele>
        <time>2020-06-25T08:06:35Z</time>
      </trkpt>
      <trkpt lat="43.91117" lon="7.43689">
        <ele>1141.525</ele>
        <time>2020-06-25T08:06:50Z</time>
      </trkpt>
      <trkpt lat="43.91118" lon="7.43686">
        <ele>1141.44</ele>
        <time>2020-06-25T08:07:06Z</time>
      </trkpt>
      <trkpt lat="43.9112" lon="7.43684">
        <ele>1142.834</ele>
        <time>2020-06-25T08:07:22Z</time>
      </trkpt>
      <trkpt lat="43.91122" lon="7.43683">
        <ele>1143.915</ele>
        <time>2020-06-25T08:07:37Z</time>
      </trkpt>
      <trkpt lat="43.91124" lon="7.43684">
        <ele>1145.703</ele>
        <time>2020-06-25T08:07:53Z</time>
      </trkpt>
      <trkpt lat="43.91134" lon="7.43681">
        <ele>1151.415</ele>
        <time>2020-06-25T08:08:08Z</time>
      </trkpt>
      <trkpt lat="43.91136" lon="7.43676">
        <ele>1155.671</ele>
        <time>2020-06-25T08:08:24Z</time>
      </trkpt>
      <trkpt lat="43.91143" lon="7.43661">
        <ele>1155.153</ele>
        <time>2020-06-25T08:08:39Z</time>
      </trkpt>
      <trkpt lat="43.91143" lon="7.43659">
        <ele>1155.557</ele>
        <time>2020-06-25T08:08:55Z</time>
      </trkpt>
      <trkpt lat="43.91146" lon="7.4366">
        <ele>1157.137</ele>
        <time>2020-06-25T08:09:11Z</time>
      </trkpt>
      <trkpt lat="43.91151" lon="7.43661">
        <ele>1159.462</ele>
        <time>2020-06-25T08:09:26Z</time>
      </trkpt>
      <trkpt lat="43.91156" lon="7.43666">
        <ele>1159.885</ele>
        <time>2020-06-25T08:09:42Z</time>
      </trkpt>
      <trkpt lat="43.91156" lon="7.43666">
        <ele>1159.885</ele>
        <time>2020-06-25T08:09:57Z</time>
      </trkpt>
      <trkpt lat="43.91156" lon="7.43666">
        <ele>1159.885</ele>
        <time>2020-06-25T08:10:12Z</time>
      </trkpt>
      <trkpt lat="43.91178" lon="7.43668">
        <ele>1166.114</ele>
        <time>2020-06-25T08:10:28Z</time>
      </trkpt>
      <trkpt lat="43.91179" lon="7.43671">
        <ele>1166.867</ele>
        <time>2020-06-25T08:10:44Z</time>
      </trkpt>
      <trkpt lat="43.91183" lon="7.43671">
        <ele>1166.732</ele>
        <time>2020-06-25T08:11:00Z</time>
      </trkpt>
      <trkpt lat="43.912" lon="7.43672">
        <ele>1169.786</ele>
        <time>2020-06-25T08:11:16Z</time>
      </trkpt>
      <trkpt lat="43.91206" lon="7.43674">
        <ele>1173.995</ele>
        <time>2020-06-25T08:11:31Z</time>
      </trkpt>
      <trkpt lat="43.91215" lon="7.43672">
        <ele>1178.075</ele>
        <time>2020-06-25T08:11:47Z</time>
      </trkpt>
      <trkpt lat="43.91219" lon="7.43671">
        <ele>1180.773</ele>
        <time>2020-06-25T08:12:02Z</time>
      </trkpt>
      <trkpt lat="43.91226" lon="7.43675">
        <ele>1182.993</ele>
        <time>2020-06-25T08:12:18Z</time>
      </trkpt>
      <trkpt lat="43.91235" lon="7.43676">
        <ele>1183.761</ele>
        <time>2020-06-25T08:12:34Z</time>
      </trkpt>
      <trkpt lat="43.91241" lon="7.43677">
        <ele>1184.513</ele>
        <time>2020-06-25T08:12:49Z</time>
      </trkpt>
      <trkpt lat="43.91241" lon="7.43677">
        <ele>1184.513</ele>
        <time>2020-06-25T08:13:05Z</time>
      </trkpt>
      <trkpt lat="43.91241" lon="7.43677">
        <ele>1184.513</ele>
        <time>2020-06-25T08:13:21Z</time>
      </trkpt>
      <trkpt lat="43.91241" lon="7.43677">
        <ele>1184.513</ele>
        <time>2020-06-25T08:13:36Z</time>
      </trkpt>
      <trkpt lat="43.91243" lon="7.43681">
        <ele>1187.217</ele>
        <time>2020-06-25T08:13:52Z</time>
      </trkpt>
      <trkpt lat="43.91247" lon="7.43677">
        <ele>1187.699</ele>
        <time>2020-06-25T08:14:07Z</time>
      </trkpt>
      <trkpt lat="43.91247" lon="7.43674">
        <ele>1187.587</ele>
        <time>2020-06-25T08:14:22Z</time>
      </trkpt>
      <trkpt lat="43.91247" lon="7.43674">
        <ele>1187.587</ele>
        <time>2020-06-25T08:14:38Z</time>
      </trkpt>
      <trkpt lat="43.91264" lon="7.4366">
        <ele>1186.376</ele>
        <time>2020-06-25T08:14:53Z</time>
      </trkpt>
      <trkpt lat="43.91264" lon="7.4366">
        <ele>1186.474</ele>
        <time>2020-06-25T08:15:09Z</time>
      </trkpt>
      <trkpt lat="43.91269" lon="7.43653">
        <ele>1189.665</ele>
        <time>2020-06-25T08:15:25Z</time>
      </trkpt>
      <trkpt lat="43.9128" lon="7.43645">
        <ele>1192.453</ele>
        <time>2020-06-25T08:15:41Z</time>
      </trkpt>
      <trkpt lat="43.9129" lon="7.43641">
        <ele>1193.828</ele>
        <time>2020-06-25T08:15:56Z</time>
      </trkpt>
      <trkpt lat="43.91304" lon="7.43637">
        <ele>1197.187</ele>
        <time>2020-06-25T08:16:12Z</time>
      </trkpt>
      <trkpt lat="43.91323" lon="7.43636">
        <ele>1203.569</ele>
        <time>2020-06-25T08:16:28Z</time>
      </trkpt>
      <trkpt lat="43.91333" lon="7.4364">
        <ele>1207.991</ele>
        <time>2020-06-25T08:16:44Z</time>
      </trkpt>
      <trkpt lat="43.9135" lon="7.43642">
        <ele>1206.182</ele>
        <time>2020-06-25T08:16:59Z</time>
      </trkpt>
      <trkpt lat="43.91365" lon="7.43634">
        <ele>1209.317</ele>
        <time>2020-06-25T08:17:15Z</time>
      </trkpt>
      <trkpt lat="43.91371" lon="7.43631">
        <ele>1211.453</ele>
        <time>2020-06-25T08:17:30Z</time>
      </trkpt>
      <trkpt lat="43.91376" lon="7.43626">
        <ele>1212.332</ele>
        <time>2020-06-25T08:17:46Z</time>
      </trkpt>
      <trkpt lat="43.91376" lon="7.43626">
        <ele>1212.616</ele>
        <time>2020-06-25T08:18:01Z</time>
      </trkpt>
      <trkpt lat="43.91376" lon="7.43626">
        <ele>1212.616</ele>
        <time>2020-06-25T08:18:16Z</time>
      </trkpt>
      <trkpt lat="43.91384" lon="7.43626">
        <ele>1214.712</ele>
        <time>2020-06-25T08:18:31Z</time>
      </trkpt>
      <trkpt lat="43.91399" lon="7.43622">
        <ele>1217.445</ele>
        <time>2020-06-25T08:18:47Z</time>
      </trkpt>
      <trkpt lat="43.91404" lon="7.43625">
        <ele>1220.181</ele>
        <time>2020-06-25T08:19:02Z</time>
      </trkpt>
      <trkpt lat="43.91421" lon="7.43632">
        <ele>1219.731</ele>
        <time>2020-06-25T08:19:17Z</time>
      </trkpt>
      <trkpt lat="43.91432" lon="7.43627">
        <ele>1221.454</ele>
        <time>2020-06-25T08:19:32Z</time>
      </trkpt>
      <trkpt lat="43.91435" lon="7.43631">
        <ele>1222.223</ele>
        <time>2020-06-25T08:19:47Z</time>
      </trkpt>
      <trkpt lat="43.91447" lon="7.43634">
        <ele>1226.587</ele>
        <time>2020-06-25T08:20:03Z</time>
      </trkpt>
      <trkpt lat="43.91452" lon="7.43636">
        <ele>1229.561</ele>
        <time>2020-06-25T08:20:19Z</time>
      </trkpt>
      <trkpt lat="43.91466" lon="7.4364">
        <ele>1233.318</ele>
        <time>2020-06-25T08:20:35Z</time>
      </trkpt>
      <trkpt lat="43.91466" lon="7.4364">
        <ele>1233.318</ele>
        <time>2020-06-25T08:20:50Z</time>
      </trkpt>
      <trkpt lat="43.91466" lon="7.4364">
        <ele>1233.318</ele>
        <time>2020-06-25T08:21:06Z</time>
      </trkpt>
      <trkpt lat="43.91493" lon="7.43635">
        <ele>1233.802</ele>
        <time>2020-06-25T08:21:22Z</time>
      </trkpt>
      <trkpt lat="43.91505" lon="7.43631">
        <ele>1236.868</ele>
        <time>2020-06-25T08:21:37Z</time>
      </trkpt>
      <trkpt lat="43.91505" lon="7.43631">
        <ele>1236.868</ele>
        <time>2020-06-25T08:21:53Z</time>
      </trkpt>
      <trkpt lat="43.91505" lon="7.43631">
        <ele>1236.868</ele>
        <time>2020-06-25T08:22:09Z</time>
      </trkpt>
      <trkpt lat="43.91505" lon="7.43633">
        <ele>1244.064</ele>
        <time>2020-06-25T08:22:24Z</time>
      </trkpt>
      <trkpt lat="43.91505" lon="7.43633">
        <ele>1244.064</ele>
        <time>2020-06-25T08:22:40Z</time>
      </trkpt>
      <trkpt lat="43.91505" lon="7.43633">
        <ele>1244.064</ele>
        <time>2020-06-25T08:22:55Z</time>
      </trkpt>
      <trkpt lat="43.91505" lon="7.43633">
        <ele>1244.064</ele>
        <time>2020-06-25T08:23:11Z</time>
      </trkpt>
      <trkpt lat="43.91505" lon="7.43633">
        <ele>1244.064</ele>
        <time>2020-06-25T08:23:26Z</time>
      </trkpt>
      <trkpt lat="43.91505" lon="7.43633">
        <ele>1244.064</ele>
        <time>2020-06-25T08:23:42Z</time>
      </trkpt>
      <trkpt lat="43.91505" lon="7.43633">
        <ele>1244.064</ele>
        <time>2020-06-25T08:23:57Z</time>
      </trkpt>
      <trkpt lat="43.91505" lon="7.43633">
        <ele>1244.064</ele>
        <time>2020-06-25T08:24:13Z</time>
      </trkpt>
      <trkpt lat="43.91505" lon="7.43633">
        <ele>1244.064</ele>
        <time>2020-06-25T08:24:29Z</time>
      </trkpt>
      <trkpt lat="43.91505" lon="7.43633">
        <ele>1244.064</ele>
        <time>2020-06-25T08:24:44Z</time>
      </trkpt>
      <trkpt lat="43.91505" lon="7.43633">
        <ele>1244.064</ele>
        <time>2020-06-25T08:25:00Z</time>
      </trkpt>
      <trkpt lat="43.91505" lon="7.43633">
        <ele>1244.064</ele>
        <time>2020-06-25T08:25:16Z</time>
      </trkpt>
      <trkpt lat="43.91505" lon="7.43633">
        <ele>1244.064</ele>
        <time>2020-06-25T08:25:32Z</time>
      </trkpt>
      <trkpt lat="43.91505" lon="7.43633">
        <ele>1244.064</ele>
        <time>2020-06-25T08:25:47Z</time>
      </trkpt>
      <trkpt lat="43.91505" lon="7.43633">
        <ele>1244.064</ele>
        <time>2020-06-25T08:26:02Z</time>
      </trkpt>
      <trkpt lat="43.91505" lon="7.43633">
        <ele>1244.064</ele>
        <time>2020-06-25T08:26:17Z</time>
      </trkpt>
      <trkpt lat="43.91505" lon="7.43633">
        <ele>1244.064</ele>
        <time>2020-06-25T08:26:33Z</time>
      </trkpt>
      <trkpt lat="43.91509" lon="7.43635">
        <ele>1245.424</ele>
        <time>2020-06-25T08:26:49Z</time>
      </trkpt>
      <trkpt lat="43.9151" lon="7.43634">
        <ele>1245.209</ele>
        <time>2020-06-25T08:27:04Z</time>
      </trkpt>
      <trkpt lat="43.9151" lon="7.43634">
        <ele>1245.209</ele>
        <time>2020-06-25T08:27:20Z</time>
      </trkpt>
      <trkpt lat="43.9151" lon="7.43634">
        <ele>1245.209</ele>
        <time>2020-06-25T08:27:35Z</time>
      </trkpt>
      <trkpt lat="43.9151" lon="7.43634">
        <ele>1245.209</ele>
        <time>2020-06-25T08:27:51Z</time>
      </trkpt>
      <trkpt lat="43.91514" lon="7.43634">
        <ele>1246.452</ele>
        <time>2020-06-25T08:28:07Z</time>
      </trkpt>
      <trkpt lat="43.91514" lon="7.43634">
        <ele>1246.452</ele>
        <time>2020-06-25T08:28:22Z</time>
      </trkpt>
      <trkpt lat="43.91514" lon="7.43634">
        <ele>1246.452</ele>
        <time>2020-06-25T08:28:38Z</time>
      </trkpt>
      <trkpt lat="43.91514" lon="7.43634">
        <ele>1246.452</ele>
        <time>2020-06-25T08:28:53Z</time>
      </trkpt>
      <trkpt lat="43.91514" lon="7.43634">
        <ele>1246.452</ele>
        <time>2020-06-25T08:29:08Z</time>
      </trkpt>
      <trkpt lat="43.91514" lon="7.43634">
        <ele>1246.452</ele>
        <time>2020-06-25T08:29:23Z</time>
      </trkpt>
      <trkpt lat="43.91514" lon="7.43634">
        <ele>1246.452</ele>
        <time>2020-06-25T08:29:39Z</time>
      </trkpt>
      <trkpt lat="43.91514" lon="7.43634">
        <ele>1246.452</ele>
        <time>2020-06-25T08:29:54Z</time>
      </trkpt>
      <trkpt lat="43.91514" lon="7.43634">
        <ele>1246.452</ele>
        <time>2020-06-25T08:30:09Z</time>
      </trkpt>
      <trkpt lat="43.91514" lon="7.43634">
        <ele>1246.452</ele>
        <time>2020-06-25T08:30:24Z</time>
      </trkpt>
      <trkpt lat="43.91514" lon="7.43634">
        <ele>1246.452</ele>
        <time>2020-06-25T08:30:40Z</time>
      </trkpt>
      <trkpt lat="43.91514" lon="7.43634">
        <ele>1246.452</ele>
        <time>2020-06-25T08:30:55Z</time>
      </trkpt>
      <trkpt lat="43.91514" lon="7.43634">
        <ele>1246.452</ele>
        <time>2020-06-25T08:31:11Z</time>
      </trkpt>
      <trkpt lat="43.91514" lon="7.43634">
        <ele>1246.452</ele>
        <time>2020-06-25T08:31:26Z</time>
      </trkpt>
      <trkpt lat="43.91514" lon="7.43634">
        <ele>1246.452</ele>
        <time>2020-06-25T08:31:41Z</time>
      </trkpt>
      <trkpt lat="43.91514" lon="7.43634">
        <ele>1246.452</ele>
        <time>2020-06-25T08:31:57Z</time>
      </trkpt>
      <trkpt lat="43.91514" lon="7.43634">
        <ele>1246.452</ele>
        <time>2020-06-25T08:32:12Z</time>
      </trkpt>
      <trkpt lat="43.91514" lon="7.43634">
        <ele>1246.452</ele>
        <time>2020-06-25T08:32:28Z</time>
      </trkpt>
      <trkpt lat="43.91514" lon="7.43634">
        <ele>1246.452</ele>
        <time>2020-06-25T08:32:44Z</time>
      </trkpt>
      <trkpt lat="43.91514" lon="7.43634">
        <ele>1246.452</ele>
        <time>2020-06-25T08:32:59Z</time>
      </trkpt>
      <trkpt lat="43.91514" lon="7.43634">
        <ele>1246.452</ele>
        <time>2020-06-25T08:33:14Z</time>
      </trkpt>
      <trkpt lat="43.91514" lon="7.43634">
        <ele>1246.452</ele>
        <time>2020-06-25T08:33:30Z</time>
      </trkpt>
      <trkpt lat="43.91514" lon="7.43634">
        <ele>1246.452</ele>
        <time>2020-06-25T08:33:46Z</time>
      </trkpt>
      <trkpt lat="43.91514" lon="7.43634">
        <ele>1246.452</ele>
        <time>2020-06-25T08:34:01Z</time>
      </trkpt>
      <trkpt lat="43.91514" lon="7.43634">
        <ele>1246.452</ele>
        <time>2020-06-25T08:34:17Z</time>
      </trkpt>
      <trkpt lat="43.91514" lon="7.43634">
        <ele>1246.452</ele>
        <time>2020-06-25T08:34:33Z</time>
      </trkpt>
      <trkpt lat="43.91514" lon="7.43634">
        <ele>1246.452</ele>
        <time>2020-06-25T08:34:49Z</time>
      </trkpt>
      <trkpt lat="43.91514" lon="7.43634">
        <ele>1246.452</ele>
        <time>2020-06-25T08:35:04Z</time>
      </trkpt>
      <trkpt lat="43.91514" lon="7.43634">
        <ele>1246.452</ele>
        <time>2020-06-25T08:35:20Z</time>
      </trkpt>
      <trkpt lat="43.91511" lon="7.43636">
        <ele>1247.73</ele>
        <time>2020-06-25T08:35:35Z</time>
      </trkpt>
      <trkpt lat="43.91511" lon="7.43636">
        <ele>1247.73</ele>
        <time>2020-06-25T08:35:51Z</time>
      </trkpt>
      <trkpt lat="43.91511" lon="7.43636">
        <ele>1247.73</ele>
        <time>2020-06-25T08:36:07Z</time>
      </trkpt>
      <trkpt lat="43.91511" lon="7.43636">
        <ele>1247.73</ele>
        <time>2020-06-25T08:36:22Z</time>
      </trkpt>
      <trkpt lat="43.91511" lon="7.43636">
        <ele>1247.73</ele>
        <time>2020-06-25T08:36:38Z</time>
      </trkpt>
      <trkpt lat="43.9152" lon="7.43621">
        <ele>1250.122</ele>
        <time>2020-06-25T08:36:54Z</time>
      </trkpt>
      <trkpt lat="43.91519" lon="7.43629">
        <ele>1254.191</ele>
        <time>2020-06-25T08:37:10Z</time>
      </trkpt>
      <trkpt lat="43.9152" lon="7.43632">
        <ele>1254.883</ele>
        <time>2020-06-25T08:37:25Z</time>
      </trkpt>
      <trkpt lat="43.91518" lon="7.43635">
        <ele>1253.875</ele>
        <time>2020-06-25T08:37:41Z</time>
      </trkpt>
      <trkpt lat="43.91518" lon="7.43635">
        <ele>1253.875</ele>
        <time>2020-06-25T08:37:56Z</time>
      </trkpt>
      <trkpt lat="43.91531" lon="7.4364">
        <ele>1255.123</ele>
        <time>2020-06-25T08:38:11Z</time>
      </trkpt>
      <trkpt lat="43.91548" lon="7.43634">
        <ele>1258.353</ele>
        <time>2020-06-25T08:38:27Z</time>
      </trkpt>
      <trkpt lat="43.91548" lon="7.43634">
        <ele>1258.353</ele>
        <time>2020-06-25T08:38:43Z</time>
      </trkpt>
      <trkpt lat="43.91551" lon="7.43639">
        <ele>1259.832</ele>
        <time>2020-06-25T08:38:59Z</time>
      </trkpt>
      <trkpt lat="43.9156" lon="7.43641">
        <ele>1262.153</ele>
        <time>2020-06-25T08:39:14Z</time>
      </trkpt>
      <trkpt lat="43.9156" lon="7.43641">
        <ele>1262.153</ele>
        <time>2020-06-25T08:39:30Z</time>
      </trkpt>
      <trkpt lat="43.9156" lon="7.43641">
        <ele>1262.153</ele>
        <time>2020-06-25T08:39:45Z</time>
      </trkpt>
      <trkpt lat="43.9156" lon="7.43641">
        <ele>1262.153</ele>
        <time>2020-06-25T08:40:01Z</time>
      </trkpt>
      <trkpt lat="43.91587" lon="7.43651">
        <ele>1262.936</ele>
        <time>2020-06-25T08:40:16Z</time>
      </trkpt>
      <trkpt lat="43.91594" lon="7.43654">
        <ele>1262.946</ele>
        <time>2020-06-25T08:40:32Z</time>
      </trkpt>
      <trkpt lat="43.91612" lon="7.43659">
        <ele>1267.08</ele>
        <time>2020-06-25T08:40:48Z</time>
      </trkpt>
      <trkpt lat="43.91617" lon="7.43656">
        <ele>1269.824</ele>
        <time>2020-06-25T08:41:03Z</time>
      </trkpt>
      <trkpt lat="43.91636" lon="7.43657">
        <ele>1272.442</ele>
        <time>2020-06-25T08:41:18Z</time>
      </trkpt>
      <trkpt lat="43.91636" lon="7.43657">
        <ele>1272.442</ele>
        <time>2020-06-25T08:41:34Z</time>
      </trkpt>
      <trkpt lat="43.91643" lon="7.43658">
        <ele>1272.206</ele>
        <time>2020-06-25T08:41:50Z</time>
      </trkpt>
      <trkpt lat="43.91651" lon="7.43662">
        <ele>1269.967</ele>
        <time>2020-06-25T08:42:05Z</time>
      </trkpt>
      <trkpt lat="43.91665" lon="7.43678">
        <ele>1276.223</ele>
        <time>2020-06-25T08:42:20Z</time>
      </trkpt>
      <trkpt lat="43.91676" lon="7.43679">
        <ele>1281.077</ele>
        <time>2020-06-25T08:42:35Z</time>
      </trkpt>
      <trkpt lat="43.9169" lon="7.43695">
        <ele>1284.723</ele>
        <time>2020-06-25T08:42:51Z</time>
      </trkpt>
      <trkpt lat="43.91711" lon="7.43695">
        <ele>1288.362</ele>
        <time>2020-06-25T08:43:07Z</time>
      </trkpt>
      <trkpt lat="43.91711" lon="7.43706">
        <ele>1288.504</ele>
        <time>2020-06-25T08:43:23Z</time>
      </trkpt>
      <trkpt lat="43.91715" lon="7.43707">
        <ele>1290.04</ele>
        <time>2020-06-25T08:43:38Z</time>
      </trkpt>
      <trkpt lat="43.91731" lon="7.43692">
        <ele>1290.164</ele>
        <time>2020-06-25T08:43:54Z</time>
      </trkpt>
      <trkpt lat="43.91731" lon="7.43692">
        <ele>1290.164</ele>
        <time>2020-06-25T08:44:09Z</time>
      </trkpt>
      <trkpt lat="43.91742" lon="7.43699">
        <ele>1291.224</ele>
        <time>2020-06-25T08:44:24Z</time>
      </trkpt>
      <trkpt lat="43.91753" lon="7.43696">
        <ele>1295.333</ele>
        <time>2020-06-25T08:44:40Z</time>
      </trkpt>
      <trkpt lat="43.91778" lon="7.43698">
        <ele>1297.562</ele>
        <time>2020-06-25T08:44:56Z</time>
      </trkpt>
      <trkpt lat="43.91782" lon="7.43703">
        <ele>1300.66</ele>
        <time>2020-06-25T08:45:12Z</time>
      </trkpt>
      <trkpt lat="43.91787" lon="7.43696">
        <ele>1301.639</ele>
        <time>2020-06-25T08:45:27Z</time>
      </trkpt>
      <trkpt lat="43.91809" lon="7.43701">
        <ele>1306.691</ele>
        <time>2020-06-25T08:45:43Z</time>
      </trkpt>
      <trkpt lat="43.91816" lon="7.43697">
        <ele>1309.065</ele>
        <time>2020-06-25T08:45:58Z</time>
      </trkpt>
      <trkpt lat="43.91833" lon="7.43692">
        <ele>1312.07</ele>
        <time>2020-06-25T08:46:14Z</time>
      </trkpt>
      <trkpt lat="43.91843" lon="7.43697">
        <ele>1314.725</ele>
        <time>2020-06-25T08:46:30Z</time>
      </trkpt>
      <trkpt lat="43.91856" lon="7.43696">
        <ele>1316.847</ele>
        <time>2020-06-25T08:46:45Z</time>
      </trkpt>
      <trkpt lat="43.91866" lon="7.43699">
        <ele>1318.952</ele>
        <time>2020-06-25T08:47:01Z</time>
      </trkpt>
      <trkpt lat="43.91871" lon="7.43695">
        <ele>1319.885</ele>
        <time>2020-06-25T08:47:16Z</time>
      </trkpt>
      <trkpt lat="43.91884" lon="7.43684">
        <ele>1319.755</ele>
        <time>2020-06-25T08:47:32Z</time>
      </trkpt>
      <trkpt lat="43.919" lon="7.43683">
        <ele>1323.914</ele>
        <time>2020-06-25T08:47:47Z</time>
      </trkpt>
      <trkpt lat="43.91907" lon="7.43677">
        <ele>1324.529</ele>
        <time>2020-06-25T08:48:02Z</time>
      </trkpt>
      <trkpt lat="43.91907" lon="7.43677">
        <ele>1324.529</ele>
        <time>2020-06-25T08:48:18Z</time>
      </trkpt>
      <trkpt lat="43.91914" lon="7.43682">
        <ele>1324.404</ele>
        <time>2020-06-25T08:48:34Z</time>
      </trkpt>
      <trkpt lat="43.91917" lon="7.43684">
        <ele>1323.668</ele>
        <time>2020-06-25T08:48:49Z</time>
      </trkpt>
      <trkpt lat="43.91944" lon="7.43678">
        <ele>1326.453</ele>
        <time>2020-06-25T08:49:05Z</time>
      </trkpt>
      <trkpt lat="43.91958" lon="7.43674">
        <ele>1324.908</ele>
        <time>2020-06-25T08:49:20Z</time>
      </trkpt>
      <trkpt lat="43.91969" lon="7.43677">
        <ele>1328.389</ele>
        <time>2020-06-25T08:49:36Z</time>
      </trkpt>
      <trkpt lat="43.91979" lon="7.43678">
        <ele>1331.464</ele>
        <time>2020-06-25T08:49:51Z</time>
      </trkpt>
      <trkpt lat="43.91992" lon="7.43677">
        <ele>1338.375</ele>
        <time>2020-06-25T08:50:07Z</time>
      </trkpt>
      <trkpt lat="43.91999" lon="7.4365">
        <ele>1337.771</ele>
        <time>2020-06-25T08:50:22Z</time>
      </trkpt>
      <trkpt lat="43.92003" lon="7.43656">
        <ele>1342.013</ele>
        <time>2020-06-25T08:50:38Z</time>
      </trkpt>
      <trkpt lat="43.92002" lon="7.43654">
        <ele>1342.547</ele>
        <time>2020-06-25T08:50:53Z</time>
      </trkpt>
      <trkpt lat="43.92002" lon="7.43654">
        <ele>1342.547</ele>
        <time>2020-06-25T08:51:09Z</time>
      </trkpt>
      <trkpt lat="43.92017" lon="7.43649">
        <ele>1348.256</ele>
        <time>2020-06-25T08:51:25Z</time>
      </trkpt>
      <trkpt lat="43.9203" lon="7.43653">
        <ele>1348.699</ele>
        <time>2020-06-25T08:51:40Z</time>
      </trkpt>
      <trkpt lat="43.92043" lon="7.43646">
        <ele>1350.157</ele>
        <time>2020-06-25T08:51:56Z</time>
      </trkpt>
      <trkpt lat="43.92045" lon="7.43643">
        <ele>1352.602</ele>
        <time>2020-06-25T08:52:12Z</time>
      </trkpt>
      <trkpt lat="43.9206" lon="7.43629">
        <ele>1350.887</ele>
        <time>2020-06-25T08:52:27Z</time>
      </trkpt>
      <trkpt lat="43.92063" lon="7.43663">
        <ele>1353.101</ele>
        <time>2020-06-25T08:52:43Z</time>
      </trkpt>
      <trkpt lat="43.92063" lon="7.43656">
        <ele>1355.377</ele>
        <time>2020-06-25T08:52:58Z</time>
      </trkpt>
      <trkpt lat="43.9206" lon="7.43645">
        <ele>1359.187</ele>
        <time>2020-06-25T08:53:14Z</time>
      </trkpt>
      <trkpt lat="43.92063" lon="7.43639">
        <ele>1359.027</ele>
        <time>2020-06-25T08:53:30Z</time>
      </trkpt>
      <trkpt lat="43.92073" lon="7.43638">
        <ele>1360.221</ele>
        <time>2020-06-25T08:53:46Z</time>
      </trkpt>
      <trkpt lat="43.92081" lon="7.43644">
        <ele>1363.706</ele>
        <time>2020-06-25T08:54:01Z</time>
      </trkpt>
      <trkpt lat="43.92081" lon="7.43644">
        <ele>1363.706</ele>
        <time>2020-06-25T08:54:17Z</time>
      </trkpt>
      <trkpt lat="43.92091" lon="7.43651">
        <ele>1366.511</ele>
        <time>2020-06-25T08:54:32Z</time>
      </trkpt>
      <trkpt lat="43.92096" lon="7.43654">
        <ele>1368.024</ele>
        <time>2020-06-25T08:54:47Z</time>
      </trkpt>
      <trkpt lat="43.92099" lon="7.43654">
        <ele>1369.569</ele>
        <time>2020-06-25T08:55:03Z</time>
      </trkpt>
      <trkpt lat="43.92099" lon="7.43654">
        <ele>1369.569</ele>
        <time>2020-06-25T08:55:19Z</time>
      </trkpt>
      <trkpt lat="43.92099" lon="7.43654">
        <ele>1369.569</ele>
        <time>2020-06-25T08:55:34Z</time>
      </trkpt>
      <trkpt lat="43.92099" lon="7.43654">
        <ele>1369.569</ele>
        <time>2020-06-25T08:55:49Z</time>
      </trkpt>
      <trkpt lat="43.92113" lon="7.43656">
        <ele>1372.662</ele>
        <time>2020-06-25T08:56:05Z</time>
      </trkpt>
      <trkpt lat="43.92113" lon="7.43656">
        <ele>1372.662</ele>
        <time>2020-06-25T08:56:20Z</time>
      </trkpt>
      <trkpt lat="43.92113" lon="7.43656">
        <ele>1372.662</ele>
        <time>2020-06-25T08:56:38Z</time>
      </trkpt>
      <trkpt lat="43.92123" lon="7.43659">
        <ele>1375.892</ele>
        <time>2020-06-25T08:56:54Z</time>
      </trkpt>
      <trkpt lat="43.92131" lon="7.43658">
        <ele>1380.309</ele>
        <time>2020-06-25T08:57:10Z</time>
      </trkpt>
      <trkpt lat="43.92136" lon="7.43658">
        <ele>1383.949</ele>
        <time>2020-06-25T08:57:25Z</time>
      </trkpt>
      <trkpt lat="43.92151" lon="7.43663">
        <ele>1391.198</ele>
        <time>2020-06-25T08:57:41Z</time>
      </trkpt>
      <trkpt lat="43.92165" lon="7.43679">
        <ele>1394.155</ele>
        <time>2020-06-25T08:57:57Z</time>
      </trkpt>
      <trkpt lat="43.92174" lon="7.43682">
        <ele>1395.979</ele>
        <time>2020-06-25T08:58:12Z</time>
      </trkpt>
      <trkpt lat="43.92182" lon="7.43678">
        <ele>1396.659</ele>
        <time>2020-06-25T08:58:27Z</time>
      </trkpt>
      <trkpt lat="43.92199" lon="7.43674">
        <ele>1395.904</ele>
        <time>2020-06-25T08:58:43Z</time>
      </trkpt>
      <trkpt lat="43.92221" lon="7.43688">
        <ele>1397.487</ele>
        <time>2020-06-25T08:58:58Z</time>
      </trkpt>
      <trkpt lat="43.92232" lon="7.43697">
        <ele>1397.957</ele>
        <time>2020-06-25T08:59:14Z</time>
      </trkpt>
      <trkpt lat="43.92242" lon="7.43705">
        <ele>1399.238</ele>
        <time>2020-06-25T08:59:30Z</time>
      </trkpt>
      <trkpt lat="43.92243" lon="7.43705">
        <ele>1399.373</ele>
        <time>2020-06-25T08:59:46Z</time>
      </trkpt>
      <trkpt lat="43.92253" lon="7.43708">
        <ele>1398.49</ele>
        <time>2020-06-25T09:00:02Z</time>
      </trkpt>
      <trkpt lat="43.9226" lon="7.4371">
        <ele>1400.595</ele>
        <time>2020-06-25T09:00:17Z</time>
      </trkpt>
      <trkpt lat="43.92272" lon="7.43715">
        <ele>1400.381</ele>
        <time>2020-06-25T09:00:33Z</time>
      </trkpt>
      <trkpt lat="43.92278" lon="7.43715">
        <ele>1401.082</ele>
        <time>2020-06-25T09:00:48Z</time>
      </trkpt>
      <trkpt lat="43.92287" lon="7.43725">
        <ele>1408.304</ele>
        <time>2020-06-25T09:01:03Z</time>
      </trkpt>
      <trkpt lat="43.92294" lon="7.43732">
        <ele>1410.898</ele>
        <time>2020-06-25T09:01:19Z</time>
      </trkpt>
      <trkpt lat="43.92304" lon="7.4374">
        <ele>1413.905</ele>
        <time>2020-06-25T09:01:35Z</time>
      </trkpt>
      <trkpt lat="43.9232" lon="7.43753">
        <ele>1415.481</ele>
        <time>2020-06-25T09:01:51Z</time>
      </trkpt>
      <trkpt lat="43.92333" lon="7.43757">
        <ele>1417.788</ele>
        <time>2020-06-25T09:02:07Z</time>
      </trkpt>
      <trkpt lat="43.92355" lon="7.43773">
        <ele>1419.252</ele>
        <time>2020-06-25T09:02:22Z</time>
      </trkpt>
      <trkpt lat="43.9236" lon="7.43781">
        <ele>1416.645</ele>
        <time>2020-06-25T09:02:38Z</time>
      </trkpt>
      <trkpt lat="43.9236" lon="7.43781">
        <ele>1416.645</ele>
        <time>2020-06-25T09:02:53Z</time>
      </trkpt>
      <trkpt lat="43.9236" lon="7.43781">
        <ele>1416.645</ele>
        <time>2020-06-25T09:03:08Z</time>
      </trkpt>
      <trkpt lat="43.9236" lon="7.43781">
        <ele>1416.645</ele>
        <time>2020-06-25T09:03:24Z</time>
      </trkpt>
      <trkpt lat="43.92361" lon="7.43773">
        <ele>1418.354</ele>
        <time>2020-06-25T09:03:39Z</time>
      </trkpt>
      <trkpt lat="43.92368" lon="7.43767">
        <ele>1421.038</ele>
        <time>2020-06-25T09:03:55Z</time>
      </trkpt>
      <trkpt lat="43.92368" lon="7.43767">
        <ele>1421.038</ele>
        <time>2020-06-25T09:04:11Z</time>
      </trkpt>
      <trkpt lat="43.92368" lon="7.43767">
        <ele>1421.038</ele>
        <time>2020-06-25T09:04:26Z</time>
      </trkpt>
      <trkpt lat="43.92368" lon="7.43767">
        <ele>1421.038</ele>
        <time>2020-06-25T09:04:41Z</time>
      </trkpt>
      <trkpt lat="43.92376" lon="7.4376">
        <ele>1418.785</ele>
        <time>2020-06-25T09:04:57Z</time>
      </trkpt>
      <trkpt lat="43.92388" lon="7.43768">
        <ele>1418.696</ele>
        <time>2020-06-25T09:05:13Z</time>
      </trkpt>
      <trkpt lat="43.9241" lon="7.4378">
        <ele>1422.241</ele>
        <time>2020-06-25T09:05:29Z</time>
      </trkpt>
      <trkpt lat="43.92429" lon="7.43782">
        <ele>1429.654</ele>
        <time>2020-06-25T09:05:45Z</time>
      </trkpt>
      <trkpt lat="43.92436" lon="7.43778">
        <ele>1434.66</ele>
        <time>2020-06-25T09:06:00Z</time>
      </trkpt>
      <trkpt lat="43.92447" lon="7.43765">
        <ele>1441.469</ele>
        <time>2020-06-25T09:06:16Z</time>
      </trkpt>
      <trkpt lat="43.92459" lon="7.43762">
        <ele>1444.079</ele>
        <time>2020-06-25T09:06:31Z</time>
      </trkpt>
      <trkpt lat="43.92474" lon="7.43762">
        <ele>1441.437</ele>
        <time>2020-06-25T09:06:46Z</time>
      </trkpt>
      <trkpt lat="43.92478" lon="7.43757">
        <ele>1442.093</ele>
        <time>2020-06-25T09:07:02Z</time>
      </trkpt>
      <trkpt lat="43.9249" lon="7.43751">
        <ele>1442.84</ele>
        <time>2020-06-25T09:07:18Z</time>
      </trkpt>
      <trkpt lat="43.92513" lon="7.4375">
        <ele>1444.238</ele>
        <time>2020-06-25T09:07:34Z</time>
      </trkpt>
      <trkpt lat="43.92513" lon="7.4375">
        <ele>1444.238</ele>
        <time>2020-06-25T09:07:50Z</time>
      </trkpt>
      <trkpt lat="43.9252" lon="7.43757">
        <ele>1445.089</ele>
        <time>2020-06-25T09:08:06Z</time>
      </trkpt>
      <trkpt lat="43.92533" lon="7.43762">
        <ele>1448</ele>
        <time>2020-06-25T09:08:21Z</time>
      </trkpt>
      <trkpt lat="43.92548" lon="7.43758">
        <ele>1450.457</ele>
        <time>2020-06-25T09:08:36Z</time>
      </trkpt>
      <trkpt lat="43.92561" lon="7.4376">
        <ele>1455.309</ele>
        <time>2020-06-25T09:08:52Z</time>
      </trkpt>
      <trkpt lat="43.92571" lon="7.43759">
        <ele>1457.324</ele>
        <time>2020-06-25T09:09:08Z</time>
      </trkpt>
      <trkpt lat="43.9258" lon="7.4376">
        <ele>1456.879</ele>
        <time>2020-06-25T09:09:24Z</time>
      </trkpt>
      <trkpt lat="43.926" lon="7.43757">
        <ele>1455.311</ele>
        <time>2020-06-25T09:09:40Z</time>
      </trkpt>
      <trkpt lat="43.92615" lon="7.43756">
        <ele>1454.289</ele>
        <time>2020-06-25T09:09:55Z</time>
      </trkpt>
      <trkpt lat="43.92634" lon="7.43754">
        <ele>1454.955</ele>
        <time>2020-06-25T09:10:11Z</time>
      </trkpt>
      <trkpt lat="43.92644" lon="7.4375">
        <ele>1459.207</ele>
        <time>2020-06-25T09:10:26Z</time>
      </trkpt>
      <trkpt lat="43.92654" lon="7.43754">
        <ele>1458.006</ele>
        <time>2020-06-25T09:10:42Z</time>
      </trkpt>
      <trkpt lat="43.92662" lon="7.43757">
        <ele>1457.708</ele>
        <time>2020-06-25T09:10:58Z</time>
      </trkpt>
      <trkpt lat="43.92681" lon="7.43753">
        <ele>1459.89</ele>
        <time>2020-06-25T09:11:13Z</time>
      </trkpt>
      <trkpt lat="43.92698" lon="7.43747">
        <ele>1462.032</ele>
        <time>2020-06-25T09:11:29Z</time>
      </trkpt>
      <trkpt lat="43.92715" lon="7.43742">
        <ele>1464.12</ele>
        <time>2020-06-25T09:11:44Z</time>
      </trkpt>
      <trkpt lat="43.92721" lon="7.43739">
        <ele>1465.238</ele>
        <time>2020-06-25T09:12:00Z</time>
      </trkpt>
      <trkpt lat="43.92732" lon="7.43739">
        <ele>1467.525</ele>
        <time>2020-06-25T09:12:16Z</time>
      </trkpt>
      <trkpt lat="43.92744" lon="7.43739">
        <ele>1467.536</ele>
        <time>2020-06-25T09:12:31Z</time>
      </trkpt>
      <trkpt lat="43.92753" lon="7.43741">
        <ele>1469.466</ele>
        <time>2020-06-25T09:12:47Z</time>
      </trkpt>
      <trkpt lat="43.92763" lon="7.43747">
        <ele>1471.859</ele>
        <time>2020-06-25T09:13:03Z</time>
      </trkpt>
      <trkpt lat="43.92773" lon="7.43748">
        <ele>1471.717</ele>
        <time>2020-06-25T09:13:18Z</time>
      </trkpt>
      <trkpt lat="43.92784" lon="7.43743">
        <ele>1474.404</ele>
        <time>2020-06-25T09:13:33Z</time>
      </trkpt>
      <trkpt lat="43.92789" lon="7.43745">
        <ele>1478.399</ele>
        <time>2020-06-25T09:13:48Z</time>
      </trkpt>
      <trkpt lat="43.92789" lon="7.43745">
        <ele>1478.399</ele>
        <time>2020-06-25T09:14:03Z</time>
      </trkpt>
      <trkpt lat="43.928" lon="7.43751">
        <ele>1477.858</ele>
        <time>2020-06-25T09:14:19Z</time>
      </trkpt>
      <trkpt lat="43.92811" lon="7.43758">
        <ele>1478.471</ele>
        <time>2020-06-25T09:14:34Z</time>
      </trkpt>
      <trkpt lat="43.92817" lon="7.43758">
        <ele>1480.623</ele>
        <time>2020-06-25T09:14:50Z</time>
      </trkpt>
      <trkpt lat="43.92823" lon="7.43759">
        <ele>1482.572</ele>
        <time>2020-06-25T09:15:06Z</time>
      </trkpt>
      <trkpt lat="43.92838" lon="7.43755">
        <ele>1481.509</ele>
        <time>2020-06-25T09:15:22Z</time>
      </trkpt>
      <trkpt lat="43.92841" lon="7.43755">
        <ele>1483.577</ele>
        <time>2020-06-25T09:15:38Z</time>
      </trkpt>
      <trkpt lat="43.92851" lon="7.43758">
        <ele>1484.436</ele>
        <time>2020-06-25T09:15:53Z</time>
      </trkpt>
      <trkpt lat="43.9287" lon="7.43753">
        <ele>1489.266</ele>
        <time>2020-06-25T09:16:09Z</time>
      </trkpt>
      <trkpt lat="43.92873" lon="7.43754">
        <ele>1491.486</ele>
        <time>2020-06-25T09:16:24Z</time>
      </trkpt>
      <trkpt lat="43.92876" lon="7.43755">
        <ele>1491.705</ele>
        <time>2020-06-25T09:16:40Z</time>
      </trkpt>
      <trkpt lat="43.92882" lon="7.43758">
        <ele>1492.076</ele>
        <time>2020-06-25T09:16:56Z</time>
      </trkpt>
      <trkpt lat="43.9291" lon="7.43761">
        <ele>1497.182</ele>
        <time>2020-06-25T09:17:12Z</time>
      </trkpt>
      <trkpt lat="43.92921" lon="7.43758">
        <ele>1503.14</ele>
        <time>2020-06-25T09:17:27Z</time>
      </trkpt>
      <trkpt lat="43.92925" lon="7.43758">
        <ele>1502.759</ele>
        <time>2020-06-25T09:17:42Z</time>
      </trkpt>
      <trkpt lat="43.9294" lon="7.43756">
        <ele>1505.153</ele>
        <time>2020-06-25T09:17:58Z</time>
      </trkpt>
      <trkpt lat="43.92942" lon="7.43754">
        <ele>1505.247</ele>
        <time>2020-06-25T09:18:13Z</time>
      </trkpt>
      <trkpt lat="43.92947" lon="7.43755">
        <ele>1507.821</ele>
        <time>2020-06-25T09:18:28Z</time>
      </trkpt>
      <trkpt lat="43.92954" lon="7.43744">
        <ele>1508.805</ele>
        <time>2020-06-25T09:18:44Z</time>
      </trkpt>
      <trkpt lat="43.92959" lon="7.43736">
        <ele>1511.087</ele>
        <time>2020-06-25T09:19:00Z</time>
      </trkpt>
      <trkpt lat="43.92959" lon="7.43736">
        <ele>1511.087</ele>
        <time>2020-06-25T09:19:15Z</time>
      </trkpt>
      <trkpt lat="43.92963" lon="7.4374">
        <ele>1511.36</ele>
        <time>2020-06-25T09:19:31Z</time>
      </trkpt>
      <trkpt lat="43.92963" lon="7.4374">
        <ele>1511.36</ele>
        <time>2020-06-25T09:19:47Z</time>
      </trkpt>
      <trkpt lat="43.92963" lon="7.4374">
        <ele>1511.36</ele>
        <time>2020-06-25T09:20:03Z</time>
      </trkpt>
      <trkpt lat="43.92963" lon="7.4374">
        <ele>1511.36</ele>
        <time>2020-06-25T09:20:18Z</time>
      </trkpt>
      <trkpt lat="43.92963" lon="7.4374">
        <ele>1511.36</ele>
        <time>2020-06-25T09:20:33Z</time>
      </trkpt>
      <trkpt lat="43.92963" lon="7.4374">
        <ele>1511.36</ele>
        <time>2020-06-25T09:20:48Z</time>
      </trkpt>
      <trkpt lat="43.92963" lon="7.43741">
        <ele>1513.337</ele>
        <time>2020-06-25T09:21:04Z</time>
      </trkpt>
      <trkpt lat="43.92963" lon="7.43741">
        <ele>1513.337</ele>
        <time>2020-06-25T09:21:20Z</time>
      </trkpt>
      <trkpt lat="43.92963" lon="7.43741">
        <ele>1513.337</ele>
        <time>2020-06-25T09:21:36Z</time>
      </trkpt>
      <trkpt lat="43.92965" lon="7.43739">
        <ele>1515.016</ele>
        <time>2020-06-25T09:21:52Z</time>
      </trkpt>
      <trkpt lat="43.92965" lon="7.43739">
        <ele>1515.016</ele>
        <time>2020-06-25T09:22:07Z</time>
      </trkpt>
      <trkpt lat="43.92965" lon="7.43739">
        <ele>1515.016</ele>
        <time>2020-06-25T09:22:23Z</time>
      </trkpt>
      <trkpt lat="43.92965" lon="7.43739">
        <ele>1515.016</ele>
        <time>2020-06-25T09:22:39Z</time>
      </trkpt>
      <trkpt lat="43.92965" lon="7.43739">
        <ele>1515.016</ele>
        <time>2020-06-25T09:22:54Z</time>
      </trkpt>
      <trkpt lat="43.9298" lon="7.43757">
        <ele>1514.906</ele>
        <time>2020-06-25T09:23:10Z</time>
      </trkpt>
      <trkpt lat="43.92982" lon="7.43767">
        <ele>1516.454</ele>
        <time>2020-06-25T09:23:26Z</time>
      </trkpt>
      <trkpt lat="43.92987" lon="7.43772">
        <ele>1520.051</ele>
        <time>2020-06-25T09:23:41Z</time>
      </trkpt>
      <trkpt lat="43.9299" lon="7.43773">
        <ele>1522.664</ele>
        <time>2020-06-25T09:23:56Z</time>
      </trkpt>
      <trkpt lat="43.9299" lon="7.43773">
        <ele>1522.664</ele>
        <time>2020-06-25T09:24:11Z</time>
      </trkpt>
      <trkpt lat="43.92993" lon="7.43773">
        <ele>1523.848</ele>
        <time>2020-06-25T09:24:27Z</time>
      </trkpt>
      <trkpt lat="43.93003" lon="7.43772">
        <ele>1527.479</ele>
        <time>2020-06-25T09:24:43Z</time>
      </trkpt>
      <trkpt lat="43.93013" lon="7.43774">
        <ele>1528.872</ele>
        <time>2020-06-25T09:24:59Z</time>
      </trkpt>
      <trkpt lat="43.93025" lon="7.43776">
        <ele>1534.006</ele>
        <time>2020-06-25T09:25:15Z</time>
      </trkpt>
      <trkpt lat="43.93026" lon="7.43791">
        <ele>1534.085</ele>
        <time>2020-06-25T09:25:31Z</time>
      </trkpt>
      <trkpt lat="43.93028" lon="7.43813">
        <ele>1537.61</ele>
        <time>2020-06-25T09:25:47Z</time>
      </trkpt>
      <trkpt lat="43.93021" lon="7.4383">
        <ele>1542.424</ele>
        <time>2020-06-25T09:26:03Z</time>
      </trkpt>
      <trkpt lat="43.9302" lon="7.43837">
        <ele>1545.245</ele>
        <time>2020-06-25T09:26:18Z</time>
      </trkpt>
      <trkpt lat="43.9302" lon="7.43837">
        <ele>1545.245</ele>
        <time>2020-06-25T09:26:34Z</time>
      </trkpt>
      <trkpt lat="43.9302" lon="7.43837">
        <ele>1545.245</ele>
        <time>2020-06-25T09:26:50Z</time>
      </trkpt>
      <trkpt lat="43.9302" lon="7.43837">
        <ele>1545.245</ele>
        <time>2020-06-25T09:27:05Z</time>
      </trkpt>
      <trkpt lat="43.9302" lon="7.43837">
        <ele>1545.245</ele>
        <time>2020-06-25T09:27:21Z</time>
      </trkpt>
      <trkpt lat="43.9302" lon="7.43837">
        <ele>1545.245</ele>
        <time>2020-06-25T09:27:37Z</time>
      </trkpt>
      <trkpt lat="43.9302" lon="7.43837">
        <ele>1545.245</ele>
        <time>2020-06-25T09:27:53Z</time>
      </trkpt>
      <trkpt lat="43.9302" lon="7.43836">
        <ele>1544.537</ele>
        <time>2020-06-25T09:28:09Z</time>
      </trkpt>
      <trkpt lat="43.9302" lon="7.43836">
        <ele>1544.537</ele>
        <time>2020-06-25T09:28:25Z</time>
      </trkpt>
      <trkpt lat="43.9302" lon="7.43836">
        <ele>1544.537</ele>
        <time>2020-06-25T09:28:41Z</time>
      </trkpt>
      <trkpt lat="43.9302" lon="7.43836">
        <ele>1544.537</ele>
        <time>2020-06-25T09:28:57Z</time>
      </trkpt>
      <trkpt lat="43.9302" lon="7.43836">
        <ele>1544.537</ele>
        <time>2020-06-25T09:29:13Z</time>
      </trkpt>
      <trkpt lat="43.93018" lon="7.43854">
        <ele>1541.804</ele>
        <time>2020-06-25T09:29:29Z</time>
      </trkpt>
      <trkpt lat="43.93016" lon="7.43876">
        <ele>1545.843</ele>
        <time>2020-06-25T09:29:45Z</time>
      </trkpt>
      <trkpt lat="43.93013" lon="7.43889">
        <ele>1548.234</ele>
        <time>2020-06-25T09:30:01Z</time>
      </trkpt>
      <trkpt lat="43.93014" lon="7.43899">
        <ele>1549.826</ele>
        <time>2020-06-25T09:30:16Z</time>
      </trkpt>
      <trkpt lat="43.93017" lon="7.43919">
        <ele>1552.566</ele>
        <time>2020-06-25T09:30:32Z</time>
      </trkpt>
      <trkpt lat="43.93015" lon="7.4392">
        <ele>1552.129</ele>
        <time>2020-06-25T09:30:47Z</time>
      </trkpt>
      <trkpt lat="43.93017" lon="7.43934">
        <ele>1551.859</ele>
        <time>2020-06-25T09:31:03Z</time>
      </trkpt>
      <trkpt lat="43.93022" lon="7.43954">
        <ele>1553.11</ele>
        <time>2020-06-25T09:31:19Z</time>
      </trkpt>
      <trkpt lat="43.93024" lon="7.43974">
        <ele>1559.215</ele>
        <time>2020-06-25T09:31:35Z</time>
      </trkpt>
      <trkpt lat="43.93028" lon="7.43994">
        <ele>1564.288</ele>
        <time>2020-06-25T09:31:51Z</time>
      </trkpt>
      <trkpt lat="43.93032" lon="7.44013">
        <ele>1567.303</ele>
        <time>2020-06-25T09:32:06Z</time>
      </trkpt>
      <trkpt lat="43.93035" lon="7.44017">
        <ele>1567.516</ele>
        <time>2020-06-25T09:32:22Z</time>
      </trkpt>
      <trkpt lat="43.93043" lon="7.44027">
        <ele>1572.128</ele>
        <time>2020-06-25T09:32:38Z</time>
      </trkpt>
      <trkpt lat="43.93057" lon="7.44055">
        <ele>1576.138</ele>
        <time>2020-06-25T09:32:53Z</time>
      </trkpt>
      <trkpt lat="43.9306" lon="7.44075">
        <ele>1576.273</ele>
        <time>2020-06-25T09:33:09Z</time>
      </trkpt>
      <trkpt lat="43.93058" lon="7.44095">
        <ele>1574.958</ele>
        <time>2020-06-25T09:33:25Z</time>
      </trkpt>
      <trkpt lat="43.93057" lon="7.44108">
        <ele>1577.159</ele>
        <time>2020-06-25T09:33:40Z</time>
      </trkpt>
      <trkpt lat="43.93055" lon="7.44115">
        <ele>1576.52</ele>
        <time>2020-06-25T09:33:55Z</time>
      </trkpt>
      <trkpt lat="43.93055" lon="7.44134">
        <ele>1581.037</ele>
        <time>2020-06-25T09:34:11Z</time>
      </trkpt>
      <trkpt lat="43.93057" lon="7.44162">
        <ele>1588.248</ele>
        <time>2020-06-25T09:34:27Z</time>
      </trkpt>
      <trkpt lat="43.93063" lon="7.4418">
        <ele>1591.253</ele>
        <time>2020-06-25T09:34:42Z</time>
      </trkpt>
      <trkpt lat="43.93067" lon="7.44182">
        <ele>1594.054</ele>
        <time>2020-06-25T09:34:57Z</time>
      </trkpt>
      <trkpt lat="43.93072" lon="7.44192">
        <ele>1592.839</ele>
        <time>2020-06-25T09:35:12Z</time>
      </trkpt>
      <trkpt lat="43.93072" lon="7.44219">
        <ele>1588.302</ele>
        <time>2020-06-25T09:35:28Z</time>
      </trkpt>
      <trkpt lat="43.93081" lon="7.44243">
        <ele>1588.755</ele>
        <time>2020-06-25T09:35:43Z</time>
      </trkpt>
      <trkpt lat="43.93091" lon="7.44262">
        <ele>1593.977</ele>
        <time>2020-06-25T09:35:59Z</time>
      </trkpt>
      <trkpt lat="43.93102" lon="7.44275">
        <ele>1594.975</ele>
        <time>2020-06-25T09:36:15Z</time>
      </trkpt>
      <trkpt lat="43.93106" lon="7.44283">
        <ele>1594.672</ele>
        <time>2020-06-25T09:36:30Z</time>
      </trkpt>
      <trkpt lat="43.93112" lon="7.44289">
        <ele>1596.981</ele>
        <time>2020-06-25T09:36:46Z</time>
      </trkpt>
      <trkpt lat="43.93127" lon="7.44291">
        <ele>1601.842</ele>
        <time>2020-06-25T09:37:01Z</time>
      </trkpt>
      <trkpt lat="43.93134" lon="7.44304">
        <ele>1602.245</ele>
        <time>2020-06-25T09:37:16Z</time>
      </trkpt>
      <trkpt lat="43.9314" lon="7.44318">
        <ele>1602.603</ele>
        <time>2020-06-25T09:37:32Z</time>
      </trkpt>
      <trkpt lat="43.93151" lon="7.4434">
        <ele>1601.711</ele>
        <time>2020-06-25T09:37:48Z</time>
      </trkpt>
      <trkpt lat="43.93158" lon="7.44363">
        <ele>1601.408</ele>
        <time>2020-06-25T09:38:04Z</time>
      </trkpt>
      <trkpt lat="43.93166" lon="7.4438">
        <ele>1603.675</ele>
        <time>2020-06-25T09:38:20Z</time>
      </trkpt>
      <trkpt lat="43.93172" lon="7.4439">
        <ele>1608.391</ele>
        <time>2020-06-25T09:38:36Z</time>
      </trkpt>
      <trkpt lat="43.9318" lon="7.44408">
        <ele>1609.197</ele>
        <time>2020-06-25T09:38:51Z</time>
      </trkpt>
      <trkpt lat="43.93194" lon="7.44415">
        <ele>1611.546</ele>
        <time>2020-06-25T09:39:06Z</time>
      </trkpt>
      <trkpt lat="43.93201" lon="7.44426">
        <ele>1614.52</ele>
        <time>2020-06-25T09:39:21Z</time>
      </trkpt>
      <trkpt lat="43.9321" lon="7.44441">
        <ele>1614.746</ele>
        <time>2020-06-25T09:39:37Z</time>
      </trkpt>
      <trkpt lat="43.93219" lon="7.44459">
        <ele>1614.38</ele>
        <time>2020-06-25T09:39:53Z</time>
      </trkpt>
      <trkpt lat="43.9323" lon="7.44481">
        <ele>1614.514</ele>
        <time>2020-06-25T09:40:09Z</time>
      </trkpt>
      <trkpt lat="43.93232" lon="7.44485">
        <ele>1616.347</ele>
        <time>2020-06-25T09:40:25Z</time>
      </trkpt>
      <trkpt lat="43.93232" lon="7.44485">
        <ele>1616.347</ele>
        <time>2020-06-25T09:40:40Z</time>
      </trkpt>
      <trkpt lat="43.93232" lon="7.44485">
        <ele>1616.347</ele>
        <time>2020-06-25T09:40:56Z</time>
      </trkpt>
      <trkpt lat="43.93232" lon="7.44485">
        <ele>1616.347</ele>
        <time>2020-06-25T09:41:11Z</time>
      </trkpt>
      <trkpt lat="43.93232" lon="7.44485">
        <ele>1616.347</ele>
        <time>2020-06-25T09:41:27Z</time>
      </trkpt>
      <trkpt lat="43.93232" lon="7.44485">
        <ele>1616.347</ele>
        <time>2020-06-25T09:41:42Z</time>
      </trkpt>
      <trkpt lat="43.93238" lon="7.44497">
        <ele>1615.899</ele>
        <time>2020-06-25T09:41:57Z</time>
      </trkpt>
      <trkpt lat="43.93248" lon="7.44499">
        <ele>1616.027</ele>
        <time>2020-06-25T09:42:13Z</time>
      </trkpt>
      <trkpt lat="43.9326" lon="7.44504">
        <ele>1617.438</ele>
        <time>2020-06-25T09:42:29Z</time>
      </trkpt>
      <trkpt lat="43.93266" lon="7.44507">
        <ele>1618.163</ele>
        <time>2020-06-25T09:42:44Z</time>
      </trkpt>
      <trkpt lat="43.93279" lon="7.44518">
        <ele>1620.027</ele>
        <time>2020-06-25T09:43:00Z</time>
      </trkpt>
      <trkpt lat="43.93292" lon="7.44526">
        <ele>1621.594</ele>
        <time>2020-06-25T09:43:15Z</time>
      </trkpt>
      <trkpt lat="43.93305" lon="7.44533">
        <ele>1621.383</ele>
        <time>2020-06-25T09:43:30Z</time>
      </trkpt>
      <trkpt lat="43.93315" lon="7.44539">
        <ele>1623.488</ele>
        <time>2020-06-25T09:43:46Z</time>
      </trkpt>
      <trkpt lat="43.93325" lon="7.44543">
        <ele>1625.747</ele>
        <time>2020-06-25T09:44:02Z</time>
      </trkpt>
      <trkpt lat="43.9333" lon="7.44551">
        <ele>1626.658</ele>
        <time>2020-06-25T09:44:18Z</time>
      </trkpt>
      <trkpt lat="43.93343" lon="7.4456">
        <ele>1628.619</ele>
        <time>2020-06-25T09:44:34Z</time>
      </trkpt>
      <trkpt lat="43.9335" lon="7.44567">
        <ele>1631.812</ele>
        <time>2020-06-25T09:44:49Z</time>
      </trkpt>
      <trkpt lat="43.93357" lon="7.44582">
        <ele>1631.114</ele>
        <time>2020-06-25T09:45:05Z</time>
      </trkpt>
      <trkpt lat="43.93366" lon="7.44592">
        <ele>1632.932</ele>
        <time>2020-06-25T09:45:21Z</time>
      </trkpt>
      <trkpt lat="43.93377" lon="7.44609">
        <ele>1629.494</ele>
        <time>2020-06-25T09:45:37Z</time>
      </trkpt>
      <trkpt lat="43.93387" lon="7.44636">
        <ele>1631.484</ele>
        <time>2020-06-25T09:45:53Z</time>
      </trkpt>
      <trkpt lat="43.93399" lon="7.44648">
        <ele>1634.561</ele>
        <time>2020-06-25T09:46:09Z</time>
      </trkpt>
      <trkpt lat="43.93411" lon="7.44649">
        <ele>1638.548</ele>
        <time>2020-06-25T09:46:24Z</time>
      </trkpt>
      <trkpt lat="43.93411" lon="7.44649">
        <ele>1638.905</ele>
        <time>2020-06-25T09:46:39Z</time>
      </trkpt>
      <trkpt lat="43.93411" lon="7.44649">
        <ele>1638.905</ele>
        <time>2020-06-25T09:46:55Z</time>
      </trkpt>
      <trkpt lat="43.93411" lon="7.44649">
        <ele>1638.905</ele>
        <time>2020-06-25T09:47:11Z</time>
      </trkpt>
      <trkpt lat="43.93411" lon="7.44649">
        <ele>1638.905</ele>
        <time>2020-06-25T09:47:27Z</time>
      </trkpt>
      <trkpt lat="43.93411" lon="7.44649">
        <ele>1638.905</ele>
        <time>2020-06-25T09:47:43Z</time>
      </trkpt>
      <trkpt lat="43.93411" lon="7.44649">
        <ele>1638.905</ele>
        <time>2020-06-25T09:47:58Z</time>
      </trkpt>
      <trkpt lat="43.93411" lon="7.44649">
        <ele>1638.905</ele>
        <time>2020-06-25T09:48:14Z</time>
      </trkpt>
      <trkpt lat="43.93411" lon="7.44649">
        <ele>1638.905</ele>
        <time>2020-06-25T09:48:30Z</time>
      </trkpt>
      <trkpt lat="43.93424" lon="7.44657">
        <ele>1641.824</ele>
        <time>2020-06-25T09:48:45Z</time>
      </trkpt>
      <trkpt lat="43.93432" lon="7.44668">
        <ele>1644.12</ele>
        <time>2020-06-25T09:49:00Z</time>
      </trkpt>
      <trkpt lat="43.93447" lon="7.44681">
        <ele>1642.865</ele>
        <time>2020-06-25T09:49:16Z</time>
      </trkpt>
      <trkpt lat="43.93461" lon="7.44698">
        <ele>1644.2</ele>
        <time>2020-06-25T09:49:32Z</time>
      </trkpt>
      <trkpt lat="43.93471" lon="7.44711">
        <ele>1647.646</ele>
        <time>2020-06-25T09:49:47Z</time>
      </trkpt>
      <trkpt lat="43.93486" lon="7.44719">
        <ele>1649.924</ele>
        <time>2020-06-25T09:50:03Z</time>
      </trkpt>
      <trkpt lat="43.93499" lon="7.44715">
        <ele>1648.161</ele>
        <time>2020-06-25T09:50:18Z</time>
      </trkpt>
      <trkpt lat="43.93512" lon="7.44717">
        <ele>1649.197</ele>
        <time>2020-06-25T09:50:33Z</time>
      </trkpt>
      <trkpt lat="43.93527" lon="7.44719">
        <ele>1651.575</ele>
        <time>2020-06-25T09:50:49Z</time>
      </trkpt>
      <trkpt lat="43.93541" lon="7.44718">
        <ele>1652.21</ele>
        <time>2020-06-25T09:51:05Z</time>
      </trkpt>
      <trkpt lat="43.93552" lon="7.4472">
        <ele>1651.709</ele>
        <time>2020-06-25T09:51:20Z</time>
      </trkpt>
      <trkpt lat="43.93568" lon="7.44722">
        <ele>1651.898</ele>
        <time>2020-06-25T09:51:35Z</time>
      </trkpt>
      <trkpt lat="43.93583" lon="7.44731">
        <ele>1652.048</ele>
        <time>2020-06-25T09:51:51Z</time>
      </trkpt>
      <trkpt lat="43.93595" lon="7.44739">
        <ele>1653.636</ele>
        <time>2020-06-25T09:52:06Z</time>
      </trkpt>
      <trkpt lat="43.93596" lon="7.44739">
        <ele>1653.798</ele>
        <time>2020-06-25T09:52:22Z</time>
      </trkpt>
      <trkpt lat="43.93596" lon="7.44739">
        <ele>1653.798</ele>
        <time>2020-06-25T09:52:37Z</time>
      </trkpt>
      <trkpt lat="43.93596" lon="7.44739">
        <ele>1653.798</ele>
        <time>2020-06-25T09:52:52Z</time>
      </trkpt>
      <trkpt lat="43.93598" lon="7.44737">
        <ele>1654.204</ele>
        <time>2020-06-25T09:53:08Z</time>
      </trkpt>
      <trkpt lat="43.93609" lon="7.44719">
        <ele>1656.31</ele>
        <time>2020-06-25T09:53:24Z</time>
      </trkpt>
      <trkpt lat="43.93619" lon="7.44702">
        <ele>1658.142</ele>
        <time>2020-06-25T09:53:39Z</time>
      </trkpt>
      <trkpt lat="43.9363" lon="7.44685">
        <ele>1663.18</ele>
        <time>2020-06-25T09:53:54Z</time>
      </trkpt>
      <trkpt lat="43.93633" lon="7.4467">
        <ele>1665.992</ele>
        <time>2020-06-25T09:54:10Z</time>
      </trkpt>
      <trkpt lat="43.93637" lon="7.44652">
        <ele>1666.919</ele>
        <time>2020-06-25T09:54:25Z</time>
      </trkpt>
      <trkpt lat="43.93642" lon="7.44637">
        <ele>1665.79</ele>
        <time>2020-06-25T09:54:41Z</time>
      </trkpt>
      <trkpt lat="43.93643" lon="7.44621">
        <ele>1666.598</ele>
        <time>2020-06-25T09:54:56Z</time>
      </trkpt>
      <trkpt lat="43.93645" lon="7.44604">
        <ele>1670.711</ele>
        <time>2020-06-25T09:55:12Z</time>
      </trkpt>
      <trkpt lat="43.93646" lon="7.44585">
        <ele>1672.728</ele>
        <time>2020-06-25T09:55:27Z</time>
      </trkpt>
      <trkpt lat="43.93652" lon="7.44563">
        <ele>1676.171</ele>
        <time>2020-06-25T09:55:43Z</time>
      </trkpt>
      <trkpt lat="43.93652" lon="7.44547">
        <ele>1676.181</ele>
        <time>2020-06-25T09:55:59Z</time>
      </trkpt>
      <trkpt lat="43.93658" lon="7.44529">
        <ele>1676.648</ele>
        <time>2020-06-25T09:56:15Z</time>
      </trkpt>
      <trkpt lat="43.93663" lon="7.44511">
        <ele>1677.317</ele>
        <time>2020-06-25T09:56:31Z</time>
      </trkpt>
      <trkpt lat="43.93668" lon="7.44496">
        <ele>1675.976</ele>
        <time>2020-06-25T09:56:47Z</time>
      </trkpt>
      <trkpt lat="43.93673" lon="7.44476">
        <ele>1677.808</ele>
        <time>2020-06-25T09:57:03Z</time>
      </trkpt>
      <trkpt lat="43.93677" lon="7.44462">
        <ele>1678.204</ele>
        <time>2020-06-25T09:57:19Z</time>
      </trkpt>
      <trkpt lat="43.93684" lon="7.44444">
        <ele>1680.414</ele>
        <time>2020-06-25T09:57:35Z</time>
      </trkpt>
      <trkpt lat="43.9369" lon="7.44428">
        <ele>1681.979</ele>
        <time>2020-06-25T09:57:51Z</time>
      </trkpt>
      <trkpt lat="43.93698" lon="7.44415">
        <ele>1682.605</ele>
        <time>2020-06-25T09:58:07Z</time>
      </trkpt>
      <trkpt lat="43.93704" lon="7.44396">
        <ele>1685.503</ele>
        <time>2020-06-25T09:58:22Z</time>
      </trkpt>
      <trkpt lat="43.93712" lon="7.44381">
        <ele>1688.445</ele>
        <time>2020-06-25T09:58:38Z</time>
      </trkpt>
      <trkpt lat="43.93717" lon="7.44364">
        <ele>1689.684</ele>
        <time>2020-06-25T09:58:53Z</time>
      </trkpt>
      <trkpt lat="43.93722" lon="7.44351">
        <ele>1691.922</ele>
        <time>2020-06-25T09:59:09Z</time>
      </trkpt>
      <trkpt lat="43.93722" lon="7.44351">
        <ele>1691.922</ele>
        <time>2020-06-25T09:59:24Z</time>
      </trkpt>
      <trkpt lat="43.93722" lon="7.44351">
        <ele>1691.922</ele>
        <time>2020-06-25T09:59:40Z</time>
      </trkpt>
      <trkpt lat="43.93722" lon="7.44351">
        <ele>1691.922</ele>
        <time>2020-06-25T09:59:56Z</time>
      </trkpt>
      <trkpt lat="43.9372" lon="7.44351">
        <ele>1692.45</ele>
        <time>2020-06-25T10:00:11Z</time>
      </trkpt>
      <trkpt lat="43.9372" lon="7.44351">
        <ele>1692.45</ele>
        <time>2020-06-25T10:00:27Z</time>
      </trkpt>
      <trkpt lat="43.93722" lon="7.44354">
        <ele>1692.718</ele>
        <time>2020-06-25T10:00:42Z</time>
      </trkpt>
      <trkpt lat="43.93723" lon="7.44354">
        <ele>1692.755</ele>
        <time>2020-06-25T10:00:58Z</time>
      </trkpt>
      <trkpt lat="43.93726" lon="7.44354">
        <ele>1692.92</ele>
        <time>2020-06-25T10:01:13Z</time>
      </trkpt>
      <trkpt lat="43.93724" lon="7.44355">
        <ele>1692.352</ele>
        <time>2020-06-25T10:01:29Z</time>
      </trkpt>
      <trkpt lat="43.93722" lon="7.44358">
        <ele>1692.756</ele>
        <time>2020-06-25T10:01:44Z</time>
      </trkpt>
      <trkpt lat="43.93722" lon="7.44358">
        <ele>1692.756</ele>
        <time>2020-06-25T10:01:59Z</time>
      </trkpt>
      <trkpt lat="43.93722" lon="7.44358">
        <ele>1692.756</ele>
        <time>2020-06-25T10:02:15Z</time>
      </trkpt>
      <trkpt lat="43.93722" lon="7.44358">
        <ele>1692.756</ele>
        <time>2020-06-25T10:02:31Z</time>
      </trkpt>
      <trkpt lat="43.93724" lon="7.44359">
        <ele>1692.548</ele>
        <time>2020-06-25T10:02:46Z</time>
      </trkpt>
      <trkpt lat="43.93724" lon="7.4436">
        <ele>1692.613</ele>
        <time>2020-06-25T10:03:02Z</time>
      </trkpt>
      <trkpt lat="43.93724" lon="7.4436">
        <ele>1692.613</ele>
        <time>2020-06-25T10:03:17Z</time>
      </trkpt>
      <trkpt lat="43.93724" lon="7.4436">
        <ele>1692.613</ele>
        <time>2020-06-25T10:03:33Z</time>
      </trkpt>
      <trkpt lat="43.93724" lon="7.4436">
        <ele>1692.613</ele>
        <time>2020-06-25T10:03:48Z</time>
      </trkpt>
      <trkpt lat="43.93724" lon="7.4436">
        <ele>1692.613</ele>
        <time>2020-06-25T10:04:04Z</time>
      </trkpt>
      <trkpt lat="43.93724" lon="7.4436">
        <ele>1692.613</ele>
        <time>2020-06-25T10:04:19Z</time>
      </trkpt>
      <trkpt lat="43.93724" lon="7.4436">
        <ele>1692.613</ele>
        <time>2020-06-25T10:04:35Z</time>
      </trkpt>
      <trkpt lat="43.93724" lon="7.4436">
        <ele>1692.613</ele>
        <time>2020-06-25T10:04:51Z</time>
      </trkpt>
      <trkpt lat="43.93724" lon="7.4436">
        <ele>1692.613</ele>
        <time>2020-06-25T10:05:07Z</time>
      </trkpt>
      <trkpt lat="43.93724" lon="7.4436">
        <ele>1692.613</ele>
        <time>2020-06-25T10:05:22Z</time>
      </trkpt>
      <trkpt lat="43.93724" lon="7.4436">
        <ele>1692.613</ele>
        <time>2020-06-25T10:05:37Z</time>
      </trkpt>
      <trkpt lat="43.93723" lon="7.44358">
        <ele>1692.71</ele>
        <time>2020-06-25T10:05:53Z</time>
      </trkpt>
      <trkpt lat="43.93723" lon="7.44358">
        <ele>1692.71</ele>
        <time>2020-06-25T10:06:08Z</time>
      </trkpt>
      <trkpt lat="43.93723" lon="7.44358">
        <ele>1692.71</ele>
        <time>2020-06-25T10:06:24Z</time>
      </trkpt>
      <trkpt lat="43.93723" lon="7.44358">
        <ele>1692.71</ele>
        <time>2020-06-25T10:06:39Z</time>
      </trkpt>
      <trkpt lat="43.93723" lon="7.44358">
        <ele>1692.71</ele>
        <time>2020-06-25T10:06:55Z</time>
      </trkpt>
      <trkpt lat="43.93723" lon="7.44358">
        <ele>1692.71</ele>
        <time>2020-06-25T10:07:10Z</time>
      </trkpt>
      <trkpt lat="43.93723" lon="7.44358">
        <ele>1692.71</ele>
        <time>2020-06-25T10:07:26Z</time>
      </trkpt>
      <trkpt lat="43.93723" lon="7.44358">
        <ele>1692.71</ele>
        <time>2020-06-25T10:07:41Z</time>
      </trkpt>
      <trkpt lat="43.93723" lon="7.44358">
        <ele>1692.71</ele>
        <time>2020-06-25T10:07:56Z</time>
      </trkpt>
      <trkpt lat="43.93723" lon="7.44358">
        <ele>1692.71</ele>
        <time>2020-06-25T10:08:12Z</time>
      </trkpt>
      <trkpt lat="43.93723" lon="7.44358">
        <ele>1692.71</ele>
        <time>2020-06-25T10:08:27Z</time>
      </trkpt>
      <trkpt lat="43.93723" lon="7.44358">
        <ele>1692.71</ele>
        <time>2020-06-25T10:08:42Z</time>
      </trkpt>
      <trkpt lat="43.93723" lon="7.44358">
        <ele>1692.71</ele>
        <time>2020-06-25T10:08:57Z</time>
      </trkpt>
      <trkpt lat="43.93723" lon="7.44358">
        <ele>1692.71</ele>
        <time>2020-06-25T10:09:13Z</time>
      </trkpt>
      <trkpt lat="43.93723" lon="7.44358">
        <ele>1692.71</ele>
        <time>2020-06-25T10:09:29Z</time>
      </trkpt>
      <trkpt lat="43.93723" lon="7.44358">
        <ele>1692.71</ele>
        <time>2020-06-25T10:09:45Z</time>
      </trkpt>
      <trkpt lat="43.93723" lon="7.44358">
        <ele>1692.71</ele>
        <time>2020-06-25T10:10:01Z</time>
      </trkpt>
      <trkpt lat="43.93723" lon="7.44358">
        <ele>1692.71</ele>
        <time>2020-06-25T10:10:17Z</time>
      </trkpt>
      <trkpt lat="43.93723" lon="7.44358">
        <ele>1692.71</ele>
        <time>2020-06-25T10:10:33Z</time>
      </trkpt>
      <trkpt lat="43.93723" lon="7.44358">
        <ele>1692.71</ele>
        <time>2020-06-25T10:10:48Z</time>
      </trkpt>
      <trkpt lat="43.93723" lon="7.44358">
        <ele>1692.71</ele>
        <time>2020-06-25T10:11:04Z</time>
      </trkpt>
      <trkpt lat="43.93723" lon="7.44358">
        <ele>1692.71</ele>
        <time>2020-06-25T10:11:19Z</time>
      </trkpt>
      <trkpt lat="43.93724" lon="7.44355">
        <ele>1692.422</ele>
        <time>2020-06-25T10:11:35Z</time>
      </trkpt>
      <trkpt lat="43.93724" lon="7.44354">
        <ele>1692.218</ele>
        <time>2020-06-25T10:11:50Z</time>
      </trkpt>
      <trkpt lat="43.93724" lon="7.44354">
        <ele>1692.218</ele>
        <time>2020-06-25T10:12:06Z</time>
      </trkpt>
      <trkpt lat="43.93724" lon="7.44354">
        <ele>1692.218</ele>
        <time>2020-06-25T10:12:21Z</time>
      </trkpt>
      <trkpt lat="43.93724" lon="7.44354">
        <ele>1692.218</ele>
        <time>2020-06-25T10:12:36Z</time>
      </trkpt>
      <trkpt lat="43.93724" lon="7.44354">
        <ele>1692.218</ele>
        <time>2020-06-25T10:12:51Z</time>
      </trkpt>
      <trkpt lat="43.93724" lon="7.44354">
        <ele>1692.218</ele>
        <time>2020-06-25T10:13:07Z</time>
      </trkpt>
      <trkpt lat="43.93724" lon="7.44354">
        <ele>1692.218</ele>
        <time>2020-06-25T10:13:22Z</time>
      </trkpt>
      <trkpt lat="43.93724" lon="7.44354">
        <ele>1692.218</ele>
        <time>2020-06-25T10:13:37Z</time>
      </trkpt>
      <trkpt lat="43.93724" lon="7.44354">
        <ele>1692.218</ele>
        <time>2020-06-25T10:13:53Z</time>
      </trkpt>
      <trkpt lat="43.93724" lon="7.44354">
        <ele>1692.218</ele>
        <time>2020-06-25T10:14:09Z</time>
      </trkpt>
      <trkpt lat="43.93724" lon="7.44354">
        <ele>1692.218</ele>
        <time>2020-06-25T10:14:24Z</time>
      </trkpt>
      <trkpt lat="43.93724" lon="7.44354">
        <ele>1692.218</ele>
        <time>2020-06-25T10:14:40Z</time>
      </trkpt>
      <trkpt lat="43.93724" lon="7.44354">
        <ele>1692.218</ele>
        <time>2020-06-25T10:14:55Z</time>
      </trkpt>
      <trkpt lat="43.93724" lon="7.44354">
        <ele>1692.218</ele>
        <time>2020-06-25T10:15:11Z</time>
      </trkpt>
      <trkpt lat="43.93724" lon="7.44354">
        <ele>1692.218</ele>
        <time>2020-06-25T10:15:27Z</time>
      </trkpt>
      <trkpt lat="43.93724" lon="7.44354">
        <ele>1692.218</ele>
        <time>2020-06-25T10:15:42Z</time>
      </trkpt>
      <trkpt lat="43.93724" lon="7.44354">
        <ele>1692.218</ele>
        <time>2020-06-25T10:15:58Z</time>
      </trkpt>
      <trkpt lat="43.93724" lon="7.44355">
        <ele>1692.128</ele>
        <time>2020-06-25T10:16:13Z</time>
      </trkpt>
      <trkpt lat="43.93724" lon="7.44355">
        <ele>1692.128</ele>
        <time>2020-06-25T10:16:29Z</time>
      </trkpt>
      <trkpt lat="43.93724" lon="7.44355">
        <ele>1692.128</ele>
        <time>2020-06-25T10:16:44Z</time>
      </trkpt>
      <trkpt lat="43.93724" lon="7.44355">
        <ele>1692.128</ele>
        <time>2020-06-25T10:16:59Z</time>
      </trkpt>
      <trkpt lat="43.93724" lon="7.44355">
        <ele>1692.128</ele>
        <time>2020-06-25T10:17:14Z</time>
      </trkpt>
      <trkpt lat="43.93724" lon="7.44355">
        <ele>1692.128</ele>
        <time>2020-06-25T10:17:30Z</time>
      </trkpt>
      <trkpt lat="43.93724" lon="7.44355">
        <ele>1692.128</ele>
        <time>2020-06-25T10:17:46Z</time>
      </trkpt>
      <trkpt lat="43.93724" lon="7.44355">
        <ele>1692.128</ele>
        <time>2020-06-25T10:18:02Z</time>
      </trkpt>
      <trkpt lat="43.93724" lon="7.44355">
        <ele>1692.128</ele>
        <time>2020-06-25T10:18:18Z</time>
      </trkpt>
      <trkpt lat="43.93724" lon="7.44355">
        <ele>1692.128</ele>
        <time>2020-06-25T10:18:33Z</time>
      </trkpt>
      <trkpt lat="43.93723" lon="7.44355">
        <ele>1692.13</ele>
        <time>2020-06-25T10:18:48Z</time>
      </trkpt>
      <trkpt lat="43.93722" lon="7.44355">
        <ele>1691.969</ele>
        <time>2020-06-25T10:19:03Z</time>
      </trkpt>
      <trkpt lat="43.93722" lon="7.44355">
        <ele>1691.969</ele>
        <time>2020-06-25T10:19:19Z</time>
      </trkpt>
      <trkpt lat="43.93722" lon="7.44355">
        <ele>1691.969</ele>
        <time>2020-06-25T10:19:35Z</time>
      </trkpt>
      <trkpt lat="43.93722" lon="7.44355">
        <ele>1691.969</ele>
        <time>2020-06-25T10:19:51Z</time>
      </trkpt>
      <trkpt lat="43.93722" lon="7.44355">
        <ele>1691.969</ele>
        <time>2020-06-25T10:20:06Z</time>
      </trkpt>
      <trkpt lat="43.93721" lon="7.44357">
        <ele>1691.107</ele>
        <time>2020-06-25T10:20:22Z</time>
      </trkpt>
      <trkpt lat="43.93721" lon="7.44357">
        <ele>1691.107</ele>
        <time>2020-06-25T10:20:37Z</time>
      </trkpt>
      <trkpt lat="43.93722" lon="7.44357">
        <ele>1691.572</ele>
        <time>2020-06-25T10:20:53Z</time>
      </trkpt>
      <trkpt lat="43.93722" lon="7.4436">
        <ele>1691.281</ele>
        <time>2020-06-25T10:21:08Z</time>
      </trkpt>
      <trkpt lat="43.93722" lon="7.4436">
        <ele>1691.281</ele>
        <time>2020-06-25T10:21:24Z</time>
      </trkpt>
      <trkpt lat="43.93722" lon="7.4436">
        <ele>1691.281</ele>
        <time>2020-06-25T10:21:40Z</time>
      </trkpt>
      <trkpt lat="43.93722" lon="7.4436">
        <ele>1691.281</ele>
        <time>2020-06-25T10:21:56Z</time>
      </trkpt>
      <trkpt lat="43.93722" lon="7.4436">
        <ele>1691.281</ele>
        <time>2020-06-25T10:22:12Z</time>
      </trkpt>
      <trkpt lat="43.93722" lon="7.4436">
        <ele>1691.281</ele>
        <time>2020-06-25T10:22:28Z</time>
      </trkpt>
      <trkpt lat="43.93722" lon="7.4436">
        <ele>1691.281</ele>
        <time>2020-06-25T10:22:43Z</time>
      </trkpt>
      <trkpt lat="43.93722" lon="7.4436">
        <ele>1691.281</ele>
        <time>2020-06-25T10:22:59Z</time>
      </trkpt>
      <trkpt lat="43.93722" lon="7.4436">
        <ele>1691.281</ele>
        <time>2020-06-25T10:23:15Z</time>
      </trkpt>
      <trkpt lat="43.93722" lon="7.4436">
        <ele>1691.281</ele>
        <time>2020-06-25T10:23:30Z</time>
      </trkpt>
      <trkpt lat="43.93722" lon="7.4436">
        <ele>1691.281</ele>
        <time>2020-06-25T10:23:46Z</time>
      </trkpt>
      <trkpt lat="43.93722" lon="7.4436">
        <ele>1691.281</ele>
        <time>2020-06-25T10:24:02Z</time>
      </trkpt>
      <trkpt lat="43.93722" lon="7.4436">
        <ele>1691.281</ele>
        <time>2020-06-25T10:24:17Z</time>
      </trkpt>
      <trkpt lat="43.93722" lon="7.4436">
        <ele>1691.281</ele>
        <time>2020-06-25T10:24:33Z</time>
      </trkpt>
      <trkpt lat="43.93722" lon="7.4436">
        <ele>1691.281</ele>
        <time>2020-06-25T10:24:49Z</time>
      </trkpt>
      <trkpt lat="43.93722" lon="7.4436">
        <ele>1691.281</ele>
        <time>2020-06-25T10:25:05Z</time>
      </trkpt>
      <trkpt lat="43.93722" lon="7.4436">
        <ele>1691.281</ele>
        <time>2020-06-25T10:25:21Z</time>
      </trkpt>
      <trkpt lat="43.93722" lon="7.4436">
        <ele>1691.281</ele>
        <time>2020-06-25T10:25:36Z</time>
      </trkpt>
      <trkpt lat="43.93722" lon="7.4436">
        <ele>1691.281</ele>
        <time>2020-06-25T10:25:52Z</time>
      </trkpt>
      <trkpt lat="43.93722" lon="7.4436">
        <ele>1691.281</ele>
        <time>2020-06-25T10:26:07Z</time>
      </trkpt>
      <trkpt lat="43.93722" lon="7.4436">
        <ele>1691.281</ele>
        <time>2020-06-25T10:26:23Z</time>
      </trkpt>
      <trkpt lat="43.93722" lon="7.4436">
        <ele>1691.281</ele>
        <time>2020-06-25T10:26:38Z</time>
      </trkpt>
      <trkpt lat="43.93722" lon="7.4436">
        <ele>1691.281</ele>
        <time>2020-06-25T10:26:54Z</time>
      </trkpt>
      <trkpt lat="43.93722" lon="7.4436">
        <ele>1691.281</ele>
        <time>2020-06-25T10:27:09Z</time>
      </trkpt>
      <trkpt lat="43.93722" lon="7.4436">
        <ele>1691.281</ele>
        <time>2020-06-25T10:27:25Z</time>
      </trkpt>
      <trkpt lat="43.93722" lon="7.4436">
        <ele>1691.281</ele>
        <time>2020-06-25T10:27:40Z</time>
      </trkpt>
      <trkpt lat="43.93722" lon="7.4436">
        <ele>1691.281</ele>
        <time>2020-06-25T10:27:56Z</time>
      </trkpt>
      <trkpt lat="43.93722" lon="7.4436">
        <ele>1691.281</ele>
        <time>2020-06-25T10:28:12Z</time>
      </trkpt>
      <trkpt lat="43.93722" lon="7.4436">
        <ele>1691.281</ele>
        <time>2020-06-25T10:28:28Z</time>
      </trkpt>
      <trkpt lat="43.93722" lon="7.4436">
        <ele>1691.281</ele>
        <time>2020-06-25T10:28:44Z</time>
      </trkpt>
      <trkpt lat="43.93722" lon="7.4436">
        <ele>1691.281</ele>
        <time>2020-06-25T10:28:59Z</time>
      </trkpt>
      <trkpt lat="43.93722" lon="7.4436">
        <ele>1691.281</ele>
        <time>2020-06-25T10:29:15Z</time>
      </trkpt>
      <trkpt lat="43.93722" lon="7.4436">
        <ele>1691.281</ele>
        <time>2020-06-25T10:29:31Z</time>
      </trkpt>
      <trkpt lat="43.93722" lon="7.4436">
        <ele>1691.281</ele>
        <time>2020-06-25T10:29:47Z</time>
      </trkpt>
      <trkpt lat="43.93722" lon="7.4436">
        <ele>1691.281</ele>
        <time>2020-06-25T10:30:03Z</time>
      </trkpt>
      <trkpt lat="43.93722" lon="7.4436">
        <ele>1691.281</ele>
        <time>2020-06-25T10:30:18Z</time>
      </trkpt>
      <trkpt lat="43.93722" lon="7.4436">
        <ele>1691.281</ele>
        <time>2020-06-25T10:30:34Z</time>
      </trkpt>
      <trkpt lat="43.93723" lon="7.44359">
        <ele>1690.486</ele>
        <time>2020-06-25T10:30:50Z</time>
      </trkpt>
      <trkpt lat="43.93723" lon="7.44359">
        <ele>1690.486</ele>
        <time>2020-06-25T10:31:06Z</time>
      </trkpt>
      <trkpt lat="43.93723" lon="7.44359">
        <ele>1690.486</ele>
        <time>2020-06-25T10:31:22Z</time>
      </trkpt>
      <trkpt lat="43.93723" lon="7.44359">
        <ele>1690.486</ele>
        <time>2020-06-25T10:31:38Z</time>
      </trkpt>
      <trkpt lat="43.93723" lon="7.44359">
        <ele>1690.486</ele>
        <time>2020-06-25T10:31:53Z</time>
      </trkpt>
      <trkpt lat="43.93723" lon="7.44359">
        <ele>1690.486</ele>
        <time>2020-06-25T10:32:08Z</time>
      </trkpt>
      <trkpt lat="43.93723" lon="7.44359">
        <ele>1690.486</ele>
        <time>2020-06-25T10:32:24Z</time>
      </trkpt>
      <trkpt lat="43.93723" lon="7.44359">
        <ele>1690.486</ele>
        <time>2020-06-25T10:32:40Z</time>
      </trkpt>
      <trkpt lat="43.93723" lon="7.44359">
        <ele>1690.486</ele>
        <time>2020-06-25T10:32:56Z</time>
      </trkpt>
      <trkpt lat="43.93723" lon="7.44359">
        <ele>1690.486</ele>
        <time>2020-06-25T10:33:12Z</time>
      </trkpt>
      <trkpt lat="43.93723" lon="7.44359">
        <ele>1690.486</ele>
        <time>2020-06-25T10:33:28Z</time>
      </trkpt>
      <trkpt lat="43.93723" lon="7.44359">
        <ele>1690.486</ele>
        <time>2020-06-25T10:33:43Z</time>
      </trkpt>
      <trkpt lat="43.93723" lon="7.44359">
        <ele>1690.486</ele>
        <time>2020-06-25T10:33:59Z</time>
      </trkpt>
      <trkpt lat="43.93723" lon="7.44359">
        <ele>1690.486</ele>
        <time>2020-06-25T10:34:15Z</time>
      </trkpt>
      <trkpt lat="43.93723" lon="7.44359">
        <ele>1690.486</ele>
        <time>2020-06-25T10:34:30Z</time>
      </trkpt>
      <trkpt lat="43.93723" lon="7.44359">
        <ele>1690.486</ele>
        <time>2020-06-25T10:34:45Z</time>
      </trkpt>
      <trkpt lat="43.93723" lon="7.44359">
        <ele>1690.486</ele>
        <time>2020-06-25T10:35:01Z</time>
      </trkpt>
      <trkpt lat="43.93723" lon="7.44359">
        <ele>1690.486</ele>
        <time>2020-06-25T10:35:16Z</time>
      </trkpt>
      <trkpt lat="43.93723" lon="7.44359">
        <ele>1690.486</ele>
        <time>2020-06-25T10:35:32Z</time>
      </trkpt>
      <trkpt lat="43.93723" lon="7.44359">
        <ele>1690.486</ele>
        <time>2020-06-25T10:35:48Z</time>
      </trkpt>
      <trkpt lat="43.93723" lon="7.44359">
        <ele>1690.486</ele>
        <time>2020-06-25T10:36:04Z</time>
      </trkpt>
      <trkpt lat="43.93723" lon="7.44359">
        <ele>1690.486</ele>
        <time>2020-06-25T10:36:19Z</time>
      </trkpt>
      <trkpt lat="43.93723" lon="7.44358">
        <ele>1690.671</ele>
        <time>2020-06-25T10:36:35Z</time>
      </trkpt>
      <trkpt lat="43.93723" lon="7.44358">
        <ele>1690.671</ele>
        <time>2020-06-25T10:36:50Z</time>
      </trkpt>
      <trkpt lat="43.93723" lon="7.44358">
        <ele>1690.671</ele>
        <time>2020-06-25T10:37:05Z</time>
      </trkpt>
      <trkpt lat="43.93723" lon="7.44358">
        <ele>1690.671</ele>
        <time>2020-06-25T10:37:21Z</time>
      </trkpt>
      <trkpt lat="43.93723" lon="7.44358">
        <ele>1690.671</ele>
        <time>2020-06-25T10:37:36Z</time>
      </trkpt>
      <trkpt lat="43.93723" lon="7.44358">
        <ele>1690.671</ele>
        <time>2020-06-25T10:37:52Z</time>
      </trkpt>
      <trkpt lat="43.93724" lon="7.44358">
        <ele>1687.938</ele>
        <time>2020-06-25T10:38:07Z</time>
      </trkpt>
      <trkpt lat="43.93724" lon="7.44358">
        <ele>1687.938</ele>
        <time>2020-06-25T10:38:23Z</time>
      </trkpt>
      <trkpt lat="43.93724" lon="7.44358">
        <ele>1687.938</ele>
        <time>2020-06-25T10:38:39Z</time>
      </trkpt>
      <trkpt lat="43.93724" lon="7.44357">
        <ele>1689.097</ele>
        <time>2020-06-25T10:38:54Z</time>
      </trkpt>
      <trkpt lat="43.93724" lon="7.44356">
        <ele>1690.852</ele>
        <time>2020-06-25T10:39:10Z</time>
      </trkpt>
      <trkpt lat="43.93726" lon="7.44358">
        <ele>1689.312</ele>
        <time>2020-06-25T10:39:26Z</time>
      </trkpt>
      <trkpt lat="43.93726" lon="7.44358">
        <ele>1689.312</ele>
        <time>2020-06-25T10:39:42Z</time>
      </trkpt>
      <trkpt lat="43.93726" lon="7.44356">
        <ele>1690.212</ele>
        <time>2020-06-25T10:39:57Z</time>
      </trkpt>
      <trkpt lat="43.93728" lon="7.44356">
        <ele>1690.437</ele>
        <time>2020-06-25T10:40:13Z</time>
      </trkpt>
      <trkpt lat="43.93728" lon="7.44356">
        <ele>1690.437</ele>
        <time>2020-06-25T10:40:28Z</time>
      </trkpt>
      <trkpt lat="43.93728" lon="7.44356">
        <ele>1690.437</ele>
        <time>2020-06-25T10:40:44Z</time>
      </trkpt>
      <trkpt lat="43.9373" lon="7.4436">
        <ele>1689.191</ele>
        <time>2020-06-25T10:41:00Z</time>
      </trkpt>
      <trkpt lat="43.93747" lon="7.44373">
        <ele>1688.133</ele>
        <time>2020-06-25T10:41:15Z</time>
      </trkpt>
      <trkpt lat="43.93759" lon="7.44382">
        <ele>1688.331</ele>
        <time>2020-06-25T10:41:30Z</time>
      </trkpt>
      <trkpt lat="43.93767" lon="7.44386">
        <ele>1689.516</ele>
        <time>2020-06-25T10:41:45Z</time>
      </trkpt>
      <trkpt lat="43.93778" lon="7.44396">
        <ele>1688.228</ele>
        <time>2020-06-25T10:42:01Z</time>
      </trkpt>
      <trkpt lat="43.93792" lon="7.44412">
        <ele>1692.007</ele>
        <time>2020-06-25T10:42:16Z</time>
      </trkpt>
      <trkpt lat="43.93803" lon="7.44441">
        <ele>1695.481</ele>
        <time>2020-06-25T10:42:32Z</time>
      </trkpt>
      <trkpt lat="43.93807" lon="7.44444">
        <ele>1696.103</ele>
        <time>2020-06-25T10:42:47Z</time>
      </trkpt>
      <trkpt lat="43.93811" lon="7.4445">
        <ele>1696.712</ele>
        <time>2020-06-25T10:43:02Z</time>
      </trkpt>
      <trkpt lat="43.93809" lon="7.44474">
        <ele>1696.415</ele>
        <time>2020-06-25T10:43:18Z</time>
      </trkpt>
      <trkpt lat="43.93817" lon="7.44487">
        <ele>1698.853</ele>
        <time>2020-06-25T10:43:33Z</time>
      </trkpt>
      <trkpt lat="43.93823" lon="7.44507">
        <ele>1697.863</ele>
        <time>2020-06-25T10:43:49Z</time>
      </trkpt>
      <trkpt lat="43.93827" lon="7.44519">
        <ele>1699.085</ele>
        <time>2020-06-25T10:44:05Z</time>
      </trkpt>
      <trkpt lat="43.93846" lon="7.44542">
        <ele>1701.414</ele>
        <time>2020-06-25T10:44:21Z</time>
      </trkpt>
      <trkpt lat="43.93853" lon="7.44568">
        <ele>1701.868</ele>
        <time>2020-06-25T10:44:36Z</time>
      </trkpt>
      <trkpt lat="43.93862" lon="7.44574">
        <ele>1705.403</ele>
        <time>2020-06-25T10:44:51Z</time>
      </trkpt>
      <trkpt lat="43.93874" lon="7.44582">
        <ele>1707.748</ele>
        <time>2020-06-25T10:45:06Z</time>
      </trkpt>
      <trkpt lat="43.93876" lon="7.44601">
        <ele>1710.116</ele>
        <time>2020-06-25T10:45:22Z</time>
      </trkpt>
      <trkpt lat="43.93897" lon="7.44618">
        <ele>1707.963</ele>
        <time>2020-06-25T10:45:38Z</time>
      </trkpt>
      <trkpt lat="43.93896" lon="7.44626">
        <ele>1708.545</ele>
        <time>2020-06-25T10:45:53Z</time>
      </trkpt>
      <trkpt lat="43.93915" lon="7.44645">
        <ele>1710.221</ele>
        <time>2020-06-25T10:46:09Z</time>
      </trkpt>
      <trkpt lat="43.93915" lon="7.44665">
        <ele>1710.695</ele>
        <time>2020-06-25T10:46:25Z</time>
      </trkpt>
      <trkpt lat="43.93916" lon="7.44664">
        <ele>1713.232</ele>
        <time>2020-06-25T10:46:40Z</time>
      </trkpt>
      <trkpt lat="43.93918" lon="7.44667">
        <ele>1711.746</ele>
        <time>2020-06-25T10:46:56Z</time>
      </trkpt>
      <trkpt lat="43.93931" lon="7.4468">
        <ele>1704.893</ele>
        <time>2020-06-25T10:47:12Z</time>
      </trkpt>
      <trkpt lat="43.93941" lon="7.44705">
        <ele>1696.032</ele>
        <time>2020-06-25T10:47:27Z</time>
      </trkpt>
      <trkpt lat="43.93956" lon="7.44715">
        <ele>1696.462</ele>
        <time>2020-06-25T10:47:43Z</time>
      </trkpt>
      <trkpt lat="43.93965" lon="7.44724">
        <ele>1695.311</ele>
        <time>2020-06-25T10:47:59Z</time>
      </trkpt>
      <trkpt lat="43.93967" lon="7.44726">
        <ele>1711.343</ele>
        <time>2020-06-25T10:48:15Z</time>
      </trkpt>
      <trkpt lat="43.93972" lon="7.44746">
        <ele>1713.555</ele>
        <time>2020-06-25T10:48:31Z</time>
      </trkpt>
      <trkpt lat="43.93964" lon="7.44773">
        <ele>1716.728</ele>
        <time>2020-06-25T10:48:47Z</time>
      </trkpt>
      <trkpt lat="43.93964" lon="7.44784">
        <ele>1717.565</ele>
        <time>2020-06-25T10:49:02Z</time>
      </trkpt>
      <trkpt lat="43.93946" lon="7.44804">
        <ele>1719.523</ele>
        <time>2020-06-25T10:49:17Z</time>
      </trkpt>
      <trkpt lat="43.93942" lon="7.44824">
        <ele>1721.33</ele>
        <time>2020-06-25T10:49:33Z</time>
      </trkpt>
      <trkpt lat="43.9393" lon="7.44845">
        <ele>1722.252</ele>
        <time>2020-06-25T10:49:49Z</time>
      </trkpt>
      <trkpt lat="43.93918" lon="7.44848">
        <ele>1721.974</ele>
        <time>2020-06-25T10:50:05Z</time>
      </trkpt>
      <trkpt lat="43.93912" lon="7.44856">
        <ele>1722.512</ele>
        <time>2020-06-25T10:50:20Z</time>
      </trkpt>
      <trkpt lat="43.93911" lon="7.4486">
        <ele>1722.488</ele>
        <time>2020-06-25T10:50:36Z</time>
      </trkpt>
      <trkpt lat="43.93911" lon="7.44882">
        <ele>1719.04</ele>
        <time>2020-06-25T10:50:51Z</time>
      </trkpt>
      <trkpt lat="43.93908" lon="7.44894">
        <ele>1719.162</ele>
        <time>2020-06-25T10:51:07Z</time>
      </trkpt>
      <trkpt lat="43.93905" lon="7.44899">
        <ele>1718.853</ele>
        <time>2020-06-25T10:51:22Z</time>
      </trkpt>
      <trkpt lat="43.939" lon="7.44906">
        <ele>1720.504</ele>
        <time>2020-06-25T10:51:37Z</time>
      </trkpt>
      <trkpt lat="43.93895" lon="7.44916">
        <ele>1723.872</ele>
        <time>2020-06-25T10:51:53Z</time>
      </trkpt>
      <trkpt lat="43.93883" lon="7.44936">
        <ele>1726.727</ele>
        <time>2020-06-25T10:52:08Z</time>
      </trkpt>
      <trkpt lat="43.93891" lon="7.44958">
        <ele>1726.901</ele>
        <time>2020-06-25T10:52:24Z</time>
      </trkpt>
      <trkpt lat="43.93897" lon="7.44987">
        <ele>1716.89</ele>
        <time>2020-06-25T10:52:39Z</time>
      </trkpt>
      <trkpt lat="43.93891" lon="7.45">
        <ele>1713.882</ele>
        <time>2020-06-25T10:52:55Z</time>
      </trkpt>
      <trkpt lat="43.93887" lon="7.45023">
        <ele>1714.652</ele>
        <time>2020-06-25T10:53:10Z</time>
      </trkpt>
      <trkpt lat="43.93871" lon="7.4505">
        <ele>1720.267</ele>
        <time>2020-06-25T10:53:26Z</time>
      </trkpt>
      <trkpt lat="43.93864" lon="7.45072">
        <ele>1723.721</ele>
        <time>2020-06-25T10:53:41Z</time>
      </trkpt>
      <trkpt lat="43.93868" lon="7.45093">
        <ele>1724.404</ele>
        <time>2020-06-25T10:53:57Z</time>
      </trkpt>
      <trkpt lat="43.93876" lon="7.45115">
        <ele>1726.25</ele>
        <time>2020-06-25T10:54:12Z</time>
      </trkpt>
      <trkpt lat="43.93872" lon="7.45123">
        <ele>1725.296</ele>
        <time>2020-06-25T10:54:27Z</time>
      </trkpt>
      <trkpt lat="43.93874" lon="7.45126">
        <ele>1726.111</ele>
        <time>2020-06-25T10:54:43Z</time>
      </trkpt>
      <trkpt lat="43.93888" lon="7.45173">
        <ele>1728.639</ele>
        <time>2020-06-25T10:54:59Z</time>
      </trkpt>
      <trkpt lat="43.93887" lon="7.45193">
        <ele>1726.078</ele>
        <time>2020-06-25T10:55:15Z</time>
      </trkpt>
      <trkpt lat="43.93888" lon="7.45195">
        <ele>1727.928</ele>
        <time>2020-06-25T10:55:31Z</time>
      </trkpt>
      <trkpt lat="43.93899" lon="7.45195">
        <ele>1733.801</ele>
        <time>2020-06-25T10:55:47Z</time>
      </trkpt>
      <trkpt lat="43.93912" lon="7.45191">
        <ele>1734.988</ele>
        <time>2020-06-25T10:56:03Z</time>
      </trkpt>
      <trkpt lat="43.9392" lon="7.45197">
        <ele>1736.512</ele>
        <time>2020-06-25T10:56:19Z</time>
      </trkpt>
      <trkpt lat="43.93929" lon="7.45226">
        <ele>1732.383</ele>
        <time>2020-06-25T10:56:34Z</time>
      </trkpt>
      <trkpt lat="43.93933" lon="7.45258">
        <ele>1729.651</ele>
        <time>2020-06-25T10:56:50Z</time>
      </trkpt>
      <trkpt lat="43.93939" lon="7.45267">
        <ele>1735.034</ele>
        <time>2020-06-25T10:57:06Z</time>
      </trkpt>
      <trkpt lat="43.93939" lon="7.45271">
        <ele>1734.732</ele>
        <time>2020-06-25T10:57:21Z</time>
      </trkpt>
      <trkpt lat="43.93938" lon="7.45284">
        <ele>1733.729</ele>
        <time>2020-06-25T10:57:36Z</time>
      </trkpt>
      <trkpt lat="43.93939" lon="7.4529">
        <ele>1732.708</ele>
        <time>2020-06-25T10:57:52Z</time>
      </trkpt>
      <trkpt lat="43.93942" lon="7.45304">
        <ele>1731.047</ele>
        <time>2020-06-25T10:58:08Z</time>
      </trkpt>
      <trkpt lat="43.9396" lon="7.45334">
        <ele>1733.908</ele>
        <time>2020-06-25T10:58:23Z</time>
      </trkpt>
      <trkpt lat="43.93963" lon="7.4534">
        <ele>1733.175</ele>
        <time>2020-06-25T10:58:38Z</time>
      </trkpt>
      <trkpt lat="43.93977" lon="7.45352">
        <ele>1733.411</ele>
        <time>2020-06-25T10:58:54Z</time>
      </trkpt>
      <trkpt lat="43.93993" lon="7.45355">
        <ele>1739.313</ele>
        <time>2020-06-25T10:59:10Z</time>
      </trkpt>
      <trkpt lat="43.94002" lon="7.45375">
        <ele>1734.946</ele>
        <time>2020-06-25T10:59:25Z</time>
      </trkpt>
      <trkpt lat="43.94022" lon="7.45365">
        <ele>1738.501</ele>
        <time>2020-06-25T10:59:41Z</time>
      </trkpt>
      <trkpt lat="43.94034" lon="7.45357">
        <ele>1744.18</ele>
        <time>2020-06-25T10:59:56Z</time>
      </trkpt>
      <trkpt lat="43.94044" lon="7.45372">
        <ele>1735.973</ele>
        <time>2020-06-25T11:00:12Z</time>
      </trkpt>
      <trkpt lat="43.94052" lon="7.4541">
        <ele>1732.623</ele>
        <time>2020-06-25T11:00:27Z</time>
      </trkpt>
      <trkpt lat="43.9405" lon="7.45414">
        <ele>1734.024</ele>
        <time>2020-06-25T11:00:42Z</time>
      </trkpt>
      <trkpt lat="43.94054" lon="7.45425">
        <ele>1737.923</ele>
        <time>2020-06-25T11:00:58Z</time>
      </trkpt>
      <trkpt lat="43.94074" lon="7.45451">
        <ele>1740.234</ele>
        <time>2020-06-25T11:01:14Z</time>
      </trkpt>
      <trkpt lat="43.94083" lon="7.45463">
        <ele>1739.353</ele>
        <time>2020-06-25T11:01:30Z</time>
      </trkpt>
      <trkpt lat="43.94084" lon="7.45464">
        <ele>1738.261</ele>
        <time>2020-06-25T11:01:46Z</time>
      </trkpt>
      <trkpt lat="43.94086" lon="7.45463">
        <ele>1740.024</ele>
        <time>2020-06-25T11:02:01Z</time>
      </trkpt>
      <trkpt lat="43.94096" lon="7.45466">
        <ele>1740.528</ele>
        <time>2020-06-25T11:02:16Z</time>
      </trkpt>
      <trkpt lat="43.94105" lon="7.45463">
        <ele>1741.5</ele>
        <time>2020-06-25T11:02:32Z</time>
      </trkpt>
      <trkpt lat="43.94122" lon="7.45468">
        <ele>1738.684</ele>
        <time>2020-06-25T11:02:48Z</time>
      </trkpt>
      <trkpt lat="43.94122" lon="7.45471">
        <ele>1740.763</ele>
        <time>2020-06-25T11:03:03Z</time>
      </trkpt>
      <trkpt lat="43.94137" lon="7.45481">
        <ele>1743.988</ele>
        <time>2020-06-25T11:03:19Z</time>
      </trkpt>
      <trkpt lat="43.94156" lon="7.45478">
        <ele>1740.922</ele>
        <time>2020-06-25T11:03:34Z</time>
      </trkpt>
      <trkpt lat="43.94176" lon="7.45481">
        <ele>1745.591</ele>
        <time>2020-06-25T11:03:50Z</time>
      </trkpt>
      <trkpt lat="43.94189" lon="7.45483">
        <ele>1745.02</ele>
        <time>2020-06-25T11:04:06Z</time>
      </trkpt>
      <trkpt lat="43.94202" lon="7.45479">
        <ele>1747.566</ele>
        <time>2020-06-25T11:04:21Z</time>
      </trkpt>
      <trkpt lat="43.94218" lon="7.45472">
        <ele>1748.645</ele>
        <time>2020-06-25T11:04:37Z</time>
      </trkpt>
      <trkpt lat="43.94234" lon="7.45467">
        <ele>1746.141</ele>
        <time>2020-06-25T11:04:53Z</time>
      </trkpt>
      <trkpt lat="43.94249" lon="7.45463">
        <ele>1745.789</ele>
        <time>2020-06-25T11:05:09Z</time>
      </trkpt>
      <trkpt lat="43.94249" lon="7.45467">
        <ele>1747.756</ele>
        <time>2020-06-25T11:05:24Z</time>
      </trkpt>
      <trkpt lat="43.94249" lon="7.45467">
        <ele>1747.756</ele>
        <time>2020-06-25T11:05:40Z</time>
      </trkpt>
      <trkpt lat="43.94248" lon="7.45468">
        <ele>1747.875</ele>
        <time>2020-06-25T11:05:56Z</time>
      </trkpt>
      <trkpt lat="43.94248" lon="7.45468">
        <ele>1747.875</ele>
        <time>2020-06-25T11:06:11Z</time>
      </trkpt>
      <trkpt lat="43.94248" lon="7.45468">
        <ele>1747.875</ele>
        <time>2020-06-25T11:06:27Z</time>
      </trkpt>
      <trkpt lat="43.94246" lon="7.45468">
        <ele>1747.149</ele>
        <time>2020-06-25T11:06:43Z</time>
      </trkpt>
      <trkpt lat="43.9425" lon="7.45485">
        <ele>1745.347</ele>
        <time>2020-06-25T11:06:59Z</time>
      </trkpt>
      <trkpt lat="43.94255" lon="7.45497">
        <ele>1747.571</ele>
        <time>2020-06-25T11:07:14Z</time>
      </trkpt>
      <trkpt lat="43.94262" lon="7.45516">
        <ele>1747.834</ele>
        <time>2020-06-25T11:07:29Z</time>
      </trkpt>
      <trkpt lat="43.94268" lon="7.45534">
        <ele>1749.596</ele>
        <time>2020-06-25T11:07:45Z</time>
      </trkpt>
      <trkpt lat="43.94283" lon="7.45545">
        <ele>1753.214</ele>
        <time>2020-06-25T11:08:00Z</time>
      </trkpt>
      <trkpt lat="43.94299" lon="7.45552">
        <ele>1757.86</ele>
        <time>2020-06-25T11:08:16Z</time>
      </trkpt>
      <trkpt lat="43.94307" lon="7.45571">
        <ele>1757.405</ele>
        <time>2020-06-25T11:08:32Z</time>
      </trkpt>
      <trkpt lat="43.94314" lon="7.45581">
        <ele>1755.822</ele>
        <time>2020-06-25T11:08:47Z</time>
      </trkpt>
      <trkpt lat="43.94324" lon="7.45588">
        <ele>1755.742</ele>
        <time>2020-06-25T11:09:03Z</time>
      </trkpt>
      <trkpt lat="43.94335" lon="7.45594">
        <ele>1752.412</ele>
        <time>2020-06-25T11:09:18Z</time>
      </trkpt>
      <trkpt lat="43.94347" lon="7.45597">
        <ele>1749.246</ele>
        <time>2020-06-25T11:09:33Z</time>
      </trkpt>
      <trkpt lat="43.94359" lon="7.45608">
        <ele>1744.079</ele>
        <time>2020-06-25T11:09:49Z</time>
      </trkpt>
      <trkpt lat="43.9437" lon="7.45613">
        <ele>1743.173</ele>
        <time>2020-06-25T11:10:04Z</time>
      </trkpt>
      <trkpt lat="43.9438" lon="7.45614">
        <ele>1745.228</ele>
        <time>2020-06-25T11:10:19Z</time>
      </trkpt>
      <trkpt lat="43.94389" lon="7.45621">
        <ele>1749.71</ele>
        <time>2020-06-25T11:10:35Z</time>
      </trkpt>
      <trkpt lat="43.94403" lon="7.45631">
        <ele>1751.836</ele>
        <time>2020-06-25T11:10:50Z</time>
      </trkpt>
      <trkpt lat="43.94413" lon="7.45636">
        <ele>1754.318</ele>
        <time>2020-06-25T11:11:06Z</time>
      </trkpt>
      <trkpt lat="43.94423" lon="7.45639">
        <ele>1756.849</ele>
        <time>2020-06-25T11:11:22Z</time>
      </trkpt>
      <trkpt lat="43.9444" lon="7.45641">
        <ele>1753.51</ele>
        <time>2020-06-25T11:11:37Z</time>
      </trkpt>
      <trkpt lat="43.94456" lon="7.45649">
        <ele>1750.64</ele>
        <time>2020-06-25T11:11:53Z</time>
      </trkpt>
      <trkpt lat="43.94468" lon="7.45651">
        <ele>1752.976</ele>
        <time>2020-06-25T11:12:09Z</time>
      </trkpt>
      <trkpt lat="43.94484" lon="7.45651">
        <ele>1753.505</ele>
        <time>2020-06-25T11:12:25Z</time>
      </trkpt>
      <trkpt lat="43.94498" lon="7.45661">
        <ele>1757.183</ele>
        <time>2020-06-25T11:12:41Z</time>
      </trkpt>
      <trkpt lat="43.9451" lon="7.45673">
        <ele>1760.169</ele>
        <time>2020-06-25T11:12:57Z</time>
      </trkpt>
      <trkpt lat="43.94523" lon="7.45679">
        <ele>1761.073</ele>
        <time>2020-06-25T11:13:13Z</time>
      </trkpt>
      <trkpt lat="43.94536" lon="7.45684">
        <ele>1758.868</ele>
        <time>2020-06-25T11:13:28Z</time>
      </trkpt>
      <trkpt lat="43.94552" lon="7.4568">
        <ele>1757.273</ele>
        <time>2020-06-25T11:13:44Z</time>
      </trkpt>
      <trkpt lat="43.94564" lon="7.45681">
        <ele>1760.116</ele>
        <time>2020-06-25T11:13:59Z</time>
      </trkpt>
      <trkpt lat="43.94577" lon="7.45684">
        <ele>1762.932</ele>
        <time>2020-06-25T11:14:15Z</time>
      </trkpt>
      <trkpt lat="43.94577" lon="7.45684">
        <ele>1763.488</ele>
        <time>2020-06-25T11:14:30Z</time>
      </trkpt>
      <trkpt lat="43.94577" lon="7.45684">
        <ele>1763.488</ele>
        <time>2020-06-25T11:14:46Z</time>
      </trkpt>
      <trkpt lat="43.94577" lon="7.45684">
        <ele>1763.488</ele>
        <time>2020-06-25T11:15:02Z</time>
      </trkpt>
      <trkpt lat="43.94579" lon="7.45683">
        <ele>1762.879</ele>
        <time>2020-06-25T11:15:17Z</time>
      </trkpt>
      <trkpt lat="43.9459" lon="7.4568">
        <ele>1760.221</ele>
        <time>2020-06-25T11:15:33Z</time>
      </trkpt>
      <trkpt lat="43.94609" lon="7.45678">
        <ele>1759.765</ele>
        <time>2020-06-25T11:15:49Z</time>
      </trkpt>
      <trkpt lat="43.94624" lon="7.45682">
        <ele>1758.316</ele>
        <time>2020-06-25T11:16:04Z</time>
      </trkpt>
      <trkpt lat="43.9464" lon="7.45684">
        <ele>1757.998</ele>
        <time>2020-06-25T11:16:20Z</time>
      </trkpt>
      <trkpt lat="43.94652" lon="7.45688">
        <ele>1757.048</ele>
        <time>2020-06-25T11:16:36Z</time>
      </trkpt>
      <trkpt lat="43.94665" lon="7.45681">
        <ele>1753.952</ele>
        <time>2020-06-25T11:16:52Z</time>
      </trkpt>
      <trkpt lat="43.94676" lon="7.45672">
        <ele>1757.786</ele>
        <time>2020-06-25T11:17:08Z</time>
      </trkpt>
      <trkpt lat="43.94691" lon="7.45659">
        <ele>1755.298</ele>
        <time>2020-06-25T11:17:24Z</time>
      </trkpt>
      <trkpt lat="43.94701" lon="7.45647">
        <ele>1751.326</ele>
        <time>2020-06-25T11:17:39Z</time>
      </trkpt>
      <trkpt lat="43.94717" lon="7.45635">
        <ele>1750.291</ele>
        <time>2020-06-25T11:17:55Z</time>
      </trkpt>
      <trkpt lat="43.94729" lon="7.45625">
        <ele>1751.722</ele>
        <time>2020-06-25T11:18:10Z</time>
      </trkpt>
      <trkpt lat="43.94733" lon="7.45623">
        <ele>1753.185</ele>
        <time>2020-06-25T11:18:26Z</time>
      </trkpt>
      <trkpt lat="43.94744" lon="7.45619">
        <ele>1754.366</ele>
        <time>2020-06-25T11:18:41Z</time>
      </trkpt>
      <trkpt lat="43.94755" lon="7.45621">
        <ele>1759.909</ele>
        <time>2020-06-25T11:18:57Z</time>
      </trkpt>
      <trkpt lat="43.9477" lon="7.45626">
        <ele>1761.572</ele>
        <time>2020-06-25T11:19:12Z</time>
      </trkpt>
      <trkpt lat="43.94787" lon="7.45637">
        <ele>1760.348</ele>
        <time>2020-06-25T11:19:28Z</time>
      </trkpt>
      <trkpt lat="43.948" lon="7.45647">
        <ele>1760.171</ele>
        <time>2020-06-25T11:19:44Z</time>
      </trkpt>
      <trkpt lat="43.94811" lon="7.45656">
        <ele>1760.36</ele>
        <time>2020-06-25T11:20:00Z</time>
      </trkpt>
      <trkpt lat="43.94824" lon="7.45651">
        <ele>1761.507</ele>
        <time>2020-06-25T11:20:16Z</time>
      </trkpt>
      <trkpt lat="43.94831" lon="7.45651">
        <ele>1759.32</ele>
        <time>2020-06-25T11:20:31Z</time>
      </trkpt>
      <trkpt lat="43.94843" lon="7.45641">
        <ele>1754.535</ele>
        <time>2020-06-25T11:20:46Z</time>
      </trkpt>
      <trkpt lat="43.94855" lon="7.45637">
        <ele>1749.7</ele>
        <time>2020-06-25T11:21:01Z</time>
      </trkpt>
      <trkpt lat="43.94855" lon="7.45637">
        <ele>1749.7</ele>
        <time>2020-06-25T11:21:17Z</time>
      </trkpt>
      <trkpt lat="43.94855" lon="7.45637">
        <ele>1749.7</ele>
        <time>2020-06-25T11:21:33Z</time>
      </trkpt>
      <trkpt lat="43.94869" lon="7.45637">
        <ele>1749.132</ele>
        <time>2020-06-25T11:21:48Z</time>
      </trkpt>
      <trkpt lat="43.9488" lon="7.45627">
        <ele>1754.375</ele>
        <time>2020-06-25T11:22:03Z</time>
      </trkpt>
      <trkpt lat="43.94892" lon="7.45619">
        <ele>1756.244</ele>
        <time>2020-06-25T11:22:19Z</time>
      </trkpt>
      <trkpt lat="43.94906" lon="7.45617">
        <ele>1757.393</ele>
        <time>2020-06-25T11:22:34Z</time>
      </trkpt>
      <trkpt lat="43.94921" lon="7.45613">
        <ele>1759.352</ele>
        <time>2020-06-25T11:22:50Z</time>
      </trkpt>
      <trkpt lat="43.9493" lon="7.456">
        <ele>1758.156</ele>
        <time>2020-06-25T11:23:05Z</time>
      </trkpt>
      <trkpt lat="43.94943" lon="7.45594">
        <ele>1758.02</ele>
        <time>2020-06-25T11:23:20Z</time>
      </trkpt>
      <trkpt lat="43.94954" lon="7.4558">
        <ele>1760.579</ele>
        <time>2020-06-25T11:23:36Z</time>
      </trkpt>
      <trkpt lat="43.94962" lon="7.45565">
        <ele>1761.639</ele>
        <time>2020-06-25T11:23:52Z</time>
      </trkpt>
      <trkpt lat="43.9497" lon="7.45566">
        <ele>1759.171</ele>
        <time>2020-06-25T11:24:08Z</time>
      </trkpt>
      <trkpt lat="43.94984" lon="7.45564">
        <ele>1757.658</ele>
        <time>2020-06-25T11:24:24Z</time>
      </trkpt>
      <trkpt lat="43.94996" lon="7.45557">
        <ele>1759.495</ele>
        <time>2020-06-25T11:24:39Z</time>
      </trkpt>
      <trkpt lat="43.95008" lon="7.45544">
        <ele>1768.928</ele>
        <time>2020-06-25T11:24:55Z</time>
      </trkpt>
      <trkpt lat="43.95013" lon="7.45548">
        <ele>1770.882</ele>
        <time>2020-06-25T11:25:11Z</time>
      </trkpt>
      <trkpt lat="43.95022" lon="7.45553">
        <ele>1773.008</ele>
        <time>2020-06-25T11:25:26Z</time>
      </trkpt>
      <trkpt lat="43.95029" lon="7.45557">
        <ele>1774.722</ele>
        <time>2020-06-25T11:25:42Z</time>
      </trkpt>
      <trkpt lat="43.95041" lon="7.45563">
        <ele>1775.2</ele>
        <time>2020-06-25T11:25:57Z</time>
      </trkpt>
      <trkpt lat="43.95051" lon="7.45562">
        <ele>1780.115</ele>
        <time>2020-06-25T11:26:12Z</time>
      </trkpt>
      <trkpt lat="43.95066" lon="7.45568">
        <ele>1781.513</ele>
        <time>2020-06-25T11:26:27Z</time>
      </trkpt>
      <trkpt lat="43.95076" lon="7.45566">
        <ele>1781.598</ele>
        <time>2020-06-25T11:26:43Z</time>
      </trkpt>
      <trkpt lat="43.95085" lon="7.45565">
        <ele>1783.304</ele>
        <time>2020-06-25T11:26:59Z</time>
      </trkpt>
      <trkpt lat="43.9509" lon="7.45563">
        <ele>1788.742</ele>
        <time>2020-06-25T11:27:14Z</time>
      </trkpt>
      <trkpt lat="43.95106" lon="7.45559">
        <ele>1791.323</ele>
        <time>2020-06-25T11:27:30Z</time>
      </trkpt>
      <trkpt lat="43.95117" lon="7.45555">
        <ele>1792.6</ele>
        <time>2020-06-25T11:27:46Z</time>
      </trkpt>
      <trkpt lat="43.95125" lon="7.45552">
        <ele>1791.197</ele>
        <time>2020-06-25T11:28:01Z</time>
      </trkpt>
      <trkpt lat="43.95138" lon="7.45553">
        <ele>1789.987</ele>
        <time>2020-06-25T11:28:17Z</time>
      </trkpt>
      <trkpt lat="43.9514" lon="7.4555">
        <ele>1791.35</ele>
        <time>2020-06-25T11:28:33Z</time>
      </trkpt>
      <trkpt lat="43.9514" lon="7.45549">
        <ele>1791.099</ele>
        <time>2020-06-25T11:28:48Z</time>
      </trkpt>
      <trkpt lat="43.95152" lon="7.45542">
        <ele>1792.197</ele>
        <time>2020-06-25T11:29:03Z</time>
      </trkpt>
      <trkpt lat="43.95163" lon="7.45531">
        <ele>1794.034</ele>
        <time>2020-06-25T11:29:19Z</time>
      </trkpt>
      <trkpt lat="43.95176" lon="7.45519">
        <ele>1793.967</ele>
        <time>2020-06-25T11:29:35Z</time>
      </trkpt>
      <trkpt lat="43.95182" lon="7.45515">
        <ele>1791.712</ele>
        <time>2020-06-25T11:29:50Z</time>
      </trkpt>
      <trkpt lat="43.95197" lon="7.45503">
        <ele>1789.126</ele>
        <time>2020-06-25T11:30:06Z</time>
      </trkpt>
      <trkpt lat="43.95207" lon="7.45488">
        <ele>1791.652</ele>
        <time>2020-06-25T11:30:21Z</time>
      </trkpt>
      <trkpt lat="43.95217" lon="7.45475">
        <ele>1795.965</ele>
        <time>2020-06-25T11:30:36Z</time>
      </trkpt>
      <trkpt lat="43.95223" lon="7.45465">
        <ele>1798.354</ele>
        <time>2020-06-25T11:30:51Z</time>
      </trkpt>
      <trkpt lat="43.95229" lon="7.45465">
        <ele>1800.948</ele>
        <time>2020-06-25T11:31:07Z</time>
      </trkpt>
      <trkpt lat="43.95237" lon="7.45466">
        <ele>1804.498</ele>
        <time>2020-06-25T11:31:22Z</time>
      </trkpt>
      <trkpt lat="43.95238" lon="7.45465">
        <ele>1805.294</ele>
        <time>2020-06-25T11:31:38Z</time>
      </trkpt>
      <trkpt lat="43.95237" lon="7.45465">
        <ele>1805.383</ele>
        <time>2020-06-25T11:31:54Z</time>
      </trkpt>
      <trkpt lat="43.95238" lon="7.45465">
        <ele>1805.327</ele>
        <time>2020-06-25T11:32:10Z</time>
      </trkpt>
      <trkpt lat="43.95238" lon="7.45465">
        <ele>1805.327</ele>
        <time>2020-06-25T11:32:26Z</time>
      </trkpt>
      <trkpt lat="43.95238" lon="7.45465">
        <ele>1805.327</ele>
        <time>2020-06-25T11:32:41Z</time>
      </trkpt>
      <trkpt lat="43.95238" lon="7.45461">
        <ele>1805.582</ele>
        <time>2020-06-25T11:32:57Z</time>
      </trkpt>
      <trkpt lat="43.95238" lon="7.45461">
        <ele>1805.582</ele>
        <time>2020-06-25T11:33:12Z</time>
      </trkpt>
      <trkpt lat="43.95238" lon="7.45461">
        <ele>1805.582</ele>
        <time>2020-06-25T11:33:28Z</time>
      </trkpt>
      <trkpt lat="43.95238" lon="7.45461">
        <ele>1805.582</ele>
        <time>2020-06-25T11:33:43Z</time>
      </trkpt>
      <trkpt lat="43.9524" lon="7.45459">
        <ele>1805.879</ele>
        <time>2020-06-25T11:33:58Z</time>
      </trkpt>
      <trkpt lat="43.95242" lon="7.45461">
        <ele>1805.78</ele>
        <time>2020-06-25T11:34:13Z</time>
      </trkpt>
      <trkpt lat="43.95252" lon="7.45448">
        <ele>1805.949</ele>
        <time>2020-06-25T11:34:29Z</time>
      </trkpt>
      <trkpt lat="43.95255" lon="7.45447">
        <ele>1805.69</ele>
        <time>2020-06-25T11:34:44Z</time>
      </trkpt>
      <trkpt lat="43.95258" lon="7.45449">
        <ele>1807.348</ele>
        <time>2020-06-25T11:35:00Z</time>
      </trkpt>
      <trkpt lat="43.95266" lon="7.45442">
        <ele>1805.056</ele>
        <time>2020-06-25T11:35:15Z</time>
      </trkpt>
      <trkpt lat="43.95273" lon="7.45436">
        <ele>1805.23</ele>
        <time>2020-06-25T11:35:30Z</time>
      </trkpt>
      <trkpt lat="43.95287" lon="7.45429">
        <ele>1804.629</ele>
        <time>2020-06-25T11:35:46Z</time>
      </trkpt>
      <trkpt lat="43.95303" lon="7.45416">
        <ele>1804.293</ele>
        <time>2020-06-25T11:36:02Z</time>
      </trkpt>
      <trkpt lat="43.95314" lon="7.45403">
        <ele>1805.505</ele>
        <time>2020-06-25T11:36:17Z</time>
      </trkpt>
      <trkpt lat="43.95329" lon="7.45401">
        <ele>1809.442</ele>
        <time>2020-06-25T11:36:33Z</time>
      </trkpt>
      <trkpt lat="43.95343" lon="7.45397">
        <ele>1811.62</ele>
        <time>2020-06-25T11:36:49Z</time>
      </trkpt>
      <trkpt lat="43.95353" lon="7.45394">
        <ele>1815.021</ele>
        <time>2020-06-25T11:37:04Z</time>
      </trkpt>
      <trkpt lat="43.95366" lon="7.45388">
        <ele>1815.425</ele>
        <time>2020-06-25T11:37:20Z</time>
      </trkpt>
      <trkpt lat="43.95385" lon="7.45388">
        <ele>1816.193</ele>
        <time>2020-06-25T11:37:36Z</time>
      </trkpt>
      <trkpt lat="43.95398" lon="7.45385">
        <ele>1817.816</ele>
        <time>2020-06-25T11:37:52Z</time>
      </trkpt>
      <trkpt lat="43.95407" lon="7.45384">
        <ele>1818.535</ele>
        <time>2020-06-25T11:38:08Z</time>
      </trkpt>
      <trkpt lat="43.95423" lon="7.45381">
        <ele>1816.31</ele>
        <time>2020-06-25T11:38:23Z</time>
      </trkpt>
      <trkpt lat="43.95436" lon="7.45379">
        <ele>1817.004</ele>
        <time>2020-06-25T11:38:39Z</time>
      </trkpt>
      <trkpt lat="43.95445" lon="7.45374">
        <ele>1821.819</ele>
        <time>2020-06-25T11:38:55Z</time>
      </trkpt>
      <trkpt lat="43.95461" lon="7.45371">
        <ele>1820.132</ele>
        <time>2020-06-25T11:39:10Z</time>
      </trkpt>
      <trkpt lat="43.95475" lon="7.45363">
        <ele>1815.511</ele>
        <time>2020-06-25T11:39:26Z</time>
      </trkpt>
      <trkpt lat="43.95495" lon="7.45358">
        <ele>1816.316</ele>
        <time>2020-06-25T11:39:42Z</time>
      </trkpt>
      <trkpt lat="43.95506" lon="7.45349">
        <ele>1812.738</ele>
        <time>2020-06-25T11:39:58Z</time>
      </trkpt>
      <trkpt lat="43.95521" lon="7.45344">
        <ele>1815.423</ele>
        <time>2020-06-25T11:40:14Z</time>
      </trkpt>
      <trkpt lat="43.9553" lon="7.45334">
        <ele>1814.002</ele>
        <time>2020-06-25T11:40:30Z</time>
      </trkpt>
      <trkpt lat="43.95541" lon="7.45318">
        <ele>1817.844</ele>
        <time>2020-06-25T11:40:45Z</time>
      </trkpt>
      <trkpt lat="43.95557" lon="7.45312">
        <ele>1819.599</ele>
        <time>2020-06-25T11:41:01Z</time>
      </trkpt>
      <trkpt lat="43.95566" lon="7.45302">
        <ele>1820.097</ele>
        <time>2020-06-25T11:41:17Z</time>
      </trkpt>
      <trkpt lat="43.95574" lon="7.4529">
        <ele>1820.307</ele>
        <time>2020-06-25T11:41:32Z</time>
      </trkpt>
      <trkpt lat="43.9558" lon="7.45283">
        <ele>1824.135</ele>
        <time>2020-06-25T11:41:48Z</time>
      </trkpt>
      <trkpt lat="43.9559" lon="7.45271">
        <ele>1825.995</ele>
        <time>2020-06-25T11:42:04Z</time>
      </trkpt>
      <trkpt lat="43.956" lon="7.4526">
        <ele>1825.46</ele>
        <time>2020-06-25T11:42:20Z</time>
      </trkpt>
      <trkpt lat="43.95611" lon="7.4525">
        <ele>1824.26</ele>
        <time>2020-06-25T11:42:36Z</time>
      </trkpt>
      <trkpt lat="43.95619" lon="7.45239">
        <ele>1827.401</ele>
        <time>2020-06-25T11:42:51Z</time>
      </trkpt>
      <trkpt lat="43.95626" lon="7.4523">
        <ele>1833.518</ele>
        <time>2020-06-25T11:43:07Z</time>
      </trkpt>
      <trkpt lat="43.95636" lon="7.45219">
        <ele>1835.472</ele>
        <time>2020-06-25T11:43:22Z</time>
      </trkpt>
      <trkpt lat="43.95645" lon="7.45207">
        <ele>1836.581</ele>
        <time>2020-06-25T11:43:37Z</time>
      </trkpt>
      <trkpt lat="43.95659" lon="7.45199">
        <ele>1836.255</ele>
        <time>2020-06-25T11:43:53Z</time>
      </trkpt>
      <trkpt lat="43.95671" lon="7.45193">
        <ele>1837.332</ele>
        <time>2020-06-25T11:44:09Z</time>
      </trkpt>
      <trkpt lat="43.95675" lon="7.45177">
        <ele>1840.942</ele>
        <time>2020-06-25T11:44:24Z</time>
      </trkpt>
      <trkpt lat="43.95686" lon="7.45165">
        <ele>1839.235</ele>
        <time>2020-06-25T11:44:40Z</time>
      </trkpt>
      <trkpt lat="43.95697" lon="7.45158">
        <ele>1839.007</ele>
        <time>2020-06-25T11:44:56Z</time>
      </trkpt>
      <trkpt lat="43.95708" lon="7.4515">
        <ele>1844.049</ele>
        <time>2020-06-25T11:45:11Z</time>
      </trkpt>
      <trkpt lat="43.95717" lon="7.45142">
        <ele>1843.035</ele>
        <time>2020-06-25T11:45:27Z</time>
      </trkpt>
      <trkpt lat="43.95723" lon="7.45131">
        <ele>1843.3</ele>
        <time>2020-06-25T11:45:43Z</time>
      </trkpt>
      <trkpt lat="43.95734" lon="7.45112">
        <ele>1841.971</ele>
        <time>2020-06-25T11:45:59Z</time>
      </trkpt>
      <trkpt lat="43.95744" lon="7.45101">
        <ele>1842.629</ele>
        <time>2020-06-25T11:46:15Z</time>
      </trkpt>
      <trkpt lat="43.95757" lon="7.45093">
        <ele>1845.706</ele>
        <time>2020-06-25T11:46:30Z</time>
      </trkpt>
      <trkpt lat="43.95763" lon="7.45083">
        <ele>1851.057</ele>
        <time>2020-06-25T11:46:45Z</time>
      </trkpt>
      <trkpt lat="43.9577" lon="7.45074">
        <ele>1856.264</ele>
        <time>2020-06-25T11:47:01Z</time>
      </trkpt>
      <trkpt lat="43.95781" lon="7.45068">
        <ele>1857.467</ele>
        <time>2020-06-25T11:47:17Z</time>
      </trkpt>
      <trkpt lat="43.95784" lon="7.45062">
        <ele>1859.197</ele>
        <time>2020-06-25T11:47:32Z</time>
      </trkpt>
      <trkpt lat="43.95795" lon="7.45054">
        <ele>1857.458</ele>
        <time>2020-06-25T11:47:48Z</time>
      </trkpt>
      <trkpt lat="43.95802" lon="7.4505">
        <ele>1858.635</ele>
        <time>2020-06-25T11:48:03Z</time>
      </trkpt>
      <trkpt lat="43.95802" lon="7.4505">
        <ele>1858.635</ele>
        <time>2020-06-25T11:48:19Z</time>
      </trkpt>
      <trkpt lat="43.95802" lon="7.4505">
        <ele>1858.635</ele>
        <time>2020-06-25T11:48:34Z</time>
      </trkpt>
      <trkpt lat="43.95802" lon="7.4505">
        <ele>1858.635</ele>
        <time>2020-06-25T11:48:50Z</time>
      </trkpt>
      <trkpt lat="43.95802" lon="7.4505">
        <ele>1858.843</ele>
        <time>2020-06-25T11:49:06Z</time>
      </trkpt>
      <trkpt lat="43.95802" lon="7.4505">
        <ele>1858.843</ele>
        <time>2020-06-25T11:49:22Z</time>
      </trkpt>
      <trkpt lat="43.95802" lon="7.4505">
        <ele>1858.843</ele>
        <time>2020-06-25T11:49:38Z</time>
      </trkpt>
      <trkpt lat="43.95802" lon="7.4505">
        <ele>1858.843</ele>
        <time>2020-06-25T11:49:53Z</time>
      </trkpt>
      <trkpt lat="43.95802" lon="7.4505">
        <ele>1858.843</ele>
        <time>2020-06-25T11:50:08Z</time>
      </trkpt>
      <trkpt lat="43.95802" lon="7.4505">
        <ele>1858.843</ele>
        <time>2020-06-25T11:50:24Z</time>
      </trkpt>
      <trkpt lat="43.95802" lon="7.4505">
        <ele>1858.843</ele>
        <time>2020-06-25T11:50:40Z</time>
      </trkpt>
      <trkpt lat="43.95802" lon="7.4505">
        <ele>1858.843</ele>
        <time>2020-06-25T11:50:55Z</time>
      </trkpt>
      <trkpt lat="43.95802" lon="7.4505">
        <ele>1858.843</ele>
        <time>2020-06-25T11:51:10Z</time>
      </trkpt>
      <trkpt lat="43.95802" lon="7.4505">
        <ele>1858.843</ele>
        <time>2020-06-25T11:51:26Z</time>
      </trkpt>
      <trkpt lat="43.95802" lon="7.4505">
        <ele>1858.843</ele>
        <time>2020-06-25T11:51:41Z</time>
      </trkpt>
      <trkpt lat="43.95802" lon="7.4505">
        <ele>1858.843</ele>
        <time>2020-06-25T11:51:57Z</time>
      </trkpt>
      <trkpt lat="43.95802" lon="7.4505">
        <ele>1858.843</ele>
        <time>2020-06-25T11:52:13Z</time>
      </trkpt>
      <trkpt lat="43.95802" lon="7.4505">
        <ele>1858.843</ele>
        <time>2020-06-25T11:52:28Z</time>
      </trkpt>
      <trkpt lat="43.95804" lon="7.45049">
        <ele>1860.345</ele>
        <time>2020-06-25T11:52:43Z</time>
      </trkpt>
      <trkpt lat="43.95814" lon="7.45044">
        <ele>1860.75</ele>
        <time>2020-06-25T11:52:59Z</time>
      </trkpt>
      <trkpt lat="43.95827" lon="7.45035">
        <ele>1855.908</ele>
        <time>2020-06-25T11:53:14Z</time>
      </trkpt>
      <trkpt lat="43.9583" lon="7.45031">
        <ele>1858.242</ele>
        <time>2020-06-25T11:53:29Z</time>
      </trkpt>
      <trkpt lat="43.9584" lon="7.45025">
        <ele>1859.218</ele>
        <time>2020-06-25T11:53:45Z</time>
      </trkpt>
      <trkpt lat="43.9584" lon="7.45025">
        <ele>1859.297</ele>
        <time>2020-06-25T11:54:00Z</time>
      </trkpt>
      <trkpt lat="43.95851" lon="7.45014">
        <ele>1862.51</ele>
        <time>2020-06-25T11:54:16Z</time>
      </trkpt>
      <trkpt lat="43.95856" lon="7.45011">
        <ele>1865.121</ele>
        <time>2020-06-25T11:54:31Z</time>
      </trkpt>
      <trkpt lat="43.95856" lon="7.45011">
        <ele>1865.121</ele>
        <time>2020-06-25T11:54:46Z</time>
      </trkpt>
      <trkpt lat="43.95856" lon="7.45011">
        <ele>1865.121</ele>
        <time>2020-06-25T11:55:01Z</time>
      </trkpt>
      <trkpt lat="43.95856" lon="7.45011">
        <ele>1865.121</ele>
        <time>2020-06-25T11:55:17Z</time>
      </trkpt>
      <trkpt lat="43.95856" lon="7.45011">
        <ele>1865.121</ele>
        <time>2020-06-25T11:55:33Z</time>
      </trkpt>
      <trkpt lat="43.95856" lon="7.45011">
        <ele>1865.121</ele>
        <time>2020-06-25T11:55:48Z</time>
      </trkpt>
      <trkpt lat="43.95871" lon="7.45009">
        <ele>1865.338</ele>
        <time>2020-06-25T11:56:04Z</time>
      </trkpt>
      <trkpt lat="43.95895" lon="7.45005">
        <ele>1862.834</ele>
        <time>2020-06-25T11:56:20Z</time>
      </trkpt>
      <trkpt lat="43.95908" lon="7.45001">
        <ele>1862.776</ele>
        <time>2020-06-25T11:56:36Z</time>
      </trkpt>
      <trkpt lat="43.95927" lon="7.44992">
        <ele>1855.768</ele>
        <time>2020-06-25T11:56:52Z</time>
      </trkpt>
      <trkpt lat="43.95941" lon="7.44988">
        <ele>1853.675</ele>
        <time>2020-06-25T11:57:07Z</time>
      </trkpt>
      <trkpt lat="43.95956" lon="7.44985">
        <ele>1858.48</ele>
        <time>2020-06-25T11:57:23Z</time>
      </trkpt>
      <trkpt lat="43.95964" lon="7.44981">
        <ele>1861.926</ele>
        <time>2020-06-25T11:57:38Z</time>
      </trkpt>
      <trkpt lat="43.95982" lon="7.44979">
        <ele>1865.238</ele>
        <time>2020-06-25T11:57:54Z</time>
      </trkpt>
      <trkpt lat="43.95997" lon="7.4497">
        <ele>1868.089</ele>
        <time>2020-06-25T11:58:10Z</time>
      </trkpt>
      <trkpt lat="43.96009" lon="7.44965">
        <ele>1867.657</ele>
        <time>2020-06-25T11:58:25Z</time>
      </trkpt>
      <trkpt lat="43.9603" lon="7.44963">
        <ele>1869.867</ele>
        <time>2020-06-25T11:58:41Z</time>
      </trkpt>
      <trkpt lat="43.9604" lon="7.44961">
        <ele>1874.773</ele>
        <time>2020-06-25T11:58:56Z</time>
      </trkpt>
      <trkpt lat="43.96046" lon="7.44963">
        <ele>1877.06</ele>
        <time>2020-06-25T11:59:12Z</time>
      </trkpt>
      <trkpt lat="43.96063" lon="7.44969">
        <ele>1876.027</ele>
        <time>2020-06-25T11:59:28Z</time>
      </trkpt>
      <trkpt lat="43.96077" lon="7.44972">
        <ele>1880.539</ele>
        <time>2020-06-25T11:59:44Z</time>
      </trkpt>
      <trkpt lat="43.96086" lon="7.44975">
        <ele>1878.832</ele>
        <time>2020-06-25T11:59:59Z</time>
      </trkpt>
      <trkpt lat="43.96107" lon="7.4497">
        <ele>1877.133</ele>
        <time>2020-06-25T12:00:15Z</time>
      </trkpt>
      <trkpt lat="43.96111" lon="7.44976">
        <ele>1878.799</ele>
        <time>2020-06-25T12:00:30Z</time>
      </trkpt>
      <trkpt lat="43.96123" lon="7.44984">
        <ele>1886.585</ele>
        <time>2020-06-25T12:00:46Z</time>
      </trkpt>
      <trkpt lat="43.96126" lon="7.44985">
        <ele>1888.444</ele>
        <time>2020-06-25T12:01:02Z</time>
      </trkpt>
      <trkpt lat="43.96122" lon="7.44983">
        <ele>1889.383</ele>
        <time>2020-06-25T12:01:18Z</time>
      </trkpt>
      <trkpt lat="43.96135" lon="7.44986">
        <ele>1887.817</ele>
        <time>2020-06-25T12:01:33Z</time>
      </trkpt>
      <trkpt lat="43.96158" lon="7.44992">
        <ele>1884.4</ele>
        <time>2020-06-25T12:01:49Z</time>
      </trkpt>
      <trkpt lat="43.96169" lon="7.44997">
        <ele>1887.031</ele>
        <time>2020-06-25T12:02:04Z</time>
      </trkpt>
      <trkpt lat="43.96187" lon="7.45002">
        <ele>1881.371</ele>
        <time>2020-06-25T12:02:19Z</time>
      </trkpt>
      <trkpt lat="43.96203" lon="7.45">
        <ele>1878.795</ele>
        <time>2020-06-25T12:02:35Z</time>
      </trkpt>
      <trkpt lat="43.96213" lon="7.44992">
        <ele>1881.339</ele>
        <time>2020-06-25T12:02:50Z</time>
      </trkpt>
      <trkpt lat="43.96223" lon="7.44986">
        <ele>1880.966</ele>
        <time>2020-06-25T12:03:06Z</time>
      </trkpt>
      <trkpt lat="43.96244" lon="7.44987">
        <ele>1877.86</ele>
        <time>2020-06-25T12:03:22Z</time>
      </trkpt>
      <trkpt lat="43.96259" lon="7.44986">
        <ele>1879.926</ele>
        <time>2020-06-25T12:03:38Z</time>
      </trkpt>
      <trkpt lat="43.96271" lon="7.44994">
        <ele>1892.376</ele>
        <time>2020-06-25T12:03:54Z</time>
      </trkpt>
      <trkpt lat="43.96278" lon="7.44986">
        <ele>1897.352</ele>
        <time>2020-06-25T12:04:09Z</time>
      </trkpt>
      <trkpt lat="43.9629" lon="7.44982">
        <ele>1905.057</ele>
        <time>2020-06-25T12:04:25Z</time>
      </trkpt>
      <trkpt lat="43.96292" lon="7.44983">
        <ele>1906.358</ele>
        <time>2020-06-25T12:04:41Z</time>
      </trkpt>
      <trkpt lat="43.96298" lon="7.44977">
        <ele>1910.445</ele>
        <time>2020-06-25T12:04:56Z</time>
      </trkpt>
      <trkpt lat="43.96304" lon="7.44959">
        <ele>1912.355</ele>
        <time>2020-06-25T12:05:12Z</time>
      </trkpt>
      <trkpt lat="43.96312" lon="7.44956">
        <ele>1912.88</ele>
        <time>2020-06-25T12:05:27Z</time>
      </trkpt>
      <trkpt lat="43.96312" lon="7.44953">
        <ele>1912.313</ele>
        <time>2020-06-25T12:05:43Z</time>
      </trkpt>
      <trkpt lat="43.96311" lon="7.44954">
        <ele>1911.637</ele>
        <time>2020-06-25T12:05:58Z</time>
      </trkpt>
      <trkpt lat="43.96304" lon="7.44947">
        <ele>1913.005</ele>
        <time>2020-06-25T12:06:13Z</time>
      </trkpt>
      <trkpt lat="43.96304" lon="7.44947">
        <ele>1913.005</ele>
        <time>2020-06-25T12:06:28Z</time>
      </trkpt>
      <trkpt lat="43.96304" lon="7.44947">
        <ele>1913.005</ele>
        <time>2020-06-25T12:06:44Z</time>
      </trkpt>
      <trkpt lat="43.96304" lon="7.44947">
        <ele>1913.005</ele>
        <time>2020-06-25T12:06:59Z</time>
      </trkpt>
      <trkpt lat="43.96311" lon="7.44948">
        <ele>1911.406</ele>
        <time>2020-06-25T12:07:15Z</time>
      </trkpt>
      <trkpt lat="43.96334" lon="7.44941">
        <ele>1911.798</ele>
        <time>2020-06-25T12:07:31Z</time>
      </trkpt>
      <trkpt lat="43.9635" lon="7.44929">
        <ele>1912.677</ele>
        <time>2020-06-25T12:07:46Z</time>
      </trkpt>
      <trkpt lat="43.96368" lon="7.44914">
        <ele>1915</ele>
        <time>2020-06-25T12:08:02Z</time>
      </trkpt>
      <trkpt lat="43.9638" lon="7.44898">
        <ele>1913.993</ele>
        <time>2020-06-25T12:08:18Z</time>
      </trkpt>
      <trkpt lat="43.96388" lon="7.44894">
        <ele>1912.244</ele>
        <time>2020-06-25T12:08:34Z</time>
      </trkpt>
      <trkpt lat="43.96404" lon="7.44886">
        <ele>1914.075</ele>
        <time>2020-06-25T12:08:50Z</time>
      </trkpt>
      <trkpt lat="43.96416" lon="7.44884">
        <ele>1916.143</ele>
        <time>2020-06-25T12:09:06Z</time>
      </trkpt>
      <trkpt lat="43.96428" lon="7.4488">
        <ele>1916.391</ele>
        <time>2020-06-25T12:09:22Z</time>
      </trkpt>
      <trkpt lat="43.96439" lon="7.44877">
        <ele>1920.429</ele>
        <time>2020-06-25T12:09:38Z</time>
      </trkpt>
      <trkpt lat="43.96452" lon="7.44866">
        <ele>1925.805</ele>
        <time>2020-06-25T12:09:54Z</time>
      </trkpt>
      <trkpt lat="43.96462" lon="7.44863">
        <ele>1928.276</ele>
        <time>2020-06-25T12:10:10Z</time>
      </trkpt>
      <trkpt lat="43.96475" lon="7.44854">
        <ele>1931.436</ele>
        <time>2020-06-25T12:10:26Z</time>
      </trkpt>
      <trkpt lat="43.96489" lon="7.44839">
        <ele>1934.969</ele>
        <time>2020-06-25T12:10:41Z</time>
      </trkpt>
      <trkpt lat="43.96496" lon="7.44831">
        <ele>1937.079</ele>
        <time>2020-06-25T12:10:57Z</time>
      </trkpt>
      <trkpt lat="43.96505" lon="7.44832">
        <ele>1933.077</ele>
        <time>2020-06-25T12:11:13Z</time>
      </trkpt>
      <trkpt lat="43.9651" lon="7.44827">
        <ele>1926.903</ele>
        <time>2020-06-25T12:11:28Z</time>
      </trkpt>
      <trkpt lat="43.96514" lon="7.44824">
        <ele>1923.955</ele>
        <time>2020-06-25T12:11:44Z</time>
      </trkpt>
      <trkpt lat="43.96527" lon="7.44816">
        <ele>1923.674</ele>
        <time>2020-06-25T12:12:00Z</time>
      </trkpt>
      <trkpt lat="43.96542" lon="7.44807">
        <ele>1926.316</ele>
        <time>2020-06-25T12:12:16Z</time>
      </trkpt>
      <trkpt lat="43.96554" lon="7.44801">
        <ele>1929.063</ele>
        <time>2020-06-25T12:12:31Z</time>
      </trkpt>
      <trkpt lat="43.96568" lon="7.44798">
        <ele>1931.291</ele>
        <time>2020-06-25T12:12:47Z</time>
      </trkpt>
      <trkpt lat="43.96572" lon="7.44795">
        <ele>1933.646</ele>
        <time>2020-06-25T12:13:03Z</time>
      </trkpt>
      <trkpt lat="43.96582" lon="7.44796">
        <ele>1938.578</ele>
        <time>2020-06-25T12:13:19Z</time>
      </trkpt>
      <trkpt lat="43.96589" lon="7.44792">
        <ele>1938.444</ele>
        <time>2020-06-25T12:13:34Z</time>
      </trkpt>
      <trkpt lat="43.96605" lon="7.44786">
        <ele>1937.752</ele>
        <time>2020-06-25T12:13:49Z</time>
      </trkpt>
      <trkpt lat="43.9662" lon="7.44783">
        <ele>1937.405</ele>
        <time>2020-06-25T12:14:05Z</time>
      </trkpt>
      <trkpt lat="43.9663" lon="7.44777">
        <ele>1939.651</ele>
        <time>2020-06-25T12:14:20Z</time>
      </trkpt>
      <trkpt lat="43.96644" lon="7.44777">
        <ele>1938.49</ele>
        <time>2020-06-25T12:14:36Z</time>
      </trkpt>
      <trkpt lat="43.96656" lon="7.44774">
        <ele>1941.318</ele>
        <time>2020-06-25T12:14:52Z</time>
      </trkpt>
      <trkpt lat="43.96672" lon="7.4477">
        <ele>1944.265</ele>
        <time>2020-06-25T12:15:08Z</time>
      </trkpt>
      <trkpt lat="43.96687" lon="7.44768">
        <ele>1947.316</ele>
        <time>2020-06-25T12:15:23Z</time>
      </trkpt>
      <trkpt lat="43.96698" lon="7.44772">
        <ele>1950.491</ele>
        <time>2020-06-25T12:15:39Z</time>
      </trkpt>
      <trkpt lat="43.96708" lon="7.44771">
        <ele>1951.924</ele>
        <time>2020-06-25T12:15:54Z</time>
      </trkpt>
      <trkpt lat="43.96725" lon="7.44773">
        <ele>1956.879</ele>
        <time>2020-06-25T12:16:10Z</time>
      </trkpt>
      <trkpt lat="43.96732" lon="7.44767">
        <ele>1957.49</ele>
        <time>2020-06-25T12:16:25Z</time>
      </trkpt>
      <trkpt lat="43.96746" lon="7.44759">
        <ele>1952.824</ele>
        <time>2020-06-25T12:16:41Z</time>
      </trkpt>
      <trkpt lat="43.96761" lon="7.44758">
        <ele>1953.482</ele>
        <time>2020-06-25T12:16:56Z</time>
      </trkpt>
      <trkpt lat="43.96778" lon="7.44752">
        <ele>1950.677</ele>
        <time>2020-06-25T12:17:12Z</time>
      </trkpt>
      <trkpt lat="43.96789" lon="7.44751">
        <ele>1957.337</ele>
        <time>2020-06-25T12:17:28Z</time>
      </trkpt>
      <trkpt lat="43.96802" lon="7.44746">
        <ele>1959.332</ele>
        <time>2020-06-25T12:17:43Z</time>
      </trkpt>
      <trkpt lat="43.96808" lon="7.44745">
        <ele>1959.254</ele>
        <time>2020-06-25T12:17:58Z</time>
      </trkpt>
      <trkpt lat="43.96823" lon="7.44741">
        <ele>1961.42</ele>
        <time>2020-06-25T12:18:13Z</time>
      </trkpt>
      <trkpt lat="43.96844" lon="7.44735">
        <ele>1962.714</ele>
        <time>2020-06-25T12:18:28Z</time>
      </trkpt>
      <trkpt lat="43.96858" lon="7.44728">
        <ele>1960.46</ele>
        <time>2020-06-25T12:18:44Z</time>
      </trkpt>
      <trkpt lat="43.96871" lon="7.44731">
        <ele>1959.183</ele>
        <time>2020-06-25T12:18:59Z</time>
      </trkpt>
      <trkpt lat="43.96895" lon="7.44723">
        <ele>1956.308</ele>
        <time>2020-06-25T12:19:15Z</time>
      </trkpt>
      <trkpt lat="43.96907" lon="7.44713">
        <ele>1957.701</ele>
        <time>2020-06-25T12:19:30Z</time>
      </trkpt>
      <trkpt lat="43.96932" lon="7.44703">
        <ele>1959.368</ele>
        <time>2020-06-25T12:19:46Z</time>
      </trkpt>
      <trkpt lat="43.96947" lon="7.44699">
        <ele>1962.737</ele>
        <time>2020-06-25T12:20:02Z</time>
      </trkpt>
      <trkpt lat="43.96968" lon="7.4469">
        <ele>1968.678</ele>
        <time>2020-06-25T12:20:17Z</time>
      </trkpt>
      <trkpt lat="43.96987" lon="7.44701">
        <ele>1972.108</ele>
        <time>2020-06-25T12:20:32Z</time>
      </trkpt>
      <trkpt lat="43.96998" lon="7.44711">
        <ele>1974.391</ele>
        <time>2020-06-25T12:20:48Z</time>
      </trkpt>
      <trkpt lat="43.97015" lon="7.44715">
        <ele>1968.297</ele>
        <time>2020-06-25T12:21:03Z</time>
      </trkpt>
      <trkpt lat="43.97026" lon="7.44727">
        <ele>1966.844</ele>
        <time>2020-06-25T12:21:18Z</time>
      </trkpt>
      <trkpt lat="43.97043" lon="7.44733">
        <ele>1967.648</ele>
        <time>2020-06-25T12:21:34Z</time>
      </trkpt>
      <trkpt lat="43.97053" lon="7.4474">
        <ele>1967.057</ele>
        <time>2020-06-25T12:21:50Z</time>
      </trkpt>
      <trkpt lat="43.97074" lon="7.44748">
        <ele>1968.937</ele>
        <time>2020-06-25T12:22:06Z</time>
      </trkpt>
      <trkpt lat="43.97085" lon="7.44767">
        <ele>1969.511</ele>
        <time>2020-06-25T12:22:21Z</time>
      </trkpt>
      <trkpt lat="43.97107" lon="7.4478">
        <ele>1973.429</ele>
        <time>2020-06-25T12:22:36Z</time>
      </trkpt>
      <trkpt lat="43.97128" lon="7.44789">
        <ele>1981.33</ele>
        <time>2020-06-25T12:22:52Z</time>
      </trkpt>
      <trkpt lat="43.97139" lon="7.44798">
        <ele>1978.042</ele>
        <time>2020-06-25T12:23:07Z</time>
      </trkpt>
      <trkpt lat="43.97154" lon="7.44808">
        <ele>1970.41</ele>
        <time>2020-06-25T12:23:23Z</time>
      </trkpt>
      <trkpt lat="43.9717" lon="7.44819">
        <ele>1964.208</ele>
        <time>2020-06-25T12:23:39Z</time>
      </trkpt>
      <trkpt lat="43.97189" lon="7.44828">
        <ele>1966.295</ele>
        <time>2020-06-25T12:23:55Z</time>
      </trkpt>
      <trkpt lat="43.97208" lon="7.44836">
        <ele>1955.412</ele>
        <time>2020-06-25T12:24:10Z</time>
      </trkpt>
      <trkpt lat="43.97227" lon="7.44832">
        <ele>1949.934</ele>
        <time>2020-06-25T12:24:25Z</time>
      </trkpt>
      <trkpt lat="43.97234" lon="7.44838">
        <ele>1950.49</ele>
        <time>2020-06-25T12:24:41Z</time>
      </trkpt>
      <trkpt lat="43.97248" lon="7.44847">
        <ele>1944.46</ele>
        <time>2020-06-25T12:24:56Z</time>
      </trkpt>
      <trkpt lat="43.97282" lon="7.44864">
        <ele>1945.174</ele>
        <time>2020-06-25T12:25:12Z</time>
      </trkpt>
      <trkpt lat="43.97286" lon="7.44875">
        <ele>1942.667</ele>
        <time>2020-06-25T12:25:27Z</time>
      </trkpt>
      <trkpt lat="43.97302" lon="7.44891">
        <ele>1939.93</ele>
        <time>2020-06-25T12:25:43Z</time>
      </trkpt>
      <trkpt lat="43.97321" lon="7.44893">
        <ele>1933.995</ele>
        <time>2020-06-25T12:25:59Z</time>
      </trkpt>
      <trkpt lat="43.97327" lon="7.44883">
        <ele>1931.7</ele>
        <time>2020-06-25T12:26:14Z</time>
      </trkpt>
      <trkpt lat="43.97328" lon="7.44871">
        <ele>1932.034</ele>
        <time>2020-06-25T12:26:29Z</time>
      </trkpt>
      <trkpt lat="43.97328" lon="7.44871">
        <ele>1932.034</ele>
        <time>2020-06-25T12:26:45Z</time>
      </trkpt>
      <trkpt lat="43.97329" lon="7.4487">
        <ele>1931.808</ele>
        <time>2020-06-25T12:27:00Z</time>
      </trkpt>
      <trkpt lat="43.97334" lon="7.44842">
        <ele>1935.612</ele>
        <time>2020-06-25T12:27:16Z</time>
      </trkpt>
      <trkpt lat="43.97334" lon="7.44842">
        <ele>1935.71</ele>
        <time>2020-06-25T12:27:32Z</time>
      </trkpt>
      <trkpt lat="43.97334" lon="7.44842">
        <ele>1935.71</ele>
        <time>2020-06-25T12:27:48Z</time>
      </trkpt>
      <trkpt lat="43.97339" lon="7.44837">
        <ele>1936.092</ele>
        <time>2020-06-25T12:28:04Z</time>
      </trkpt>
      <trkpt lat="43.97357" lon="7.44823">
        <ele>1934.699</ele>
        <time>2020-06-25T12:28:20Z</time>
      </trkpt>
      <trkpt lat="43.97371" lon="7.44807">
        <ele>1929.039</ele>
        <time>2020-06-25T12:28:36Z</time>
      </trkpt>
      <trkpt lat="43.97384" lon="7.44795">
        <ele>1926.612</ele>
        <time>2020-06-25T12:28:51Z</time>
      </trkpt>
      <trkpt lat="43.97398" lon="7.44775">
        <ele>1928.711</ele>
        <time>2020-06-25T12:29:06Z</time>
      </trkpt>
      <trkpt lat="43.97419" lon="7.44764">
        <ele>1932.52</ele>
        <time>2020-06-25T12:29:22Z</time>
      </trkpt>
      <trkpt lat="43.9744" lon="7.44762">
        <ele>1933.589</ele>
        <time>2020-06-25T12:29:37Z</time>
      </trkpt>
      <trkpt lat="43.97457" lon="7.44755">
        <ele>1933.67</ele>
        <time>2020-06-25T12:29:52Z</time>
      </trkpt>
      <trkpt lat="43.97469" lon="7.4474">
        <ele>1933.858</ele>
        <time>2020-06-25T12:30:08Z</time>
      </trkpt>
      <trkpt lat="43.97486" lon="7.4473">
        <ele>1935.004</ele>
        <time>2020-06-25T12:30:23Z</time>
      </trkpt>
      <trkpt lat="43.97506" lon="7.44719">
        <ele>1938.199</ele>
        <time>2020-06-25T12:30:39Z</time>
      </trkpt>
      <trkpt lat="43.97514" lon="7.44704">
        <ele>1939.411</ele>
        <time>2020-06-25T12:30:55Z</time>
      </trkpt>
      <trkpt lat="43.97527" lon="7.44685">
        <ele>1940.946</ele>
        <time>2020-06-25T12:31:11Z</time>
      </trkpt>
      <trkpt lat="43.97528" lon="7.44683">
        <ele>1940.79</ele>
        <time>2020-06-25T12:31:26Z</time>
      </trkpt>
      <trkpt lat="43.97523" lon="7.44697">
        <ele>1938.246</ele>
        <time>2020-06-25T12:31:42Z</time>
      </trkpt>
      <trkpt lat="43.97516" lon="7.4472">
        <ele>1936.918</ele>
        <time>2020-06-25T12:31:58Z</time>
      </trkpt>
      <trkpt lat="43.97524" lon="7.44719">
        <ele>1937.06</ele>
        <time>2020-06-25T12:32:14Z</time>
      </trkpt>
      <trkpt lat="43.97541" lon="7.44715">
        <ele>1936.821</ele>
        <time>2020-06-25T12:32:30Z</time>
      </trkpt>
      <trkpt lat="43.97559" lon="7.44714">
        <ele>1937.585</ele>
        <time>2020-06-25T12:32:45Z</time>
      </trkpt>
      <trkpt lat="43.97575" lon="7.44702">
        <ele>1940.069</ele>
        <time>2020-06-25T12:33:01Z</time>
      </trkpt>
      <trkpt lat="43.97588" lon="7.44692">
        <ele>1941.571</ele>
        <time>2020-06-25T12:33:17Z</time>
      </trkpt>
      <trkpt lat="43.97604" lon="7.44679">
        <ele>1937.859</ele>
        <time>2020-06-25T12:33:32Z</time>
      </trkpt>
      <trkpt lat="43.97621" lon="7.44666">
        <ele>1940.136</ele>
        <time>2020-06-25T12:33:48Z</time>
      </trkpt>
      <trkpt lat="43.97639" lon="7.44654">
        <ele>1938.727</ele>
        <time>2020-06-25T12:34:03Z</time>
      </trkpt>
      <trkpt lat="43.97649" lon="7.44646">
        <ele>1940.731</ele>
        <time>2020-06-25T12:34:19Z</time>
      </trkpt>
      <trkpt lat="43.97663" lon="7.44637">
        <ele>1939.805</ele>
        <time>2020-06-25T12:34:34Z</time>
      </trkpt>
      <trkpt lat="43.97681" lon="7.44621">
        <ele>1937.003</ele>
        <time>2020-06-25T12:34:50Z</time>
      </trkpt>
      <trkpt lat="43.97698" lon="7.44612">
        <ele>1938.41</ele>
        <time>2020-06-25T12:35:05Z</time>
      </trkpt>
      <trkpt lat="43.97715" lon="7.44608">
        <ele>1939.628</ele>
        <time>2020-06-25T12:35:21Z</time>
      </trkpt>
      <trkpt lat="43.9773" lon="7.44604">
        <ele>1936.017</ele>
        <time>2020-06-25T12:35:37Z</time>
      </trkpt>
      <trkpt lat="43.97749" lon="7.44601">
        <ele>1928.601</ele>
        <time>2020-06-25T12:35:53Z</time>
      </trkpt>
      <trkpt lat="43.97765" lon="7.44585">
        <ele>1932.217</ele>
        <time>2020-06-25T12:36:08Z</time>
      </trkpt>
      <trkpt lat="43.97773" lon="7.44572">
        <ele>1932.002</ele>
        <time>2020-06-25T12:36:24Z</time>
      </trkpt>
      <trkpt lat="43.97773" lon="7.44572">
        <ele>1932.002</ele>
        <time>2020-06-25T12:36:40Z</time>
      </trkpt>
      <trkpt lat="43.97773" lon="7.44572">
        <ele>1932.002</ele>
        <time>2020-06-25T12:36:55Z</time>
      </trkpt>
      <trkpt lat="43.97773" lon="7.44572">
        <ele>1932.002</ele>
        <time>2020-06-25T12:37:10Z</time>
      </trkpt>
      <trkpt lat="43.97773" lon="7.44572">
        <ele>1932.002</ele>
        <time>2020-06-25T12:37:25Z</time>
      </trkpt>
      <trkpt lat="43.97773" lon="7.44572">
        <ele>1932.002</ele>
        <time>2020-06-25T12:37:41Z</time>
      </trkpt>
      <trkpt lat="43.97773" lon="7.44572">
        <ele>1932.002</ele>
        <time>2020-06-25T12:37:56Z</time>
      </trkpt>
      <trkpt lat="43.97775" lon="7.44576">
        <ele>1932.437</ele>
        <time>2020-06-25T12:38:12Z</time>
      </trkpt>
      <trkpt lat="43.97775" lon="7.44576">
        <ele>1932.437</ele>
        <time>2020-06-25T12:38:27Z</time>
      </trkpt>
      <trkpt lat="43.97775" lon="7.44576">
        <ele>1932.437</ele>
        <time>2020-06-25T12:38:43Z</time>
      </trkpt>
      <trkpt lat="43.97775" lon="7.44576">
        <ele>1932.437</ele>
        <time>2020-06-25T12:38:59Z</time>
      </trkpt>
      <trkpt lat="43.97775" lon="7.44576">
        <ele>1932.437</ele>
        <time>2020-06-25T12:39:15Z</time>
      </trkpt>
      <trkpt lat="43.97775" lon="7.44576">
        <ele>1932.437</ele>
        <time>2020-06-25T12:39:30Z</time>
      </trkpt>
      <trkpt lat="43.97776" lon="7.44574">
        <ele>1931.165</ele>
        <time>2020-06-25T12:39:46Z</time>
      </trkpt>
      <trkpt lat="43.97776" lon="7.44574">
        <ele>1931.165</ele>
        <time>2020-06-25T12:40:01Z</time>
      </trkpt>
      <trkpt lat="43.97781" lon="7.4457">
        <ele>1930.277</ele>
        <time>2020-06-25T12:40:17Z</time>
      </trkpt>
      <trkpt lat="43.97797" lon="7.44569">
        <ele>1924.361</ele>
        <time>2020-06-25T12:40:33Z</time>
      </trkpt>
      <trkpt lat="43.9781" lon="7.44563">
        <ele>1923.514</ele>
        <time>2020-06-25T12:40:49Z</time>
      </trkpt>
      <trkpt lat="43.97821" lon="7.44558">
        <ele>1921.629</ele>
        <time>2020-06-25T12:41:04Z</time>
      </trkpt>
      <trkpt lat="43.9784" lon="7.44556">
        <ele>1920.779</ele>
        <time>2020-06-25T12:41:20Z</time>
      </trkpt>
      <trkpt lat="43.97857" lon="7.4455">
        <ele>1917.754</ele>
        <time>2020-06-25T12:41:36Z</time>
      </trkpt>
      <trkpt lat="43.97876" lon="7.44544">
        <ele>1916.91</ele>
        <time>2020-06-25T12:41:52Z</time>
      </trkpt>
      <trkpt lat="43.97892" lon="7.44544">
        <ele>1913.039</ele>
        <time>2020-06-25T12:42:08Z</time>
      </trkpt>
      <trkpt lat="43.97906" lon="7.44544">
        <ele>1910.111</ele>
        <time>2020-06-25T12:42:23Z</time>
      </trkpt>
      <trkpt lat="43.97917" lon="7.44544">
        <ele>1906.197</ele>
        <time>2020-06-25T12:42:39Z</time>
      </trkpt>
      <trkpt lat="43.97932" lon="7.44532">
        <ele>1906.024</ele>
        <time>2020-06-25T12:42:55Z</time>
      </trkpt>
      <trkpt lat="43.97944" lon="7.44528">
        <ele>1906.248</ele>
        <time>2020-06-25T12:43:10Z</time>
      </trkpt>
      <trkpt lat="43.97965" lon="7.44526">
        <ele>1903.709</ele>
        <time>2020-06-25T12:43:25Z</time>
      </trkpt>
      <trkpt lat="43.97979" lon="7.44528">
        <ele>1901.936</ele>
        <time>2020-06-25T12:43:41Z</time>
      </trkpt>
      <trkpt lat="43.97989" lon="7.44535">
        <ele>1899.714</ele>
        <time>2020-06-25T12:43:57Z</time>
      </trkpt>
      <trkpt lat="43.97998" lon="7.44535">
        <ele>1894.226</ele>
        <time>2020-06-25T12:44:13Z</time>
      </trkpt>
      <trkpt lat="43.98009" lon="7.44517">
        <ele>1894.097</ele>
        <time>2020-06-25T12:44:28Z</time>
      </trkpt>
      <trkpt lat="43.98017" lon="7.44499">
        <ele>1894.32</ele>
        <time>2020-06-25T12:44:44Z</time>
      </trkpt>
      <trkpt lat="43.98039" lon="7.44485">
        <ele>1891.736</ele>
        <time>2020-06-25T12:45:00Z</time>
      </trkpt>
      <trkpt lat="43.98054" lon="7.44472">
        <ele>1887.261</ele>
        <time>2020-06-25T12:45:16Z</time>
      </trkpt>
      <trkpt lat="43.98068" lon="7.44457">
        <ele>1885.671</ele>
        <time>2020-06-25T12:45:31Z</time>
      </trkpt>
      <trkpt lat="43.98073" lon="7.44447">
        <ele>1882.712</ele>
        <time>2020-06-25T12:45:47Z</time>
      </trkpt>
      <trkpt lat="43.98081" lon="7.4443">
        <ele>1881.052</ele>
        <time>2020-06-25T12:46:02Z</time>
      </trkpt>
      <trkpt lat="43.98094" lon="7.44405">
        <ele>1880.812</ele>
        <time>2020-06-25T12:46:18Z</time>
      </trkpt>
      <trkpt lat="43.9811" lon="7.4439">
        <ele>1879.541</ele>
        <time>2020-06-25T12:46:34Z</time>
      </trkpt>
      <trkpt lat="43.98135" lon="7.44387">
        <ele>1871.318</ele>
        <time>2020-06-25T12:46:50Z</time>
      </trkpt>
      <trkpt lat="43.98141" lon="7.44386">
        <ele>1869.113</ele>
        <time>2020-06-25T12:47:06Z</time>
      </trkpt>
      <trkpt lat="43.98162" lon="7.44384">
        <ele>1863.884</ele>
        <time>2020-06-25T12:47:21Z</time>
      </trkpt>
      <trkpt lat="43.98181" lon="7.44381">
        <ele>1857.868</ele>
        <time>2020-06-25T12:47:37Z</time>
      </trkpt>
      <trkpt lat="43.98197" lon="7.44373">
        <ele>1857.022</ele>
        <time>2020-06-25T12:47:52Z</time>
      </trkpt>
      <trkpt lat="43.98199" lon="7.44371">
        <ele>1857.709</ele>
        <time>2020-06-25T12:48:08Z</time>
      </trkpt>
      <trkpt lat="43.98199" lon="7.44371">
        <ele>1856.378</ele>
        <time>2020-06-25T12:48:24Z</time>
      </trkpt>
      <trkpt lat="43.98199" lon="7.44373">
        <ele>1856.133</ele>
        <time>2020-06-25T12:48:40Z</time>
      </trkpt>
      <trkpt lat="43.98199" lon="7.44373">
        <ele>1856.133</ele>
        <time>2020-06-25T12:48:56Z</time>
      </trkpt>
      <trkpt lat="43.98199" lon="7.44373">
        <ele>1856.133</ele>
        <time>2020-06-25T12:49:11Z</time>
      </trkpt>
      <trkpt lat="43.98199" lon="7.44373">
        <ele>1856.133</ele>
        <time>2020-06-25T12:49:27Z</time>
      </trkpt>
      <trkpt lat="43.98199" lon="7.44373">
        <ele>1856.133</ele>
        <time>2020-06-25T12:49:43Z</time>
      </trkpt>
      <trkpt lat="43.98199" lon="7.44373">
        <ele>1856.133</ele>
        <time>2020-06-25T12:49:59Z</time>
      </trkpt>
      <trkpt lat="43.98199" lon="7.44373">
        <ele>1856.133</ele>
        <time>2020-06-25T12:50:14Z</time>
      </trkpt>
      <trkpt lat="43.98199" lon="7.44373">
        <ele>1856.133</ele>
        <time>2020-06-25T12:50:30Z</time>
      </trkpt>
      <trkpt lat="43.98199" lon="7.44373">
        <ele>1856.133</ele>
        <time>2020-06-25T12:50:46Z</time>
      </trkpt>
      <trkpt lat="43.98199" lon="7.44373">
        <ele>1856.133</ele>
        <time>2020-06-25T12:51:02Z</time>
      </trkpt>
      <trkpt lat="43.98204" lon="7.4435">
        <ele>1853.575</ele>
        <time>2020-06-25T12:51:17Z</time>
      </trkpt>
      <trkpt lat="43.98209" lon="7.44328">
        <ele>1852.366</ele>
        <time>2020-06-25T12:51:33Z</time>
      </trkpt>
      <trkpt lat="43.98216" lon="7.44308">
        <ele>1848.888</ele>
        <time>2020-06-25T12:51:49Z</time>
      </trkpt>
      <trkpt lat="43.98223" lon="7.44286">
        <ele>1845.758</ele>
        <time>2020-06-25T12:52:05Z</time>
      </trkpt>
      <trkpt lat="43.9823" lon="7.44269">
        <ele>1843.988</ele>
        <time>2020-06-25T12:52:21Z</time>
      </trkpt>
      <trkpt lat="43.98241" lon="7.44251">
        <ele>1843.214</ele>
        <time>2020-06-25T12:52:37Z</time>
      </trkpt>
      <trkpt lat="43.98247" lon="7.44241">
        <ele>1841.58</ele>
        <time>2020-06-25T12:52:53Z</time>
      </trkpt>
      <trkpt lat="43.98255" lon="7.44218">
        <ele>1839.738</ele>
        <time>2020-06-25T12:53:09Z</time>
      </trkpt>
      <trkpt lat="43.98265" lon="7.442">
        <ele>1833.282</ele>
        <time>2020-06-25T12:53:24Z</time>
      </trkpt>
      <trkpt lat="43.98276" lon="7.44177">
        <ele>1832.257</ele>
        <time>2020-06-25T12:53:40Z</time>
      </trkpt>
      <trkpt lat="43.98284" lon="7.44157">
        <ele>1830.159</ele>
        <time>2020-06-25T12:53:55Z</time>
      </trkpt>
      <trkpt lat="43.98291" lon="7.44146">
        <ele>1828.326</ele>
        <time>2020-06-25T12:54:11Z</time>
      </trkpt>
      <trkpt lat="43.98279" lon="7.4415">
        <ele>1828.278</ele>
        <time>2020-06-25T12:54:26Z</time>
      </trkpt>
      <trkpt lat="43.98266" lon="7.44162">
        <ele>1825.007</ele>
        <time>2020-06-25T12:54:42Z</time>
      </trkpt>
      <trkpt lat="43.98254" lon="7.44179">
        <ele>1825.374</ele>
        <time>2020-06-25T12:54:57Z</time>
      </trkpt>
      <trkpt lat="43.98249" lon="7.44182">
        <ele>1823.82</ele>
        <time>2020-06-25T12:55:12Z</time>
      </trkpt>
      <trkpt lat="43.98235" lon="7.44194">
        <ele>1823.918</ele>
        <time>2020-06-25T12:55:28Z</time>
      </trkpt>
      <trkpt lat="43.98227" lon="7.442">
        <ele>1825.035</ele>
        <time>2020-06-25T12:55:44Z</time>
      </trkpt>
      <trkpt lat="43.98227" lon="7.442">
        <ele>1825.035</ele>
        <time>2020-06-25T12:55:59Z</time>
      </trkpt>
      <trkpt lat="43.98227" lon="7.442">
        <ele>1825.035</ele>
        <time>2020-06-25T12:56:15Z</time>
      </trkpt>
      <trkpt lat="43.98217" lon="7.44197">
        <ele>1819.582</ele>
        <time>2020-06-25T12:56:31Z</time>
      </trkpt>
      <trkpt lat="43.982" lon="7.44199">
        <ele>1815.157</ele>
        <time>2020-06-25T12:56:46Z</time>
      </trkpt>
      <trkpt lat="43.98189" lon="7.44202">
        <ele>1807.432</ele>
        <time>2020-06-25T12:57:01Z</time>
      </trkpt>
      <trkpt lat="43.98198" lon="7.44174">
        <ele>1804.12</ele>
        <time>2020-06-25T12:57:16Z</time>
      </trkpt>
      <trkpt lat="43.98209" lon="7.44163">
        <ele>1804.532</ele>
        <time>2020-06-25T12:57:32Z</time>
      </trkpt>
      <trkpt lat="43.98208" lon="7.44146">
        <ele>1806.396</ele>
        <time>2020-06-25T12:57:47Z</time>
      </trkpt>
      <trkpt lat="43.98218" lon="7.44128">
        <ele>1798.191</ele>
        <time>2020-06-25T12:58:03Z</time>
      </trkpt>
      <trkpt lat="43.98223" lon="7.4411">
        <ele>1796.245</ele>
        <time>2020-06-25T12:58:19Z</time>
      </trkpt>
      <trkpt lat="43.98225" lon="7.44091">
        <ele>1798.636</ele>
        <time>2020-06-25T12:58:34Z</time>
      </trkpt>
      <trkpt lat="43.98231" lon="7.44079">
        <ele>1797.628</ele>
        <time>2020-06-25T12:58:50Z</time>
      </trkpt>
      <trkpt lat="43.98239" lon="7.44058">
        <ele>1795.668</ele>
        <time>2020-06-25T12:59:06Z</time>
      </trkpt>
      <trkpt lat="43.98245" lon="7.44036">
        <ele>1793.779</ele>
        <time>2020-06-25T12:59:22Z</time>
      </trkpt>
      <trkpt lat="43.98255" lon="7.44022">
        <ele>1789.926</ele>
        <time>2020-06-25T12:59:38Z</time>
      </trkpt>
      <trkpt lat="43.98256" lon="7.4402">
        <ele>1786.238</ele>
        <time>2020-06-25T12:59:54Z</time>
      </trkpt>
      <trkpt lat="43.98243" lon="7.4402">
        <ele>1773.21</ele>
        <time>2020-06-25T13:00:09Z</time>
      </trkpt>
      <trkpt lat="43.98233" lon="7.44018">
        <ele>1766.867</ele>
        <time>2020-06-25T13:00:25Z</time>
      </trkpt>
      <trkpt lat="43.98219" lon="7.44021">
        <ele>1770.02</ele>
        <time>2020-06-25T13:00:41Z</time>
      </trkpt>
      <trkpt lat="43.98215" lon="7.44021">
        <ele>1772.428</ele>
        <time>2020-06-25T13:00:56Z</time>
      </trkpt>
      <trkpt lat="43.98215" lon="7.44021">
        <ele>1772.428</ele>
        <time>2020-06-25T13:01:11Z</time>
      </trkpt>
      <trkpt lat="43.98214" lon="7.44021">
        <ele>1771.971</ele>
        <time>2020-06-25T13:01:27Z</time>
      </trkpt>
      <trkpt lat="43.98213" lon="7.44019">
        <ele>1771.903</ele>
        <time>2020-06-25T13:01:43Z</time>
      </trkpt>
      <trkpt lat="43.98213" lon="7.44019">
        <ele>1772.008</ele>
        <time>2020-06-25T13:01:58Z</time>
      </trkpt>
      <trkpt lat="43.98213" lon="7.44019">
        <ele>1772.008</ele>
        <time>2020-06-25T13:02:13Z</time>
      </trkpt>
      <trkpt lat="43.98213" lon="7.44019">
        <ele>1772.008</ele>
        <time>2020-06-25T13:02:29Z</time>
      </trkpt>
      <trkpt lat="43.98213" lon="7.44019">
        <ele>1772.008</ele>
        <time>2020-06-25T13:02:45Z</time>
      </trkpt>
      <trkpt lat="43.98213" lon="7.44019">
        <ele>1772.008</ele>
        <time>2020-06-25T13:03:00Z</time>
      </trkpt>
      <trkpt lat="43.98212" lon="7.44019">
        <ele>1773.254</ele>
        <time>2020-06-25T13:03:16Z</time>
      </trkpt>
      <trkpt lat="43.98214" lon="7.44019">
        <ele>1773.705</ele>
        <time>2020-06-25T13:03:31Z</time>
      </trkpt>
      <trkpt lat="43.98215" lon="7.44017">
        <ele>1773.77</ele>
        <time>2020-06-25T13:03:47Z</time>
      </trkpt>
      <trkpt lat="43.98215" lon="7.44017">
        <ele>1773.77</ele>
        <time>2020-06-25T13:04:03Z</time>
      </trkpt>
      <trkpt lat="43.98213" lon="7.44018">
        <ele>1771.028</ele>
        <time>2020-06-25T13:04:19Z</time>
      </trkpt>
      <trkpt lat="43.98213" lon="7.44018">
        <ele>1771.028</ele>
        <time>2020-06-25T13:04:35Z</time>
      </trkpt>
      <trkpt lat="43.98213" lon="7.44018">
        <ele>1771.028</ele>
        <time>2020-06-25T13:04:50Z</time>
      </trkpt>
      <trkpt lat="43.98213" lon="7.44018">
        <ele>1771.028</ele>
        <time>2020-06-25T13:05:06Z</time>
      </trkpt>
      <trkpt lat="43.98214" lon="7.44017">
        <ele>1767.007</ele>
        <time>2020-06-25T13:05:22Z</time>
      </trkpt>
      <trkpt lat="43.98214" lon="7.44017">
        <ele>1764.37</ele>
        <time>2020-06-25T13:05:38Z</time>
      </trkpt>
      <trkpt lat="43.98214" lon="7.44017">
        <ele>1764.37</ele>
        <time>2020-06-25T13:05:54Z</time>
      </trkpt>
      <trkpt lat="43.98215" lon="7.44016">
        <ele>1764.572</ele>
        <time>2020-06-25T13:06:10Z</time>
      </trkpt>
      <trkpt lat="43.98214" lon="7.44017">
        <ele>1761.86</ele>
        <time>2020-06-25T13:06:25Z</time>
      </trkpt>
      <trkpt lat="43.98213" lon="7.4402">
        <ele>1761.088</ele>
        <time>2020-06-25T13:06:41Z</time>
      </trkpt>
      <trkpt lat="43.98213" lon="7.4402">
        <ele>1761.088</ele>
        <time>2020-06-25T13:06:57Z</time>
      </trkpt>
      <trkpt lat="43.98216" lon="7.44022">
        <ele>1758.39</ele>
        <time>2020-06-25T13:07:12Z</time>
      </trkpt>
      <trkpt lat="43.98216" lon="7.44022">
        <ele>1757.563</ele>
        <time>2020-06-25T13:07:27Z</time>
      </trkpt>
      <trkpt lat="43.98216" lon="7.44022">
        <ele>1757.563</ele>
        <time>2020-06-25T13:07:42Z</time>
      </trkpt>
      <trkpt lat="43.98212" lon="7.44027">
        <ele>1757.759</ele>
        <time>2020-06-25T13:07:58Z</time>
      </trkpt>
      <trkpt lat="43.98212" lon="7.44027">
        <ele>1757.759</ele>
        <time>2020-06-25T13:08:14Z</time>
      </trkpt>
      <trkpt lat="43.98212" lon="7.44027">
        <ele>1757.759</ele>
        <time>2020-06-25T13:08:29Z</time>
      </trkpt>
      <trkpt lat="43.98212" lon="7.44027">
        <ele>1757.759</ele>
        <time>2020-06-25T13:08:46Z</time>
      </trkpt>
      <trkpt lat="43.98212" lon="7.44027">
        <ele>1757.759</ele>
        <time>2020-06-25T13:09:01Z</time>
      </trkpt>
      <trkpt lat="43.98211" lon="7.4403">
        <ele>1758.595</ele>
        <time>2020-06-25T13:09:17Z</time>
      </trkpt>
      <trkpt lat="43.98211" lon="7.4403">
        <ele>1758.595</ele>
        <time>2020-06-25T13:09:32Z</time>
      </trkpt>
      <trkpt lat="43.98211" lon="7.4403">
        <ele>1758.595</ele>
        <time>2020-06-25T13:09:48Z</time>
      </trkpt>
      <trkpt lat="43.98211" lon="7.4403">
        <ele>1758.595</ele>
        <time>2020-06-25T13:10:04Z</time>
      </trkpt>
      <trkpt lat="43.98211" lon="7.4403">
        <ele>1758.595</ele>
        <time>2020-06-25T13:10:20Z</time>
      </trkpt>
      <trkpt lat="43.9821" lon="7.44029">
        <ele>1757.736</ele>
        <time>2020-06-25T13:10:36Z</time>
      </trkpt>
      <trkpt lat="43.98204" lon="7.44034">
        <ele>1755.223</ele>
        <time>2020-06-25T13:10:51Z</time>
      </trkpt>
      <trkpt lat="43.98208" lon="7.44036">
        <ele>1747.806</ele>
        <time>2020-06-25T13:11:07Z</time>
      </trkpt>
      <trkpt lat="43.98192" lon="7.4404">
        <ele>1743.144</ele>
        <time>2020-06-25T13:11:23Z</time>
      </trkpt>
      <trkpt lat="43.98173" lon="7.44063">
        <ele>1747.256</ele>
        <time>2020-06-25T13:11:39Z</time>
      </trkpt>
      <trkpt lat="43.98161" lon="7.44084">
        <ele>1752.756</ele>
        <time>2020-06-25T13:11:55Z</time>
      </trkpt>
      <trkpt lat="43.98154" lon="7.44087">
        <ele>1760.387</ele>
        <time>2020-06-25T13:12:10Z</time>
      </trkpt>
      <trkpt lat="43.98146" lon="7.44081">
        <ele>1763.492</ele>
        <time>2020-06-25T13:12:26Z</time>
      </trkpt>
      <trkpt lat="43.98128" lon="7.44086">
        <ele>1766.179</ele>
        <time>2020-06-25T13:12:42Z</time>
      </trkpt>
      <trkpt lat="43.9812" lon="7.4409">
        <ele>1765.966</ele>
        <time>2020-06-25T13:12:58Z</time>
      </trkpt>
      <trkpt lat="43.98103" lon="7.44086">
        <ele>1767.389</ele>
        <time>2020-06-25T13:13:14Z</time>
      </trkpt>
      <trkpt lat="43.98094" lon="7.44086">
        <ele>1767.085</ele>
        <time>2020-06-25T13:13:30Z</time>
      </trkpt>
      <trkpt lat="43.98077" lon="7.44083">
        <ele>1773.128</ele>
        <time>2020-06-25T13:13:46Z</time>
      </trkpt>
      <trkpt lat="43.98066" lon="7.44059">
        <ele>1778.864</ele>
        <time>2020-06-25T13:14:01Z</time>
      </trkpt>
      <trkpt lat="43.98063" lon="7.4403">
        <ele>1785.572</ele>
        <time>2020-06-25T13:14:17Z</time>
      </trkpt>
      <trkpt lat="43.98062" lon="7.44015">
        <ele>1791.349</ele>
        <time>2020-06-25T13:14:33Z</time>
      </trkpt>
      <trkpt lat="43.98052" lon="7.44003">
        <ele>1793.377</ele>
        <time>2020-06-25T13:14:49Z</time>
      </trkpt>
      <trkpt lat="43.98046" lon="7.43986">
        <ele>1795.311</ele>
        <time>2020-06-25T13:15:04Z</time>
      </trkpt>
      <trkpt lat="43.9804" lon="7.4397">
        <ele>1801.709</ele>
        <time>2020-06-25T13:15:20Z</time>
      </trkpt>
      <trkpt lat="43.98038" lon="7.43963">
        <ele>1803.19</ele>
        <time>2020-06-25T13:15:35Z</time>
      </trkpt>
      <trkpt lat="43.98036" lon="7.43948">
        <ele>1803.725</ele>
        <time>2020-06-25T13:15:51Z</time>
      </trkpt>
      <trkpt lat="43.98053" lon="7.43951">
        <ele>1801.455</ele>
        <time>2020-06-25T13:16:07Z</time>
      </trkpt>
      <trkpt lat="43.98063" lon="7.43957">
        <ele>1801.815</ele>
        <time>2020-06-25T13:16:23Z</time>
      </trkpt>
      <trkpt lat="43.98071" lon="7.43964">
        <ele>1800.602</ele>
        <time>2020-06-25T13:16:38Z</time>
      </trkpt>
      <trkpt lat="43.9808" lon="7.43978">
        <ele>1798.355</ele>
        <time>2020-06-25T13:16:54Z</time>
      </trkpt>
      <trkpt lat="43.98086" lon="7.43984">
        <ele>1798.146</ele>
        <time>2020-06-25T13:17:09Z</time>
      </trkpt>
      <trkpt lat="43.98079" lon="7.43971">
        <ele>1807.787</ele>
        <time>2020-06-25T13:17:25Z</time>
      </trkpt>
      <trkpt lat="43.98078" lon="7.43955">
        <ele>1812.241</ele>
        <time>2020-06-25T13:17:41Z</time>
      </trkpt>
      <trkpt lat="43.98075" lon="7.43938">
        <ele>1815.35</ele>
        <time>2020-06-25T13:17:56Z</time>
      </trkpt>
      <trkpt lat="43.98076" lon="7.4393">
        <ele>1812.226</ele>
        <time>2020-06-25T13:18:12Z</time>
      </trkpt>
      <trkpt lat="43.98091" lon="7.43939">
        <ele>1808.151</ele>
        <time>2020-06-25T13:18:27Z</time>
      </trkpt>
      <trkpt lat="43.98108" lon="7.43945">
        <ele>1803.267</ele>
        <time>2020-06-25T13:18:43Z</time>
      </trkpt>
      <trkpt lat="43.98121" lon="7.43949">
        <ele>1801.29</ele>
        <time>2020-06-25T13:18:59Z</time>
      </trkpt>
      <trkpt lat="43.98128" lon="7.43944">
        <ele>1804.832</ele>
        <time>2020-06-25T13:19:15Z</time>
      </trkpt>
      <trkpt lat="43.98128" lon="7.43944">
        <ele>1804.832</ele>
        <time>2020-06-25T13:19:31Z</time>
      </trkpt>
      <trkpt lat="43.98128" lon="7.43944">
        <ele>1804.832</ele>
        <time>2020-06-25T13:19:46Z</time>
      </trkpt>
      <trkpt lat="43.98135" lon="7.43937">
        <ele>1813.388</ele>
        <time>2020-06-25T13:20:02Z</time>
      </trkpt>
      <trkpt lat="43.98136" lon="7.43934">
        <ele>1814.61</ele>
        <time>2020-06-25T13:20:17Z</time>
      </trkpt>
      <trkpt lat="43.98136" lon="7.43934">
        <ele>1814.61</ele>
        <time>2020-06-25T13:20:33Z</time>
      </trkpt>
      <trkpt lat="43.98136" lon="7.43934">
        <ele>1814.61</ele>
        <time>2020-06-25T13:20:49Z</time>
      </trkpt>
      <trkpt lat="43.98136" lon="7.43934">
        <ele>1814.61</ele>
        <time>2020-06-25T13:21:05Z</time>
      </trkpt>
      <trkpt lat="43.98136" lon="7.43934">
        <ele>1814.61</ele>
        <time>2020-06-25T13:21:20Z</time>
      </trkpt>
      <trkpt lat="43.98136" lon="7.43934">
        <ele>1814.61</ele>
        <time>2020-06-25T13:21:36Z</time>
      </trkpt>
      <trkpt lat="43.98136" lon="7.43934">
        <ele>1814.61</ele>
        <time>2020-06-25T13:21:52Z</time>
      </trkpt>
      <trkpt lat="43.98136" lon="7.43934">
        <ele>1814.61</ele>
        <time>2020-06-25T13:22:08Z</time>
      </trkpt>
      <trkpt lat="43.98136" lon="7.43934">
        <ele>1814.61</ele>
        <time>2020-06-25T13:22:24Z</time>
      </trkpt>
      <trkpt lat="43.98136" lon="7.43934">
        <ele>1814.61</ele>
        <time>2020-06-25T13:22:40Z</time>
      </trkpt>
      <trkpt lat="43.98136" lon="7.43934">
        <ele>1814.61</ele>
        <time>2020-06-25T13:22:56Z</time>
      </trkpt>
      <trkpt lat="43.98139" lon="7.43938">
        <ele>1814.838</ele>
        <time>2020-06-25T13:23:13Z</time>
      </trkpt>
      <trkpt lat="43.98139" lon="7.43938">
        <ele>1814.838</ele>
        <time>2020-06-25T13:23:28Z</time>
      </trkpt>
      <trkpt lat="43.98139" lon="7.43938">
        <ele>1814.838</ele>
        <time>2020-06-25T13:23:43Z</time>
      </trkpt>
      <trkpt lat="43.98139" lon="7.43938">
        <ele>1814.838</ele>
        <time>2020-06-25T13:23:59Z</time>
      </trkpt>
      <trkpt lat="43.98139" lon="7.43938">
        <ele>1814.838</ele>
        <time>2020-06-25T13:24:14Z</time>
      </trkpt>
      <trkpt lat="43.98139" lon="7.43938">
        <ele>1814.838</ele>
        <time>2020-06-25T13:24:29Z</time>
      </trkpt>
      <trkpt lat="43.98139" lon="7.43938">
        <ele>1814.838</ele>
        <time>2020-06-25T13:24:45Z</time>
      </trkpt>
      <trkpt lat="43.98139" lon="7.43938">
        <ele>1814.838</ele>
        <time>2020-06-25T13:25:00Z</time>
      </trkpt>
      <trkpt lat="43.98139" lon="7.43938">
        <ele>1814.838</ele>
        <time>2020-06-25T13:25:16Z</time>
      </trkpt>
      <trkpt lat="43.98139" lon="7.43938">
        <ele>1814.838</ele>
        <time>2020-06-25T13:25:32Z</time>
      </trkpt>
      <trkpt lat="43.98139" lon="7.43938">
        <ele>1814.838</ele>
        <time>2020-06-25T13:25:47Z</time>
      </trkpt>
      <trkpt lat="43.9814" lon="7.4394">
        <ele>1815.19</ele>
        <time>2020-06-25T13:26:03Z</time>
      </trkpt>
      <trkpt lat="43.98142" lon="7.43937">
        <ele>1815.225</ele>
        <time>2020-06-25T13:26:19Z</time>
      </trkpt>
      <trkpt lat="43.98142" lon="7.43937">
        <ele>1815.225</ele>
        <time>2020-06-25T13:26:35Z</time>
      </trkpt>
      <trkpt lat="43.98142" lon="7.43937">
        <ele>1815.225</ele>
        <time>2020-06-25T13:26:51Z</time>
      </trkpt>
      <trkpt lat="43.98142" lon="7.43937">
        <ele>1815.225</ele>
        <time>2020-06-25T13:27:07Z</time>
      </trkpt>
      <trkpt lat="43.98143" lon="7.43936">
        <ele>1814.545</ele>
        <time>2020-06-25T13:27:22Z</time>
      </trkpt>
      <trkpt lat="43.98143" lon="7.43936">
        <ele>1814.545</ele>
        <time>2020-06-25T13:27:38Z</time>
      </trkpt>
      <trkpt lat="43.98143" lon="7.43936">
        <ele>1814.545</ele>
        <time>2020-06-25T13:27:54Z</time>
      </trkpt>
      <trkpt lat="43.98143" lon="7.43936">
        <ele>1814.545</ele>
        <time>2020-06-25T13:28:09Z</time>
      </trkpt>
      <trkpt lat="43.98143" lon="7.43936">
        <ele>1814.545</ele>
        <time>2020-06-25T13:28:25Z</time>
      </trkpt>
      <trkpt lat="43.98143" lon="7.43936">
        <ele>1814.545</ele>
        <time>2020-06-25T13:28:41Z</time>
      </trkpt>
      <trkpt lat="43.98143" lon="7.43936">
        <ele>1814.545</ele>
        <time>2020-06-25T13:28:56Z</time>
      </trkpt>
      <trkpt lat="43.98143" lon="7.43936">
        <ele>1814.545</ele>
        <time>2020-06-25T13:29:12Z</time>
      </trkpt>
      <trkpt lat="43.98143" lon="7.43936">
        <ele>1814.545</ele>
        <time>2020-06-25T13:29:27Z</time>
      </trkpt>
      <trkpt lat="43.98143" lon="7.43936">
        <ele>1814.545</ele>
        <time>2020-06-25T13:29:43Z</time>
      </trkpt>
      <trkpt lat="43.98143" lon="7.43936">
        <ele>1814.545</ele>
        <time>2020-06-25T13:29:58Z</time>
      </trkpt>
      <trkpt lat="43.98143" lon="7.43936">
        <ele>1814.545</ele>
        <time>2020-06-25T13:30:14Z</time>
      </trkpt>
      <trkpt lat="43.98143" lon="7.43936">
        <ele>1814.545</ele>
        <time>2020-06-25T13:30:30Z</time>
      </trkpt>
      <trkpt lat="43.98143" lon="7.43936">
        <ele>1814.545</ele>
        <time>2020-06-25T13:30:45Z</time>
      </trkpt>
      <trkpt lat="43.98143" lon="7.43936">
        <ele>1814.545</ele>
        <time>2020-06-25T13:31:01Z</time>
      </trkpt>
      <trkpt lat="43.98143" lon="7.43936">
        <ele>1814.545</ele>
        <time>2020-06-25T13:31:17Z</time>
      </trkpt>
      <trkpt lat="43.98143" lon="7.43936">
        <ele>1814.545</ele>
        <time>2020-06-25T13:31:33Z</time>
      </trkpt>
      <trkpt lat="43.98143" lon="7.43936">
        <ele>1814.545</ele>
        <time>2020-06-25T13:31:49Z</time>
      </trkpt>
      <trkpt lat="43.98143" lon="7.43936">
        <ele>1814.545</ele>
        <time>2020-06-25T13:32:04Z</time>
      </trkpt>
      <trkpt lat="43.98143" lon="7.43936">
        <ele>1814.545</ele>
        <time>2020-06-25T13:32:20Z</time>
      </trkpt>
      <trkpt lat="43.98143" lon="7.43936">
        <ele>1814.545</ele>
        <time>2020-06-25T13:32:36Z</time>
      </trkpt>
      <trkpt lat="43.98143" lon="7.43936">
        <ele>1814.545</ele>
        <time>2020-06-25T13:32:52Z</time>
      </trkpt>
      <trkpt lat="43.98143" lon="7.43936">
        <ele>1814.545</ele>
        <time>2020-06-25T13:33:08Z</time>
      </trkpt>
      <trkpt lat="43.98143" lon="7.43936">
        <ele>1814.545</ele>
        <time>2020-06-25T13:33:24Z</time>
      </trkpt>
      <trkpt lat="43.98143" lon="7.43936">
        <ele>1814.545</ele>
        <time>2020-06-25T13:33:39Z</time>
      </trkpt>
      <trkpt lat="43.98143" lon="7.43936">
        <ele>1814.545</ele>
        <time>2020-06-25T13:33:55Z</time>
      </trkpt>
      <trkpt lat="43.98144" lon="7.43939">
        <ele>1815.661</ele>
        <time>2020-06-25T13:34:10Z</time>
      </trkpt>
      <trkpt lat="43.98144" lon="7.43939">
        <ele>1815.661</ele>
        <time>2020-06-25T13:34:26Z</time>
      </trkpt>
      <trkpt lat="43.98144" lon="7.43939">
        <ele>1815.661</ele>
        <time>2020-06-25T13:34:41Z</time>
      </trkpt>
      <trkpt lat="43.98144" lon="7.43939">
        <ele>1815.661</ele>
        <time>2020-06-25T13:34:57Z</time>
      </trkpt>
      <trkpt lat="43.98144" lon="7.43939">
        <ele>1815.661</ele>
        <time>2020-06-25T13:35:13Z</time>
      </trkpt>
      <trkpt lat="43.98144" lon="7.43939">
        <ele>1815.661</ele>
        <time>2020-06-25T13:35:28Z</time>
      </trkpt>
      <trkpt lat="43.98144" lon="7.43939">
        <ele>1815.661</ele>
        <time>2020-06-25T13:35:44Z</time>
      </trkpt>
      <trkpt lat="43.98144" lon="7.43939">
        <ele>1815.661</ele>
        <time>2020-06-25T13:36:00Z</time>
      </trkpt>
      <trkpt lat="43.98144" lon="7.43939">
        <ele>1815.661</ele>
        <time>2020-06-25T13:36:15Z</time>
      </trkpt>
      <trkpt lat="43.98144" lon="7.43939">
        <ele>1815.661</ele>
        <time>2020-06-25T13:36:31Z</time>
      </trkpt>
      <trkpt lat="43.98144" lon="7.43939">
        <ele>1815.661</ele>
        <time>2020-06-25T13:36:46Z</time>
      </trkpt>
      <trkpt lat="43.98144" lon="7.43939">
        <ele>1815.661</ele>
        <time>2020-06-25T13:37:02Z</time>
      </trkpt>
      <trkpt lat="43.98146" lon="7.43939">
        <ele>1815.185</ele>
        <time>2020-06-25T13:37:17Z</time>
      </trkpt>
      <trkpt lat="43.98146" lon="7.43939">
        <ele>1815.185</ele>
        <time>2020-06-25T13:37:33Z</time>
      </trkpt>
      <trkpt lat="43.98146" lon="7.43939">
        <ele>1815.185</ele>
        <time>2020-06-25T13:37:48Z</time>
      </trkpt>
      <trkpt lat="43.98145" lon="7.43941">
        <ele>1814.941</ele>
        <time>2020-06-25T13:38:04Z</time>
      </trkpt>
      <trkpt lat="43.98145" lon="7.43941">
        <ele>1814.941</ele>
        <time>2020-06-25T13:38:19Z</time>
      </trkpt>
      <trkpt lat="43.98145" lon="7.43941">
        <ele>1814.941</ele>
        <time>2020-06-25T13:38:35Z</time>
      </trkpt>
      <trkpt lat="43.98145" lon="7.43941">
        <ele>1814.941</ele>
        <time>2020-06-25T13:38:50Z</time>
      </trkpt>
      <trkpt lat="43.98145" lon="7.43941">
        <ele>1814.941</ele>
        <time>2020-06-25T13:39:06Z</time>
      </trkpt>
      <trkpt lat="43.98145" lon="7.43941">
        <ele>1814.941</ele>
        <time>2020-06-25T13:39:21Z</time>
      </trkpt>
      <trkpt lat="43.98145" lon="7.43941">
        <ele>1814.941</ele>
        <time>2020-06-25T13:39:36Z</time>
      </trkpt>
      <trkpt lat="43.98145" lon="7.43941">
        <ele>1814.941</ele>
        <time>2020-06-25T13:39:51Z</time>
      </trkpt>
      <trkpt lat="43.98145" lon="7.43941">
        <ele>1814.941</ele>
        <time>2020-06-25T13:40:07Z</time>
      </trkpt>
      <trkpt lat="43.98145" lon="7.43941">
        <ele>1814.941</ele>
        <time>2020-06-25T13:40:22Z</time>
      </trkpt>
      <trkpt lat="43.98145" lon="7.43941">
        <ele>1814.941</ele>
        <time>2020-06-25T13:40:38Z</time>
      </trkpt>
      <trkpt lat="43.98145" lon="7.43941">
        <ele>1814.66</ele>
        <time>2020-06-25T13:40:54Z</time>
      </trkpt>
      <trkpt lat="43.98145" lon="7.43941">
        <ele>1814.66</ele>
        <time>2020-06-25T13:41:10Z</time>
      </trkpt>
      <trkpt lat="43.98145" lon="7.43941">
        <ele>1814.66</ele>
        <time>2020-06-25T13:41:25Z</time>
      </trkpt>
      <trkpt lat="43.98145" lon="7.43941">
        <ele>1814.66</ele>
        <time>2020-06-25T13:41:41Z</time>
      </trkpt>
      <trkpt lat="43.9814" lon="7.43941">
        <ele>1814.702</ele>
        <time>2020-06-25T13:41:56Z</time>
      </trkpt>
      <trkpt lat="43.9814" lon="7.43951">
        <ele>1817.271</ele>
        <time>2020-06-25T13:42:12Z</time>
      </trkpt>
      <trkpt lat="43.98154" lon="7.43932">
        <ele>1811.829</ele>
        <time>2020-06-25T13:42:27Z</time>
      </trkpt>
      <trkpt lat="43.98169" lon="7.4392">
        <ele>1809.999</ele>
        <time>2020-06-25T13:42:43Z</time>
      </trkpt>
      <trkpt lat="43.98181" lon="7.43903">
        <ele>1814.155</ele>
        <time>2020-06-25T13:42:59Z</time>
      </trkpt>
      <trkpt lat="43.98196" lon="7.43884">
        <ele>1810.397</ele>
        <time>2020-06-25T13:43:14Z</time>
      </trkpt>
      <trkpt lat="43.98217" lon="7.43874">
        <ele>1811.745</ele>
        <time>2020-06-25T13:43:29Z</time>
      </trkpt>
      <trkpt lat="43.98237" lon="7.43878">
        <ele>1812.958</ele>
        <time>2020-06-25T13:43:45Z</time>
      </trkpt>
      <trkpt lat="43.98254" lon="7.4388">
        <ele>1809.068</ele>
        <time>2020-06-25T13:44:01Z</time>
      </trkpt>
      <trkpt lat="43.98264" lon="7.43881">
        <ele>1813.344</ele>
        <time>2020-06-25T13:44:16Z</time>
      </trkpt>
      <trkpt lat="43.98286" lon="7.43873">
        <ele>1812.627</ele>
        <time>2020-06-25T13:44:32Z</time>
      </trkpt>
      <trkpt lat="43.98305" lon="7.43864">
        <ele>1808.743</ele>
        <time>2020-06-25T13:44:47Z</time>
      </trkpt>
      <trkpt lat="43.98322" lon="7.43857">
        <ele>1802.725</ele>
        <time>2020-06-25T13:45:03Z</time>
      </trkpt>
      <trkpt lat="43.98338" lon="7.43853">
        <ele>1803.302</ele>
        <time>2020-06-25T13:45:18Z</time>
      </trkpt>
      <trkpt lat="43.98353" lon="7.43867">
        <ele>1803.527</ele>
        <time>2020-06-25T13:45:34Z</time>
      </trkpt>
      <trkpt lat="43.98354" lon="7.43888">
        <ele>1803.065</ele>
        <time>2020-06-25T13:45:50Z</time>
      </trkpt>
      <trkpt lat="43.98355" lon="7.43889">
        <ele>1802.845</ele>
        <time>2020-06-25T13:46:05Z</time>
      </trkpt>
      <trkpt lat="43.98355" lon="7.43889">
        <ele>1802.845</ele>
        <time>2020-06-25T13:46:21Z</time>
      </trkpt>
      <trkpt lat="43.98355" lon="7.43889">
        <ele>1802.845</ele>
        <time>2020-06-25T13:46:37Z</time>
      </trkpt>
      <trkpt lat="43.98354" lon="7.4388">
        <ele>1803.162</ele>
        <time>2020-06-25T13:46:53Z</time>
      </trkpt>
      <trkpt lat="43.98354" lon="7.4388">
        <ele>1803.162</ele>
        <time>2020-06-25T13:47:09Z</time>
      </trkpt>
      <trkpt lat="43.98352" lon="7.43881">
        <ele>1801.135</ele>
        <time>2020-06-25T13:47:25Z</time>
      </trkpt>
      <trkpt lat="43.98353" lon="7.43884">
        <ele>1800.352</ele>
        <time>2020-06-25T13:47:41Z</time>
      </trkpt>
      <trkpt lat="43.98351" lon="7.43883">
        <ele>1796.945</ele>
        <time>2020-06-25T13:47:56Z</time>
      </trkpt>
      <trkpt lat="43.98351" lon="7.43883">
        <ele>1796.945</ele>
        <time>2020-06-25T13:48:12Z</time>
      </trkpt>
      <trkpt lat="43.98351" lon="7.43883">
        <ele>1796.945</ele>
        <time>2020-06-25T13:48:28Z</time>
      </trkpt>
      <trkpt lat="43.98351" lon="7.43883">
        <ele>1796.945</ele>
        <time>2020-06-25T13:48:43Z</time>
      </trkpt>
      <trkpt lat="43.98351" lon="7.43883">
        <ele>1796.945</ele>
        <time>2020-06-25T13:48:59Z</time>
      </trkpt>
      <trkpt lat="43.98349" lon="7.43885">
        <ele>1797.801</ele>
        <time>2020-06-25T13:49:14Z</time>
      </trkpt>
      <trkpt lat="43.98349" lon="7.43885">
        <ele>1797.318</ele>
        <time>2020-06-25T13:49:30Z</time>
      </trkpt>
      <trkpt lat="43.98349" lon="7.43885">
        <ele>1797.318</ele>
        <time>2020-06-25T13:49:46Z</time>
      </trkpt>
      <trkpt lat="43.98349" lon="7.43885">
        <ele>1797.318</ele>
        <time>2020-06-25T13:50:02Z</time>
      </trkpt>
      <trkpt lat="43.98349" lon="7.43885">
        <ele>1797.318</ele>
        <time>2020-06-25T13:50:17Z</time>
      </trkpt>
      <trkpt lat="43.98349" lon="7.43885">
        <ele>1797.318</ele>
        <time>2020-06-25T13:50:32Z</time>
      </trkpt>
      <trkpt lat="43.98349" lon="7.43885">
        <ele>1797.318</ele>
        <time>2020-06-25T13:50:48Z</time>
      </trkpt>
      <trkpt lat="43.98349" lon="7.43885">
        <ele>1797.318</ele>
        <time>2020-06-25T13:51:03Z</time>
      </trkpt>
      <trkpt lat="43.98345" lon="7.43888">
        <ele>1799.311</ele>
        <time>2020-06-25T13:51:18Z</time>
      </trkpt>
      <trkpt lat="43.98345" lon="7.43888">
        <ele>1799.311</ele>
        <time>2020-06-25T13:51:34Z</time>
      </trkpt>
      <trkpt lat="43.98345" lon="7.43888">
        <ele>1799.311</ele>
        <time>2020-06-25T13:51:50Z</time>
      </trkpt>
      <trkpt lat="43.98345" lon="7.43888">
        <ele>1799.311</ele>
        <time>2020-06-25T13:52:06Z</time>
      </trkpt>
      <trkpt lat="43.98345" lon="7.43888">
        <ele>1799.311</ele>
        <time>2020-06-25T13:52:21Z</time>
      </trkpt>
      <trkpt lat="43.98345" lon="7.43888">
        <ele>1799.311</ele>
        <time>2020-06-25T13:52:37Z</time>
      </trkpt>
      <trkpt lat="43.98345" lon="7.43888">
        <ele>1799.311</ele>
        <time>2020-06-25T13:52:52Z</time>
      </trkpt>
      <trkpt lat="43.98345" lon="7.43888">
        <ele>1799.311</ele>
        <time>2020-06-25T13:53:08Z</time>
      </trkpt>
      <trkpt lat="43.98345" lon="7.43888">
        <ele>1799.311</ele>
        <time>2020-06-25T13:53:23Z</time>
      </trkpt>
      <trkpt lat="43.98345" lon="7.43888">
        <ele>1799.311</ele>
        <time>2020-06-25T13:53:39Z</time>
      </trkpt>
      <trkpt lat="43.98341" lon="7.43892">
        <ele>1801.413</ele>
        <time>2020-06-25T13:53:54Z</time>
      </trkpt>
      <trkpt lat="43.98343" lon="7.43894">
        <ele>1802.231</ele>
        <time>2020-06-25T13:54:10Z</time>
      </trkpt>
      <trkpt lat="43.98343" lon="7.43894">
        <ele>1802.231</ele>
        <time>2020-06-25T13:54:26Z</time>
      </trkpt>
      <trkpt lat="43.98343" lon="7.43894">
        <ele>1802.231</ele>
        <time>2020-06-25T13:54:42Z</time>
      </trkpt>
      <trkpt lat="43.98341" lon="7.43895">
        <ele>1803.075</ele>
        <time>2020-06-25T13:54:58Z</time>
      </trkpt>
      <trkpt lat="43.98341" lon="7.43895">
        <ele>1803.075</ele>
        <time>2020-06-25T13:55:14Z</time>
      </trkpt>
      <trkpt lat="43.98344" lon="7.43891">
        <ele>1800.375</ele>
        <time>2020-06-25T13:55:30Z</time>
      </trkpt>
      <trkpt lat="43.98346" lon="7.43892">
        <ele>1799.63</ele>
        <time>2020-06-25T13:55:46Z</time>
      </trkpt>
      <trkpt lat="43.98346" lon="7.43892">
        <ele>1799.63</ele>
        <time>2020-06-25T13:56:01Z</time>
      </trkpt>
      <trkpt lat="43.98348" lon="7.4389">
        <ele>1798.577</ele>
        <time>2020-06-25T13:56:16Z</time>
      </trkpt>
      <trkpt lat="43.98348" lon="7.4389">
        <ele>1798.577</ele>
        <time>2020-06-25T13:56:32Z</time>
      </trkpt>
      <trkpt lat="43.98348" lon="7.4389">
        <ele>1798.577</ele>
        <time>2020-06-25T13:56:48Z</time>
      </trkpt>
      <trkpt lat="43.98354" lon="7.43869">
        <ele>1794.112</ele>
        <time>2020-06-25T13:57:03Z</time>
      </trkpt>
      <trkpt lat="43.98354" lon="7.43869">
        <ele>1793.493</ele>
        <time>2020-06-25T13:57:18Z</time>
      </trkpt>
      <trkpt lat="43.98354" lon="7.43869">
        <ele>1793.493</ele>
        <time>2020-06-25T13:57:34Z</time>
      </trkpt>
      <trkpt lat="43.98354" lon="7.4386">
        <ele>1793.66</ele>
        <time>2020-06-25T13:57:50Z</time>
      </trkpt>
      <trkpt lat="43.98354" lon="7.43859">
        <ele>1793.678</ele>
        <time>2020-06-25T13:58:05Z</time>
      </trkpt>
      <trkpt lat="43.9836" lon="7.43846">
        <ele>1793.009</ele>
        <time>2020-06-25T13:58:21Z</time>
      </trkpt>
      <trkpt lat="43.98352" lon="7.43842">
        <ele>1794.058</ele>
        <time>2020-06-25T13:58:36Z</time>
      </trkpt>
      <trkpt lat="43.98346" lon="7.43829">
        <ele>1796.462</ele>
        <time>2020-06-25T13:58:52Z</time>
      </trkpt>
      <trkpt lat="43.98344" lon="7.43818">
        <ele>1795.4</ele>
        <time>2020-06-25T13:59:08Z</time>
      </trkpt>
      <trkpt lat="43.98339" lon="7.43806">
        <ele>1796.103</ele>
        <time>2020-06-25T13:59:24Z</time>
      </trkpt>
      <trkpt lat="43.98327" lon="7.43801">
        <ele>1798.91</ele>
        <time>2020-06-25T13:59:40Z</time>
      </trkpt>
      <trkpt lat="43.98326" lon="7.43787">
        <ele>1803.099</ele>
        <time>2020-06-25T13:59:56Z</time>
      </trkpt>
      <trkpt lat="43.9834" lon="7.43783">
        <ele>1811.104</ele>
        <time>2020-06-25T14:00:12Z</time>
      </trkpt>
      <trkpt lat="43.98358" lon="7.43788">
        <ele>1813.917</ele>
        <time>2020-06-25T14:00:28Z</time>
      </trkpt>
      <trkpt lat="43.98362" lon="7.43789">
        <ele>1816.598</ele>
        <time>2020-06-25T14:00:44Z</time>
      </trkpt>
      <trkpt lat="43.9836" lon="7.43787">
        <ele>1816.85</ele>
        <time>2020-06-25T14:00:59Z</time>
      </trkpt>
      <trkpt lat="43.9836" lon="7.43787">
        <ele>1816.85</ele>
        <time>2020-06-25T14:01:15Z</time>
      </trkpt>
      <trkpt lat="43.9836" lon="7.43787">
        <ele>1816.85</ele>
        <time>2020-06-25T14:01:30Z</time>
      </trkpt>
      <trkpt lat="43.9836" lon="7.43787">
        <ele>1816.85</ele>
        <time>2020-06-25T14:01:46Z</time>
      </trkpt>
      <trkpt lat="43.9836" lon="7.43786">
        <ele>1817.362</ele>
        <time>2020-06-25T14:02:02Z</time>
      </trkpt>
      <trkpt lat="43.98377" lon="7.43803">
        <ele>1820.397</ele>
        <time>2020-06-25T14:02:18Z</time>
      </trkpt>
      <trkpt lat="43.98393" lon="7.43819">
        <ele>1823.836</ele>
        <time>2020-06-25T14:02:34Z</time>
      </trkpt>
      <trkpt lat="43.98407" lon="7.4384">
        <ele>1823.025</ele>
        <time>2020-06-25T14:02:49Z</time>
      </trkpt>
      <trkpt lat="43.98413" lon="7.43866">
        <ele>1824.853</ele>
        <time>2020-06-25T14:03:04Z</time>
      </trkpt>
      <trkpt lat="43.98424" lon="7.43887">
        <ele>1830.199</ele>
        <time>2020-06-25T14:03:20Z</time>
      </trkpt>
      <trkpt lat="43.98441" lon="7.43893">
        <ele>1831.261</ele>
        <time>2020-06-25T14:03:35Z</time>
      </trkpt>
      <trkpt lat="43.98463" lon="7.43905">
        <ele>1829.339</ele>
        <time>2020-06-25T14:03:51Z</time>
      </trkpt>
      <trkpt lat="43.98479" lon="7.43909">
        <ele>1827.843</ele>
        <time>2020-06-25T14:04:06Z</time>
      </trkpt>
      <trkpt lat="43.98499" lon="7.4391">
        <ele>1825.704</ele>
        <time>2020-06-25T14:04:21Z</time>
      </trkpt>
      <trkpt lat="43.98522" lon="7.43927">
        <ele>1827.115</ele>
        <time>2020-06-25T14:04:37Z</time>
      </trkpt>
      <trkpt lat="43.9854" lon="7.43942">
        <ele>1827.856</ele>
        <time>2020-06-25T14:04:52Z</time>
      </trkpt>
      <trkpt lat="43.98552" lon="7.43959">
        <ele>1828.029</ele>
        <time>2020-06-25T14:05:07Z</time>
      </trkpt>
      <trkpt lat="43.98569" lon="7.43978">
        <ele>1828.792</ele>
        <time>2020-06-25T14:05:23Z</time>
      </trkpt>
      <trkpt lat="43.98588" lon="7.43988">
        <ele>1825.777</ele>
        <time>2020-06-25T14:05:38Z</time>
      </trkpt>
      <trkpt lat="43.98606" lon="7.43987">
        <ele>1824.193</ele>
        <time>2020-06-25T14:05:53Z</time>
      </trkpt>
      <trkpt lat="43.9863" lon="7.43999">
        <ele>1821.15</ele>
        <time>2020-06-25T14:06:08Z</time>
      </trkpt>
      <trkpt lat="43.98635" lon="7.44027">
        <ele>1823.365</ele>
        <time>2020-06-25T14:06:24Z</time>
      </trkpt>
      <trkpt lat="43.98641" lon="7.44054">
        <ele>1822.654</ele>
        <time>2020-06-25T14:06:39Z</time>
      </trkpt>
      <trkpt lat="43.98649" lon="7.44077">
        <ele>1820.455</ele>
        <time>2020-06-25T14:06:54Z</time>
      </trkpt>
      <trkpt lat="43.98664" lon="7.44095">
        <ele>1824.131</ele>
        <time>2020-06-25T14:07:10Z</time>
      </trkpt>
      <trkpt lat="43.98678" lon="7.44111">
        <ele>1825.275</ele>
        <time>2020-06-25T14:07:25Z</time>
      </trkpt>
      <trkpt lat="43.98693" lon="7.44131">
        <ele>1823.669</ele>
        <time>2020-06-25T14:07:41Z</time>
      </trkpt>
      <trkpt lat="43.98708" lon="7.44153">
        <ele>1821.452</ele>
        <time>2020-06-25T14:07:57Z</time>
      </trkpt>
      <trkpt lat="43.98723" lon="7.44176">
        <ele>1824.559</ele>
        <time>2020-06-25T14:08:13Z</time>
      </trkpt>
      <trkpt lat="43.98738" lon="7.44194">
        <ele>1819.8</ele>
        <time>2020-06-25T14:08:29Z</time>
      </trkpt>
      <trkpt lat="43.98754" lon="7.44213">
        <ele>1817.84</ele>
        <time>2020-06-25T14:08:44Z</time>
      </trkpt>
      <trkpt lat="43.98772" lon="7.4423">
        <ele>1816.022</ele>
        <time>2020-06-25T14:08:59Z</time>
      </trkpt>
      <trkpt lat="43.98792" lon="7.44245">
        <ele>1813.578</ele>
        <time>2020-06-25T14:09:15Z</time>
      </trkpt>
      <trkpt lat="43.98809" lon="7.44256">
        <ele>1815.604</ele>
        <time>2020-06-25T14:09:31Z</time>
      </trkpt>
      <trkpt lat="43.98828" lon="7.44269">
        <ele>1815.772</ele>
        <time>2020-06-25T14:09:47Z</time>
      </trkpt>
      <trkpt lat="43.98841" lon="7.44271">
        <ele>1813.188</ele>
        <time>2020-06-25T14:10:02Z</time>
      </trkpt>
      <trkpt lat="43.98863" lon="7.44276">
        <ele>1813.138</ele>
        <time>2020-06-25T14:10:18Z</time>
      </trkpt>
      <trkpt lat="43.98884" lon="7.44282">
        <ele>1813.322</ele>
        <time>2020-06-25T14:10:33Z</time>
      </trkpt>
      <trkpt lat="43.98908" lon="7.44286">
        <ele>1817.537</ele>
        <time>2020-06-25T14:10:49Z</time>
      </trkpt>
      <trkpt lat="43.98923" lon="7.44307">
        <ele>1821.667</ele>
        <time>2020-06-25T14:11:08Z</time>
      </trkpt>
      <trkpt lat="43.98922" lon="7.44311">
        <ele>1819.69</ele>
        <time>2020-06-25T14:11:24Z</time>
      </trkpt>
      <trkpt lat="43.98922" lon="7.44311">
        <ele>1819.69</ele>
        <time>2020-06-25T14:11:40Z</time>
      </trkpt>
      <trkpt lat="43.98923" lon="7.44313">
        <ele>1818.839</ele>
        <time>2020-06-25T14:11:55Z</time>
      </trkpt>
      <trkpt lat="43.98923" lon="7.44313">
        <ele>1818.839</ele>
        <time>2020-06-25T14:12:11Z</time>
      </trkpt>
      <trkpt lat="43.98921" lon="7.44311">
        <ele>1821.342</ele>
        <time>2020-06-25T14:12:27Z</time>
      </trkpt>
      <trkpt lat="43.98922" lon="7.44292">
        <ele>1821.934</ele>
        <time>2020-06-25T14:12:43Z</time>
      </trkpt>
      <trkpt lat="43.98922" lon="7.44292">
        <ele>1821.934</ele>
        <time>2020-06-25T14:12:58Z</time>
      </trkpt>
      <trkpt lat="43.98922" lon="7.44292">
        <ele>1821.934</ele>
        <time>2020-06-25T14:13:13Z</time>
      </trkpt>
      <trkpt lat="43.98922" lon="7.44292">
        <ele>1821.934</ele>
        <time>2020-06-25T14:13:28Z</time>
      </trkpt>
      <trkpt lat="43.98934" lon="7.44301">
        <ele>1830.014</ele>
        <time>2020-06-25T14:13:44Z</time>
      </trkpt>
      <trkpt lat="43.98958" lon="7.44298">
        <ele>1833.268</ele>
        <time>2020-06-25T14:14:00Z</time>
      </trkpt>
      <trkpt lat="43.98968" lon="7.443">
        <ele>1831.565</ele>
        <time>2020-06-25T14:14:16Z</time>
      </trkpt>
      <trkpt lat="43.98984" lon="7.44307">
        <ele>1837.494</ele>
        <time>2020-06-25T14:14:32Z</time>
      </trkpt>
      <trkpt lat="43.98999" lon="7.44301">
        <ele>1838.179</ele>
        <time>2020-06-25T14:14:48Z</time>
      </trkpt>
      <trkpt lat="43.99" lon="7.44299">
        <ele>1837.685</ele>
        <time>2020-06-25T14:15:04Z</time>
      </trkpt>
      <trkpt lat="43.99008" lon="7.44307">
        <ele>1841.942</ele>
        <time>2020-06-25T14:15:20Z</time>
      </trkpt>
      <trkpt lat="43.99017" lon="7.44303">
        <ele>1844.955</ele>
        <time>2020-06-25T14:15:36Z</time>
      </trkpt>
      <trkpt lat="43.99032" lon="7.44299">
        <ele>1841.756</ele>
        <time>2020-06-25T14:15:51Z</time>
      </trkpt>
      <trkpt lat="43.99047" lon="7.44309">
        <ele>1842.947</ele>
        <time>2020-06-25T14:16:06Z</time>
      </trkpt>
      <trkpt lat="43.99064" lon="7.44324">
        <ele>1842.079</ele>
        <time>2020-06-25T14:16:22Z</time>
      </trkpt>
      <trkpt lat="43.99077" lon="7.44327">
        <ele>1841.372</ele>
        <time>2020-06-25T14:16:37Z</time>
      </trkpt>
      <trkpt lat="43.99089" lon="7.44326">
        <ele>1846.724</ele>
        <time>2020-06-25T14:16:53Z</time>
      </trkpt>
      <trkpt lat="43.99103" lon="7.44328">
        <ele>1846.906</ele>
        <time>2020-06-25T14:17:09Z</time>
      </trkpt>
      <trkpt lat="43.99119" lon="7.44331">
        <ele>1844.981</ele>
        <time>2020-06-25T14:17:25Z</time>
      </trkpt>
      <trkpt lat="43.9912" lon="7.44332">
        <ele>1844.948</ele>
        <time>2020-06-25T14:17:41Z</time>
      </trkpt>
      <trkpt lat="43.9912" lon="7.44332">
        <ele>1844.948</ele>
        <time>2020-06-25T14:17:57Z</time>
      </trkpt>
      <trkpt lat="43.99125" lon="7.44322">
        <ele>1849.493</ele>
        <time>2020-06-25T14:18:13Z</time>
      </trkpt>
      <trkpt lat="43.99125" lon="7.44322">
        <ele>1849.494</ele>
        <time>2020-06-25T14:18:29Z</time>
      </trkpt>
      <trkpt lat="43.9913" lon="7.44313">
        <ele>1854.252</ele>
        <time>2020-06-25T14:18:45Z</time>
      </trkpt>
      <trkpt lat="43.99138" lon="7.44299">
        <ele>1859.351</ele>
        <time>2020-06-25T14:19:00Z</time>
      </trkpt>
      <trkpt lat="43.99148" lon="7.44285">
        <ele>1862.209</ele>
        <time>2020-06-25T14:19:16Z</time>
      </trkpt>
      <trkpt lat="43.99152" lon="7.44274">
        <ele>1868.609</ele>
        <time>2020-06-25T14:19:31Z</time>
      </trkpt>
      <trkpt lat="43.99166" lon="7.44276">
        <ele>1871.239</ele>
        <time>2020-06-25T14:19:46Z</time>
      </trkpt>
      <trkpt lat="43.99166" lon="7.44276">
        <ele>1871.239</ele>
        <time>2020-06-25T14:20:02Z</time>
      </trkpt>
      <trkpt lat="43.99166" lon="7.44276">
        <ele>1871.239</ele>
        <time>2020-06-25T14:20:18Z</time>
      </trkpt>
      <trkpt lat="43.99166" lon="7.44276">
        <ele>1871.239</ele>
        <time>2020-06-25T14:20:33Z</time>
      </trkpt>
      <trkpt lat="43.99166" lon="7.44276">
        <ele>1871.239</ele>
        <time>2020-06-25T14:20:49Z</time>
      </trkpt>
      <trkpt lat="43.99166" lon="7.44276">
        <ele>1871.239</ele>
        <time>2020-06-25T14:21:05Z</time>
      </trkpt>
      <trkpt lat="43.99164" lon="7.44277">
        <ele>1870.403</ele>
        <time>2020-06-25T14:21:21Z</time>
      </trkpt>
      <trkpt lat="43.99157" lon="7.44291">
        <ele>1859.771</ele>
        <time>2020-06-25T14:21:36Z</time>
      </trkpt>
      <trkpt lat="43.99147" lon="7.44314">
        <ele>1852.352</ele>
        <time>2020-06-25T14:21:52Z</time>
      </trkpt>
      <trkpt lat="43.99137" lon="7.44324">
        <ele>1845.435</ele>
        <time>2020-06-25T14:22:08Z</time>
      </trkpt>
      <trkpt lat="43.99125" lon="7.44332">
        <ele>1836.35</ele>
        <time>2020-06-25T14:22:24Z</time>
      </trkpt>
      <trkpt lat="43.99124" lon="7.44339">
        <ele>1836.521</ele>
        <time>2020-06-25T14:22:40Z</time>
      </trkpt>
      <trkpt lat="43.99119" lon="7.4434">
        <ele>1835.879</ele>
        <time>2020-06-25T14:22:56Z</time>
      </trkpt>
      <trkpt lat="43.99119" lon="7.4434">
        <ele>1835.879</ele>
        <time>2020-06-25T14:23:12Z</time>
      </trkpt>
      <trkpt lat="43.99119" lon="7.4434">
        <ele>1835.879</ele>
        <time>2020-06-25T14:23:27Z</time>
      </trkpt>
      <trkpt lat="43.99119" lon="7.4434">
        <ele>1835.879</ele>
        <time>2020-06-25T14:23:43Z</time>
      </trkpt>
      <trkpt lat="43.99118" lon="7.44332">
        <ele>1834.454</ele>
        <time>2020-06-25T14:23:58Z</time>
      </trkpt>
      <trkpt lat="43.99118" lon="7.44332">
        <ele>1834.454</ele>
        <time>2020-06-25T14:24:14Z</time>
      </trkpt>
      <trkpt lat="43.99118" lon="7.44332">
        <ele>1834.454</ele>
        <time>2020-06-25T14:24:29Z</time>
      </trkpt>
      <trkpt lat="43.99119" lon="7.44333">
        <ele>1833.744</ele>
        <time>2020-06-25T14:24:45Z</time>
      </trkpt>
      <trkpt lat="43.99119" lon="7.44335">
        <ele>1834.15</ele>
        <time>2020-06-25T14:25:01Z</time>
      </trkpt>
      <trkpt lat="43.99111" lon="7.44333">
        <ele>1836.689</ele>
        <time>2020-06-25T14:25:17Z</time>
      </trkpt>
      <trkpt lat="43.99098" lon="7.44328">
        <ele>1831.736</ele>
        <time>2020-06-25T14:25:33Z</time>
      </trkpt>
      <trkpt lat="43.99094" lon="7.44328">
        <ele>1830.377</ele>
        <time>2020-06-25T14:25:48Z</time>
      </trkpt>
      <trkpt lat="43.99094" lon="7.44328">
        <ele>1830.377</ele>
        <time>2020-06-25T14:26:04Z</time>
      </trkpt>
      <trkpt lat="43.99087" lon="7.44323">
        <ele>1832.847</ele>
        <time>2020-06-25T14:26:19Z</time>
      </trkpt>
      <trkpt lat="43.99087" lon="7.44323">
        <ele>1832.847</ele>
        <time>2020-06-25T14:26:35Z</time>
      </trkpt>
      <trkpt lat="43.99086" lon="7.44323">
        <ele>1834.15</ele>
        <time>2020-06-25T14:26:50Z</time>
      </trkpt>
      <trkpt lat="43.99086" lon="7.44323">
        <ele>1834.15</ele>
        <time>2020-06-25T14:27:06Z</time>
      </trkpt>
      <trkpt lat="43.99086" lon="7.44323">
        <ele>1834.15</ele>
        <time>2020-06-25T14:27:21Z</time>
      </trkpt>
      <trkpt lat="43.99086" lon="7.44323">
        <ele>1834.15</ele>
        <time>2020-06-25T14:27:37Z</time>
      </trkpt>
      <trkpt lat="43.99084" lon="7.44326">
        <ele>1833.267</ele>
        <time>2020-06-25T14:27:53Z</time>
      </trkpt>
      <trkpt lat="43.99073" lon="7.44324">
        <ele>1829.465</ele>
        <time>2020-06-25T14:28:08Z</time>
      </trkpt>
      <trkpt lat="43.99054" lon="7.44317">
        <ele>1829.764</ele>
        <time>2020-06-25T14:28:24Z</time>
      </trkpt>
      <trkpt lat="43.99038" lon="7.44311">
        <ele>1829.019</ele>
        <time>2020-06-25T14:28:39Z</time>
      </trkpt>
      <trkpt lat="43.99026" lon="7.44311">
        <ele>1828.077</ele>
        <time>2020-06-25T14:28:54Z</time>
      </trkpt>
      <trkpt lat="43.99007" lon="7.44306">
        <ele>1832.079</ele>
        <time>2020-06-25T14:29:10Z</time>
      </trkpt>
      <trkpt lat="43.98999" lon="7.44303">
        <ele>1828.94</ele>
        <time>2020-06-25T14:29:25Z</time>
      </trkpt>
      <trkpt lat="43.98991" lon="7.44305">
        <ele>1821.046</ele>
        <time>2020-06-25T14:29:41Z</time>
      </trkpt>
      <trkpt lat="43.98977" lon="7.44313">
        <ele>1818.049</ele>
        <time>2020-06-25T14:29:57Z</time>
      </trkpt>
      <trkpt lat="43.98962" lon="7.44311">
        <ele>1814.998</ele>
        <time>2020-06-25T14:30:13Z</time>
      </trkpt>
      <trkpt lat="43.98951" lon="7.44308">
        <ele>1813.647</ele>
        <time>2020-06-25T14:30:29Z</time>
      </trkpt>
      <trkpt lat="43.98938" lon="7.44312">
        <ele>1807.712</ele>
        <time>2020-06-25T14:30:44Z</time>
      </trkpt>
      <trkpt lat="43.9892" lon="7.4431">
        <ele>1804.865</ele>
        <time>2020-06-25T14:31:00Z</time>
      </trkpt>
      <trkpt lat="43.989" lon="7.44316">
        <ele>1805.753</ele>
        <time>2020-06-25T14:31:16Z</time>
      </trkpt>
      <trkpt lat="43.98894" lon="7.44307">
        <ele>1802.944</ele>
        <time>2020-06-25T14:31:31Z</time>
      </trkpt>
      <trkpt lat="43.98876" lon="7.44302">
        <ele>1802.459</ele>
        <time>2020-06-25T14:31:47Z</time>
      </trkpt>
      <trkpt lat="43.98856" lon="7.44296">
        <ele>1799.467</ele>
        <time>2020-06-25T14:32:03Z</time>
      </trkpt>
      <trkpt lat="43.98837" lon="7.44292">
        <ele>1798.622</ele>
        <time>2020-06-25T14:32:19Z</time>
      </trkpt>
      <trkpt lat="43.98824" lon="7.44295">
        <ele>1800.264</ele>
        <time>2020-06-25T14:32:34Z</time>
      </trkpt>
      <trkpt lat="43.98823" lon="7.44293">
        <ele>1798.481</ele>
        <time>2020-06-25T14:32:50Z</time>
      </trkpt>
      <trkpt lat="43.9882" lon="7.44293">
        <ele>1796.179</ele>
        <time>2020-06-25T14:33:06Z</time>
      </trkpt>
      <trkpt lat="43.98817" lon="7.44294">
        <ele>1794.114</ele>
        <time>2020-06-25T14:33:21Z</time>
      </trkpt>
      <trkpt lat="43.98817" lon="7.44294">
        <ele>1794.114</ele>
        <time>2020-06-25T14:33:37Z</time>
      </trkpt>
      <trkpt lat="43.98818" lon="7.44296">
        <ele>1795.645</ele>
        <time>2020-06-25T14:33:53Z</time>
      </trkpt>
      <trkpt lat="43.98817" lon="7.44288">
        <ele>1799.739</ele>
        <time>2020-06-25T14:34:09Z</time>
      </trkpt>
      <trkpt lat="43.98819" lon="7.4428">
        <ele>1799.247</ele>
        <time>2020-06-25T14:34:24Z</time>
      </trkpt>
      <trkpt lat="43.98819" lon="7.4428">
        <ele>1799.247</ele>
        <time>2020-06-25T14:34:40Z</time>
      </trkpt>
      <trkpt lat="43.98819" lon="7.4428">
        <ele>1799.247</ele>
        <time>2020-06-25T14:34:55Z</time>
      </trkpt>
      <trkpt lat="43.98819" lon="7.44278">
        <ele>1805.865</ele>
        <time>2020-06-25T14:35:10Z</time>
      </trkpt>
      <trkpt lat="43.98812" lon="7.44287">
        <ele>1809.177</ele>
        <time>2020-06-25T14:35:26Z</time>
      </trkpt>
      <trkpt lat="43.98811" lon="7.44291">
        <ele>1807.793</ele>
        <time>2020-06-25T14:35:41Z</time>
      </trkpt>
      <trkpt lat="43.98812" lon="7.44295">
        <ele>1809.598</ele>
        <time>2020-06-25T14:35:57Z</time>
      </trkpt>
      <trkpt lat="43.98811" lon="7.44299">
        <ele>1815.063</ele>
        <time>2020-06-25T14:36:13Z</time>
      </trkpt>
      <trkpt lat="43.98813" lon="7.44293">
        <ele>1814.888</ele>
        <time>2020-06-25T14:36:29Z</time>
      </trkpt>
      <trkpt lat="43.98808" lon="7.44285">
        <ele>1817.25</ele>
        <time>2020-06-25T14:36:45Z</time>
      </trkpt>
      <trkpt lat="43.98811" lon="7.44295">
        <ele>1817.538</ele>
        <time>2020-06-25T14:37:01Z</time>
      </trkpt>
      <trkpt lat="43.98811" lon="7.44297">
        <ele>1819.252</ele>
        <time>2020-06-25T14:37:16Z</time>
      </trkpt>
      <trkpt lat="43.98811" lon="7.44297">
        <ele>1819.252</ele>
        <time>2020-06-25T14:37:32Z</time>
      </trkpt>
      <trkpt lat="43.98811" lon="7.44297">
        <ele>1819.252</ele>
        <time>2020-06-25T14:37:47Z</time>
      </trkpt>
      <trkpt lat="43.98811" lon="7.44297">
        <ele>1819.252</ele>
        <time>2020-06-25T14:38:03Z</time>
      </trkpt>
      <trkpt lat="43.98811" lon="7.44297">
        <ele>1819.252</ele>
        <time>2020-06-25T14:38:18Z</time>
      </trkpt>
      <trkpt lat="43.98815" lon="7.44287">
        <ele>1820.588</ele>
        <time>2020-06-25T14:38:34Z</time>
      </trkpt>
      <trkpt lat="43.98817" lon="7.44288">
        <ele>1820.192</ele>
        <time>2020-06-25T14:38:50Z</time>
      </trkpt>
      <trkpt lat="43.98817" lon="7.44288">
        <ele>1820.192</ele>
        <time>2020-06-25T14:39:06Z</time>
      </trkpt>
      <trkpt lat="43.98813" lon="7.44288">
        <ele>1820.514</ele>
        <time>2020-06-25T14:39:21Z</time>
      </trkpt>
      <trkpt lat="43.98812" lon="7.4428">
        <ele>1832.104</ele>
        <time>2020-06-25T14:39:37Z</time>
      </trkpt>
      <trkpt lat="43.98812" lon="7.4428">
        <ele>1832.104</ele>
        <time>2020-06-25T14:39:53Z</time>
      </trkpt>
      <trkpt lat="43.98812" lon="7.4428">
        <ele>1832.104</ele>
        <time>2020-06-25T14:40:08Z</time>
      </trkpt>
      <trkpt lat="43.98812" lon="7.4428">
        <ele>1832.104</ele>
        <time>2020-06-25T14:40:24Z</time>
      </trkpt>
      <trkpt lat="43.98812" lon="7.4428">
        <ele>1832.104</ele>
        <time>2020-06-25T14:40:40Z</time>
      </trkpt>
      <trkpt lat="43.98812" lon="7.4428">
        <ele>1832.104</ele>
        <time>2020-06-25T14:40:55Z</time>
      </trkpt>
      <trkpt lat="43.98812" lon="7.4428">
        <ele>1832.104</ele>
        <time>2020-06-25T14:41:11Z</time>
      </trkpt>
      <trkpt lat="43.98812" lon="7.4428">
        <ele>1832.104</ele>
        <time>2020-06-25T14:41:27Z</time>
      </trkpt>
      <trkpt lat="43.98812" lon="7.4428">
        <ele>1832.104</ele>
        <time>2020-06-25T14:41:42Z</time>
      </trkpt>
      <trkpt lat="43.98812" lon="7.4428">
        <ele>1832.104</ele>
        <time>2020-06-25T14:41:57Z</time>
      </trkpt>
      <trkpt lat="43.98812" lon="7.4428">
        <ele>1832.104</ele>
        <time>2020-06-25T14:42:13Z</time>
      </trkpt>
      <trkpt lat="43.98812" lon="7.4428">
        <ele>1832.104</ele>
        <time>2020-06-25T14:42:29Z</time>
      </trkpt>
      <trkpt lat="43.98812" lon="7.4428">
        <ele>1832.104</ele>
        <time>2020-06-25T14:42:44Z</time>
      </trkpt>
      <trkpt lat="43.98812" lon="7.4428">
        <ele>1832.104</ele>
        <time>2020-06-25T14:43:00Z</time>
      </trkpt>
      <trkpt lat="43.98812" lon="7.4428">
        <ele>1832.104</ele>
        <time>2020-06-25T14:43:15Z</time>
      </trkpt>
      <trkpt lat="43.98812" lon="7.4428">
        <ele>1832.104</ele>
        <time>2020-06-25T14:43:30Z</time>
      </trkpt>
      <trkpt lat="43.98812" lon="7.4428">
        <ele>1832.104</ele>
        <time>2020-06-25T14:43:46Z</time>
      </trkpt>
      <trkpt lat="43.98812" lon="7.4428">
        <ele>1832.104</ele>
        <time>2020-06-25T14:44:01Z</time>
      </trkpt>
      <trkpt lat="43.98812" lon="7.4428">
        <ele>1832.104</ele>
        <time>2020-06-25T14:44:17Z</time>
      </trkpt>
      <trkpt lat="43.98812" lon="7.4428">
        <ele>1832.104</ele>
        <time>2020-06-25T14:44:33Z</time>
      </trkpt>
      <trkpt lat="43.98812" lon="7.4428">
        <ele>1832.104</ele>
        <time>2020-06-25T14:44:49Z</time>
      </trkpt>
      <trkpt lat="43.98812" lon="7.4428">
        <ele>1832.104</ele>
        <time>2020-06-25T14:45:05Z</time>
      </trkpt>
      <trkpt lat="43.98812" lon="7.4428">
        <ele>1832.104</ele>
        <time>2020-06-25T14:45:20Z</time>
      </trkpt>
      <trkpt lat="43.98812" lon="7.4428">
        <ele>1832.104</ele>
        <time>2020-06-25T14:45:35Z</time>
      </trkpt>
      <trkpt lat="43.98812" lon="7.4428">
        <ele>1832.104</ele>
        <time>2020-06-25T14:45:51Z</time>
      </trkpt>
      <trkpt lat="43.98812" lon="7.4428">
        <ele>1832.104</ele>
        <time>2020-06-25T14:46:06Z</time>
      </trkpt>
      <trkpt lat="43.98812" lon="7.4428">
        <ele>1832.104</ele>
        <time>2020-06-25T14:46:22Z</time>
      </trkpt>
      <trkpt lat="43.98812" lon="7.4428">
        <ele>1832.104</ele>
        <time>2020-06-25T14:46:38Z</time>
      </trkpt>
      <trkpt lat="43.98812" lon="7.4428">
        <ele>1832.104</ele>
        <time>2020-06-25T14:46:54Z</time>
      </trkpt>
      <trkpt lat="43.98812" lon="7.4428">
        <ele>1832.104</ele>
        <time>2020-06-25T14:47:10Z</time>
      </trkpt>
      <trkpt lat="43.98812" lon="7.4428">
        <ele>1832.104</ele>
        <time>2020-06-25T14:47:25Z</time>
      </trkpt>
      <trkpt lat="43.98812" lon="7.4428">
        <ele>1832.104</ele>
        <time>2020-06-25T14:47:40Z</time>
      </trkpt>
      <trkpt lat="43.98812" lon="7.4428">
        <ele>1832.104</ele>
        <time>2020-06-25T14:47:56Z</time>
      </trkpt>
      <trkpt lat="43.98812" lon="7.4428">
        <ele>1832.104</ele>
        <time>2020-06-25T14:48:12Z</time>
      </trkpt>
      <trkpt lat="43.98812" lon="7.4428">
        <ele>1832.104</ele>
        <time>2020-06-25T14:48:28Z</time>
      </trkpt>
      <trkpt lat="43.98812" lon="7.4428">
        <ele>1832.104</ele>
        <time>2020-06-25T14:48:43Z</time>
      </trkpt>
      <trkpt lat="43.98812" lon="7.4428">
        <ele>1832.104</ele>
        <time>2020-06-25T14:48:58Z</time>
      </trkpt>
      <trkpt lat="43.98812" lon="7.4428">
        <ele>1832.104</ele>
        <time>2020-06-25T14:49:14Z</time>
      </trkpt>
      <trkpt lat="43.98812" lon="7.4428">
        <ele>1832.104</ele>
        <time>2020-06-25T14:49:30Z</time>
      </trkpt>
      <trkpt lat="43.98811" lon="7.44279">
        <ele>1832.59</ele>
        <time>2020-06-25T14:49:45Z</time>
      </trkpt>
      <trkpt lat="43.98811" lon="7.44279">
        <ele>1832.59</ele>
        <time>2020-06-25T14:50:01Z</time>
      </trkpt>
      <trkpt lat="43.98811" lon="7.44279">
        <ele>1832.59</ele>
        <time>2020-06-25T14:50:17Z</time>
      </trkpt>
      <trkpt lat="43.98811" lon="7.44279">
        <ele>1832.59</ele>
        <time>2020-06-25T14:50:32Z</time>
      </trkpt>
      <trkpt lat="43.98811" lon="7.44279">
        <ele>1832.59</ele>
        <time>2020-06-25T14:50:48Z</time>
      </trkpt>
      <trkpt lat="43.98811" lon="7.44279">
        <ele>1832.59</ele>
        <time>2020-06-25T14:51:03Z</time>
      </trkpt>
      <trkpt lat="43.98811" lon="7.44279">
        <ele>1832.59</ele>
        <time>2020-06-25T14:51:19Z</time>
      </trkpt>
      <trkpt lat="43.98811" lon="7.44279">
        <ele>1832.59</ele>
        <time>2020-06-25T14:51:34Z</time>
      </trkpt>
      <trkpt lat="43.98811" lon="7.44279">
        <ele>1832.59</ele>
        <time>2020-06-25T14:51:50Z</time>
      </trkpt>
      <trkpt lat="43.98811" lon="7.44279">
        <ele>1832.59</ele>
        <time>2020-06-25T14:52:06Z</time>
      </trkpt>
      <trkpt lat="43.98811" lon="7.44279">
        <ele>1832.59</ele>
        <time>2020-06-25T14:52:22Z</time>
      </trkpt>
      <trkpt lat="43.98811" lon="7.44279">
        <ele>1832.59</ele>
        <time>2020-06-25T14:52:38Z</time>
      </trkpt>
      <trkpt lat="43.98811" lon="7.44279">
        <ele>1832.59</ele>
        <time>2020-06-25T14:52:53Z</time>
      </trkpt>
      <trkpt lat="43.98811" lon="7.44279">
        <ele>1832.59</ele>
        <time>2020-06-25T14:53:09Z</time>
      </trkpt>
      <trkpt lat="43.98811" lon="7.44279">
        <ele>1832.59</ele>
        <time>2020-06-25T14:53:25Z</time>
      </trkpt>
      <trkpt lat="43.98811" lon="7.44279">
        <ele>1832.59</ele>
        <time>2020-06-25T14:53:41Z</time>
      </trkpt>
      <trkpt lat="43.98811" lon="7.44279">
        <ele>1832.59</ele>
        <time>2020-06-25T14:53:56Z</time>
      </trkpt>
      <trkpt lat="43.98811" lon="7.44279">
        <ele>1832.59</ele>
        <time>2020-06-25T14:54:12Z</time>
      </trkpt>
      <trkpt lat="43.98811" lon="7.44279">
        <ele>1832.59</ele>
        <time>2020-06-25T14:54:27Z</time>
      </trkpt>
      <trkpt lat="43.98811" lon="7.44279">
        <ele>1832.59</ele>
        <time>2020-06-25T14:54:43Z</time>
      </trkpt>
      <trkpt lat="43.98811" lon="7.44279">
        <ele>1832.59</ele>
        <time>2020-06-25T14:54:59Z</time>
      </trkpt>
      <trkpt lat="43.98811" lon="7.44279">
        <ele>1832.59</ele>
        <time>2020-06-25T14:55:15Z</time>
      </trkpt>
      <trkpt lat="43.98811" lon="7.44279">
        <ele>1832.59</ele>
        <time>2020-06-25T14:55:30Z</time>
      </trkpt>
      <trkpt lat="43.98815" lon="7.44281">
        <ele>1832.738</ele>
        <time>2020-06-25T14:55:46Z</time>
      </trkpt>
      <trkpt lat="43.98815" lon="7.44281">
        <ele>1832.738</ele>
        <time>2020-06-25T14:56:02Z</time>
      </trkpt>
      <trkpt lat="43.98815" lon="7.44281">
        <ele>1832.738</ele>
        <time>2020-06-25T14:56:18Z</time>
      </trkpt>
      <trkpt lat="43.98815" lon="7.44281">
        <ele>1832.738</ele>
        <time>2020-06-25T14:56:34Z</time>
      </trkpt>
      <trkpt lat="43.98815" lon="7.44281">
        <ele>1832.738</ele>
        <time>2020-06-25T14:56:50Z</time>
      </trkpt>
      <trkpt lat="43.98815" lon="7.44281">
        <ele>1832.738</ele>
        <time>2020-06-25T14:57:05Z</time>
      </trkpt>
      <trkpt lat="43.98815" lon="7.44281">
        <ele>1832.738</ele>
        <time>2020-06-25T14:57:21Z</time>
      </trkpt>
      <trkpt lat="43.98815" lon="7.44281">
        <ele>1832.738</ele>
        <time>2020-06-25T14:57:37Z</time>
      </trkpt>
      <trkpt lat="43.98815" lon="7.44281">
        <ele>1832.738</ele>
        <time>2020-06-25T14:57:53Z</time>
      </trkpt>
      <trkpt lat="43.98815" lon="7.44281">
        <ele>1832.738</ele>
        <time>2020-06-25T14:58:08Z</time>
      </trkpt>
      <trkpt lat="43.98815" lon="7.44281">
        <ele>1832.738</ele>
        <time>2020-06-25T14:58:23Z</time>
      </trkpt>
      <trkpt lat="43.98815" lon="7.44281">
        <ele>1832.738</ele>
        <time>2020-06-25T14:58:38Z</time>
      </trkpt>
      <trkpt lat="43.98815" lon="7.44281">
        <ele>1832.738</ele>
        <time>2020-06-25T14:58:54Z</time>
      </trkpt>
      <trkpt lat="43.98815" lon="7.44281">
        <ele>1832.738</ele>
        <time>2020-06-25T14:59:10Z</time>
      </trkpt>
      <trkpt lat="43.98815" lon="7.44281">
        <ele>1832.738</ele>
        <time>2020-06-25T14:59:25Z</time>
      </trkpt>
      <trkpt lat="43.98815" lon="7.44281">
        <ele>1832.738</ele>
        <time>2020-06-25T14:59:41Z</time>
      </trkpt>
      <trkpt lat="43.98815" lon="7.44281">
        <ele>1832.738</ele>
        <time>2020-06-25T14:59:56Z</time>
      </trkpt>
      <trkpt lat="43.98815" lon="7.44281">
        <ele>1832.738</ele>
        <time>2020-06-25T15:00:12Z</time>
      </trkpt>
      <trkpt lat="43.98815" lon="7.44281">
        <ele>1832.738</ele>
        <time>2020-06-25T15:00:28Z</time>
      </trkpt>
      <trkpt lat="43.98815" lon="7.44281">
        <ele>1832.738</ele>
        <time>2020-06-25T15:00:44Z</time>
      </trkpt>
      <trkpt lat="43.98815" lon="7.44281">
        <ele>1832.738</ele>
        <time>2020-06-25T15:01:00Z</time>
      </trkpt>
      <trkpt lat="43.98815" lon="7.44281">
        <ele>1832.738</ele>
        <time>2020-06-25T15:01:15Z</time>
      </trkpt>
      <trkpt lat="43.98819" lon="7.44286">
        <ele>1831.695</ele>
        <time>2020-06-25T15:01:31Z</time>
      </trkpt>
      <trkpt lat="43.98819" lon="7.44286">
        <ele>1831.695</ele>
        <time>2020-06-25T15:01:46Z</time>
      </trkpt>
      <trkpt lat="43.98819" lon="7.44286">
        <ele>1831.695</ele>
        <time>2020-06-25T15:02:02Z</time>
      </trkpt>
      <trkpt lat="43.98819" lon="7.44286">
        <ele>1831.695</ele>
        <time>2020-06-25T15:02:17Z</time>
      </trkpt>
      <trkpt lat="43.98819" lon="7.44286">
        <ele>1831.695</ele>
        <time>2020-06-25T15:02:32Z</time>
      </trkpt>
      <trkpt lat="43.98819" lon="7.44286">
        <ele>1831.695</ele>
        <time>2020-06-25T15:02:48Z</time>
      </trkpt>
      <trkpt lat="43.98819" lon="7.44286">
        <ele>1831.695</ele>
        <time>2020-06-25T15:03:04Z</time>
      </trkpt>
      <trkpt lat="43.98819" lon="7.44286">
        <ele>1831.695</ele>
        <time>2020-06-25T15:03:20Z</time>
      </trkpt>
      <trkpt lat="43.98819" lon="7.44286">
        <ele>1831.695</ele>
        <time>2020-06-25T15:03:36Z</time>
      </trkpt>
      <trkpt lat="43.98819" lon="7.44286">
        <ele>1831.695</ele>
        <time>2020-06-25T15:03:51Z</time>
      </trkpt>
      <trkpt lat="43.98819" lon="7.44286">
        <ele>1831.695</ele>
        <time>2020-06-25T15:04:07Z</time>
      </trkpt>
      <trkpt lat="43.98819" lon="7.44286">
        <ele>1831.695</ele>
        <time>2020-06-25T15:04:23Z</time>
      </trkpt>
      <trkpt lat="43.98819" lon="7.44286">
        <ele>1831.695</ele>
        <time>2020-06-25T15:04:38Z</time>
      </trkpt>
      <trkpt lat="43.98819" lon="7.44286">
        <ele>1831.695</ele>
        <time>2020-06-25T15:04:54Z</time>
      </trkpt>
      <trkpt lat="43.98819" lon="7.44286">
        <ele>1831.695</ele>
        <time>2020-06-25T15:05:10Z</time>
      </trkpt>
      <trkpt lat="43.98819" lon="7.44286">
        <ele>1831.695</ele>
        <time>2020-06-25T15:05:26Z</time>
      </trkpt>
      <trkpt lat="43.98819" lon="7.44286">
        <ele>1831.695</ele>
        <time>2020-06-25T15:05:42Z</time>
      </trkpt>
      <trkpt lat="43.98819" lon="7.44286">
        <ele>1831.695</ele>
        <time>2020-06-25T15:05:58Z</time>
      </trkpt>
      <trkpt lat="43.98819" lon="7.44286">
        <ele>1831.695</ele>
        <time>2020-06-25T15:06:14Z</time>
      </trkpt>
      <trkpt lat="43.98819" lon="7.44286">
        <ele>1831.695</ele>
        <time>2020-06-25T15:06:30Z</time>
      </trkpt>
      <trkpt lat="43.98819" lon="7.44286">
        <ele>1831.695</ele>
        <time>2020-06-25T15:06:46Z</time>
      </trkpt>
      <trkpt lat="43.98819" lon="7.44286">
        <ele>1831.695</ele>
        <time>2020-06-25T15:07:02Z</time>
      </trkpt>
      <trkpt lat="43.98819" lon="7.44286">
        <ele>1831.695</ele>
        <time>2020-06-25T15:07:17Z</time>
      </trkpt>
      <trkpt lat="43.98819" lon="7.44286">
        <ele>1831.695</ele>
        <time>2020-06-25T15:07:33Z</time>
      </trkpt>
      <trkpt lat="43.98819" lon="7.44286">
        <ele>1831.695</ele>
        <time>2020-06-25T15:07:48Z</time>
      </trkpt>
      <trkpt lat="43.98819" lon="7.44286">
        <ele>1831.695</ele>
        <time>2020-06-25T15:08:04Z</time>
      </trkpt>
      <trkpt lat="43.98819" lon="7.44286">
        <ele>1831.695</ele>
        <time>2020-06-25T15:08:20Z</time>
      </trkpt>
      <trkpt lat="43.98819" lon="7.44286">
        <ele>1831.695</ele>
        <time>2020-06-25T15:08:36Z</time>
      </trkpt>
      <trkpt lat="43.98819" lon="7.44286">
        <ele>1831.695</ele>
        <time>2020-06-25T15:08:51Z</time>
      </trkpt>
      <trkpt lat="43.98815" lon="7.44292">
        <ele>1836.681</ele>
        <time>2020-06-25T15:09:06Z</time>
      </trkpt>
      <trkpt lat="43.98815" lon="7.44292">
        <ele>1836.681</ele>
        <time>2020-06-25T15:09:21Z</time>
      </trkpt>
      <trkpt lat="43.98815" lon="7.44292">
        <ele>1836.681</ele>
        <time>2020-06-25T15:09:37Z</time>
      </trkpt>
      <trkpt lat="43.98815" lon="7.44292">
        <ele>1836.681</ele>
        <time>2020-06-25T15:09:53Z</time>
      </trkpt>
      <trkpt lat="43.98815" lon="7.44292">
        <ele>1836.681</ele>
        <time>2020-06-25T15:10:08Z</time>
      </trkpt>
      <trkpt lat="43.98815" lon="7.44292">
        <ele>1836.681</ele>
        <time>2020-06-25T15:10:24Z</time>
      </trkpt>
      <trkpt lat="43.98815" lon="7.44292">
        <ele>1836.681</ele>
        <time>2020-06-25T15:10:40Z</time>
      </trkpt>
      <trkpt lat="43.98815" lon="7.44292">
        <ele>1836.681</ele>
        <time>2020-06-25T15:10:55Z</time>
      </trkpt>
      <trkpt lat="43.98815" lon="7.44292">
        <ele>1836.681</ele>
        <time>2020-06-25T15:11:11Z</time>
      </trkpt>
      <trkpt lat="43.98815" lon="7.44292">
        <ele>1836.681</ele>
        <time>2020-06-25T15:11:27Z</time>
      </trkpt>
      <trkpt lat="43.98815" lon="7.44292">
        <ele>1836.681</ele>
        <time>2020-06-25T15:11:42Z</time>
      </trkpt>
      <trkpt lat="43.98815" lon="7.44292">
        <ele>1836.681</ele>
        <time>2020-06-25T15:11:58Z</time>
      </trkpt>
      <trkpt lat="43.98815" lon="7.44292">
        <ele>1836.681</ele>
        <time>2020-06-25T15:12:14Z</time>
      </trkpt>
      <trkpt lat="43.98815" lon="7.44292">
        <ele>1836.681</ele>
        <time>2020-06-25T15:12:30Z</time>
      </trkpt>
      <trkpt lat="43.98815" lon="7.44292">
        <ele>1836.681</ele>
        <time>2020-06-25T15:12:46Z</time>
      </trkpt>
      <trkpt lat="43.98815" lon="7.44292">
        <ele>1836.681</ele>
        <time>2020-06-25T15:13:02Z</time>
      </trkpt>
      <trkpt lat="43.98815" lon="7.44292">
        <ele>1836.681</ele>
        <time>2020-06-25T15:13:17Z</time>
      </trkpt>
      <trkpt lat="43.98815" lon="7.44292">
        <ele>1836.681</ele>
        <time>2020-06-25T15:13:33Z</time>
      </trkpt>
      <trkpt lat="43.98815" lon="7.44292">
        <ele>1836.681</ele>
        <time>2020-06-25T15:13:49Z</time>
      </trkpt>
      <trkpt lat="43.98815" lon="7.44292">
        <ele>1836.681</ele>
        <time>2020-06-25T15:14:04Z</time>
      </trkpt>
      <trkpt lat="43.98815" lon="7.44292">
        <ele>1836.681</ele>
        <time>2020-06-25T15:14:20Z</time>
      </trkpt>
      <trkpt lat="43.98815" lon="7.44292">
        <ele>1836.681</ele>
        <time>2020-06-25T15:14:36Z</time>
      </trkpt>
      <trkpt lat="43.98815" lon="7.44292">
        <ele>1836.681</ele>
        <time>2020-06-25T15:14:52Z</time>
      </trkpt>
      <trkpt lat="43.98815" lon="7.44292">
        <ele>1836.681</ele>
        <time>2020-06-25T15:15:08Z</time>
      </trkpt>
      <trkpt lat="43.98815" lon="7.44292">
        <ele>1836.681</ele>
        <time>2020-06-25T15:15:23Z</time>
      </trkpt>
      <trkpt lat="43.98815" lon="7.44292">
        <ele>1836.681</ele>
        <time>2020-06-25T15:15:38Z</time>
      </trkpt>
      <trkpt lat="43.98815" lon="7.44292">
        <ele>1836.681</ele>
        <time>2020-06-25T15:15:54Z</time>
      </trkpt>
      <trkpt lat="43.98815" lon="7.44292">
        <ele>1836.681</ele>
        <time>2020-06-25T15:16:10Z</time>
      </trkpt>
      <trkpt lat="43.98815" lon="7.44292">
        <ele>1836.681</ele>
        <time>2020-06-25T15:16:25Z</time>
      </trkpt>
      <trkpt lat="43.98815" lon="7.44292">
        <ele>1836.681</ele>
        <time>2020-06-25T15:16:41Z</time>
      </trkpt>
      <trkpt lat="43.98815" lon="7.44292">
        <ele>1836.681</ele>
        <time>2020-06-25T15:16:56Z</time>
      </trkpt>
      <trkpt lat="43.98815" lon="7.44292">
        <ele>1836.681</ele>
        <time>2020-06-25T15:17:12Z</time>
      </trkpt>
      <trkpt lat="43.98815" lon="7.44292">
        <ele>1836.681</ele>
        <time>2020-06-25T15:17:28Z</time>
      </trkpt>
      <trkpt lat="43.98815" lon="7.44292">
        <ele>1836.681</ele>
        <time>2020-06-25T15:17:43Z</time>
      </trkpt>
      <trkpt lat="43.98815" lon="7.44292">
        <ele>1836.681</ele>
        <time>2020-06-25T15:17:58Z</time>
      </trkpt>
      <trkpt lat="43.98815" lon="7.44292">
        <ele>1836.681</ele>
        <time>2020-06-25T15:18:14Z</time>
      </trkpt>
      <trkpt lat="43.98815" lon="7.44292">
        <ele>1836.681</ele>
        <time>2020-06-25T15:18:30Z</time>
      </trkpt>
      <trkpt lat="43.98815" lon="7.44292">
        <ele>1836.681</ele>
        <time>2020-06-25T15:18:46Z</time>
      </trkpt>
      <trkpt lat="43.98815" lon="7.44292">
        <ele>1836.681</ele>
        <time>2020-06-25T15:19:02Z</time>
      </trkpt>
      <trkpt lat="43.98815" lon="7.44292">
        <ele>1836.681</ele>
        <time>2020-06-25T15:19:18Z</time>
      </trkpt>
      <trkpt lat="43.98815" lon="7.44292">
        <ele>1836.681</ele>
        <time>2020-06-25T15:19:33Z</time>
      </trkpt>
      <trkpt lat="43.98815" lon="7.44292">
        <ele>1836.681</ele>
        <time>2020-06-25T15:19:49Z</time>
      </trkpt>
      <trkpt lat="43.98815" lon="7.44292">
        <ele>1836.681</ele>
        <time>2020-06-25T15:20:05Z</time>
      </trkpt>
      <trkpt lat="43.98815" lon="7.44292">
        <ele>1836.681</ele>
        <time>2020-06-25T15:20:20Z</time>
      </trkpt>
      <trkpt lat="43.98815" lon="7.44292">
        <ele>1836.681</ele>
        <time>2020-06-25T15:20:35Z</time>
      </trkpt>
      <trkpt lat="43.98815" lon="7.44292">
        <ele>1836.681</ele>
        <time>2020-06-25T15:20:50Z</time>
      </trkpt>
      <trkpt lat="43.98815" lon="7.44292">
        <ele>1836.681</ele>
        <time>2020-06-25T15:21:06Z</time>
      </trkpt>
      <trkpt lat="43.98815" lon="7.44292">
        <ele>1836.681</ele>
        <time>2020-06-25T15:21:21Z</time>
      </trkpt>
      <trkpt lat="43.98815" lon="7.44292">
        <ele>1836.681</ele>
        <time>2020-06-25T15:21:37Z</time>
      </trkpt>
      <trkpt lat="43.98815" lon="7.44292">
        <ele>1836.681</ele>
        <time>2020-06-25T15:21:53Z</time>
      </trkpt>
      <trkpt lat="43.98815" lon="7.44292">
        <ele>1836.681</ele>
        <time>2020-06-25T15:22:09Z</time>
      </trkpt>
      <trkpt lat="43.98815" lon="7.44292">
        <ele>1836.681</ele>
        <time>2020-06-25T15:22:25Z</time>
      </trkpt>
      <trkpt lat="43.98815" lon="7.44292">
        <ele>1836.681</ele>
        <time>2020-06-25T15:22:40Z</time>
      </trkpt>
      <trkpt lat="43.98815" lon="7.44292">
        <ele>1836.681</ele>
        <time>2020-06-25T15:22:55Z</time>
      </trkpt>
      <trkpt lat="43.98815" lon="7.44292">
        <ele>1836.681</ele>
        <time>2020-06-25T15:23:11Z</time>
      </trkpt>
      <trkpt lat="43.98817" lon="7.44295">
        <ele>1834.366</ele>
        <time>2020-06-25T15:23:27Z</time>
      </trkpt>
      <trkpt lat="43.98817" lon="7.44295">
        <ele>1834.366</ele>
        <time>2020-06-25T15:23:43Z</time>
      </trkpt>
      <trkpt lat="43.98817" lon="7.44295">
        <ele>1834.366</ele>
        <time>2020-06-25T15:23:58Z</time>
      </trkpt>
      <trkpt lat="43.98817" lon="7.44295">
        <ele>1834.366</ele>
        <time>2020-06-25T15:24:14Z</time>
      </trkpt>
      <trkpt lat="43.98817" lon="7.44295">
        <ele>1834.366</ele>
        <time>2020-06-25T15:24:30Z</time>
      </trkpt>
      <trkpt lat="43.98817" lon="7.44295">
        <ele>1834.366</ele>
        <time>2020-06-25T15:24:45Z</time>
      </trkpt>
      <trkpt lat="43.98817" lon="7.44295">
        <ele>1834.366</ele>
        <time>2020-06-25T15:25:01Z</time>
      </trkpt>
      <trkpt lat="43.98817" lon="7.44295">
        <ele>1834.366</ele>
        <time>2020-06-25T15:25:16Z</time>
      </trkpt>
      <trkpt lat="43.98817" lon="7.44295">
        <ele>1834.366</ele>
        <time>2020-06-25T15:25:32Z</time>
      </trkpt>
      <trkpt lat="43.98817" lon="7.44295">
        <ele>1834.366</ele>
        <time>2020-06-25T15:25:47Z</time>
      </trkpt>
      <trkpt lat="43.98817" lon="7.44295">
        <ele>1834.366</ele>
        <time>2020-06-25T15:26:02Z</time>
      </trkpt>
      <trkpt lat="43.98817" lon="7.44295">
        <ele>1834.366</ele>
        <time>2020-06-25T15:26:17Z</time>
      </trkpt>
      <trkpt lat="43.98817" lon="7.44295">
        <ele>1834.366</ele>
        <time>2020-06-25T15:26:33Z</time>
      </trkpt>
      <trkpt lat="43.98817" lon="7.44295">
        <ele>1834.366</ele>
        <time>2020-06-25T15:26:48Z</time>
      </trkpt>
      <trkpt lat="43.98817" lon="7.44295">
        <ele>1834.366</ele>
        <time>2020-06-25T15:27:03Z</time>
      </trkpt>
      <trkpt lat="43.98817" lon="7.44295">
        <ele>1834.366</ele>
        <time>2020-06-25T15:27:19Z</time>
      </trkpt>
      <trkpt lat="43.98817" lon="7.44295">
        <ele>1834.366</ele>
        <time>2020-06-25T15:27:34Z</time>
      </trkpt>
      <trkpt lat="43.98817" lon="7.44295">
        <ele>1834.366</ele>
        <time>2020-06-25T15:27:50Z</time>
      </trkpt>
      <trkpt lat="43.98817" lon="7.44295">
        <ele>1834.366</ele>
        <time>2020-06-25T15:28:06Z</time>
      </trkpt>
      <trkpt lat="43.98817" lon="7.44295">
        <ele>1834.366</ele>
        <time>2020-06-25T15:28:21Z</time>
      </trkpt>
      <trkpt lat="43.98817" lon="7.44295">
        <ele>1834.366</ele>
        <time>2020-06-25T15:28:37Z</time>
      </trkpt>
      <trkpt lat="43.98817" lon="7.44295">
        <ele>1834.366</ele>
        <time>2020-06-25T15:28:53Z</time>
      </trkpt>
      <trkpt lat="43.98817" lon="7.44295">
        <ele>1834.366</ele>
        <time>2020-06-25T15:29:08Z</time>
      </trkpt>
      <trkpt lat="43.98817" lon="7.44295">
        <ele>1834.366</ele>
        <time>2020-06-25T15:29:23Z</time>
      </trkpt>
      <trkpt lat="43.98817" lon="7.44295">
        <ele>1834.366</ele>
        <time>2020-06-25T15:29:38Z</time>
      </trkpt>
      <trkpt lat="43.98817" lon="7.44295">
        <ele>1834.366</ele>
        <time>2020-06-25T15:29:54Z</time>
      </trkpt>
      <trkpt lat="43.98817" lon="7.44295">
        <ele>1834.366</ele>
        <time>2020-06-25T15:30:09Z</time>
      </trkpt>
      <trkpt lat="43.98817" lon="7.44295">
        <ele>1834.366</ele>
        <time>2020-06-25T15:30:24Z</time>
      </trkpt>
      <trkpt lat="43.98817" lon="7.44295">
        <ele>1834.366</ele>
        <time>2020-06-25T15:30:40Z</time>
      </trkpt>
      <trkpt lat="43.98817" lon="7.44295">
        <ele>1834.366</ele>
        <time>2020-06-25T15:30:56Z</time>
      </trkpt>
      <trkpt lat="43.98817" lon="7.44295">
        <ele>1834.366</ele>
        <time>2020-06-25T15:31:12Z</time>
      </trkpt>
      <trkpt lat="43.98817" lon="7.44295">
        <ele>1834.366</ele>
        <time>2020-06-25T15:31:27Z</time>
      </trkpt>
      <trkpt lat="43.98817" lon="7.44295">
        <ele>1834.366</ele>
        <time>2020-06-25T15:31:43Z</time>
      </trkpt>
      <trkpt lat="43.98817" lon="7.44295">
        <ele>1834.366</ele>
        <time>2020-06-25T15:31:58Z</time>
      </trkpt>
      <trkpt lat="43.98817" lon="7.44295">
        <ele>1834.366</ele>
        <time>2020-06-25T15:32:14Z</time>
      </trkpt>
      <trkpt lat="43.98817" lon="7.44295">
        <ele>1834.366</ele>
        <time>2020-06-25T15:32:29Z</time>
      </trkpt>
      <trkpt lat="43.98817" lon="7.44295">
        <ele>1834.366</ele>
        <time>2020-06-25T15:32:45Z</time>
      </trkpt>
    </trkseg>
  </trk>
</gpx>